<?xml version="1.0" encoding="UTF-8" standalone="no" ?>
<gpx xmlns="http://www.topografix.com/GPX/1/1" xmlns:xsi="http://www.w3.org/2001/XMLSchema-instance" xsi:schemaLocation="http://www.topografix.com/GPX/1/1 http://www.topografix.com/GPX/1/1/gpx.xsd" version="1.1" creator="VisuGPX - https://www.visugpx.com">
  <metadata>
    <name>Joze condat les montboissiers</name>
    <desc><![CDATA[Joze -> Condat les Montboissiers version + longue]]></desc>
  </metadata>
  <trk>
    <name><![CDATA[Joze condat les montboissiers]]></name>
    <extensions>
      <line xmlns="http://www.topografix.com/GPX/gpx_style/0/2">
        <color>0000FF</color>
        <width>4</width>
      </line>
    </extensions>
    <trkseg>
      <trkpt lat="45.8622" lon="3.30383">
        <ele>301.58422851562</ele>
        <time>2020-05-23T19:59:31.000Z</time>
      </trkpt>
      <trkpt lat="45.86219" lon="3.30383">
        <ele>301.59420776367</ele>
        <time>2020-05-23T19:59:31.000Z</time>
      </trkpt>
      <trkpt lat="45.8622" lon="3.30398">
        <ele>300.16717529297</ele>
        <time>2020-05-23T19:59:31.002Z</time>
      </trkpt>
      <trkpt lat="45.8622" lon="3.30398">
        <ele>300.16738891602</ele>
        <time>2020-05-23T19:59:31.004Z</time>
      </trkpt>
      <trkpt lat="45.86213" lon="3.30494">
        <ele>295.45919799805</ele>
        <time>2020-05-23T19:59:31.017Z</time>
      </trkpt>
      <trkpt lat="45.86197" lon="3.30588">
        <ele>293.21939086914</ele>
        <time>2020-05-23T19:59:31.040Z</time>
      </trkpt>
      <trkpt lat="45.86197" lon="3.30588">
        <ele>293.21939086914</ele>
        <time>2020-05-23T19:59:31.063Z</time>
      </trkpt>
      <trkpt lat="45.8615" lon="3.30816">
        <ele>294.36773681641</ele>
        <time>2020-05-23T19:59:31.113Z</time>
      </trkpt>
      <trkpt lat="45.86141" lon="3.30863">
        <ele>294.75244140625</ele>
        <time>2020-05-23T19:59:31.169Z</time>
      </trkpt>
      <trkpt lat="45.86127" lon="3.30933">
        <ele>294.45327758789</ele>
        <time>2020-05-23T19:59:31.233Z</time>
      </trkpt>
      <trkpt lat="45.86098" lon="3.31073">
        <ele>293.49853515625</ele>
        <time>2020-05-23T19:59:31.313Z</time>
      </trkpt>
      <trkpt lat="45.86098" lon="3.31073">
        <ele>293.49865722656</ele>
        <time>2020-05-23T19:59:31.393Z</time>
      </trkpt>
      <trkpt lat="45.86071" lon="3.31202">
        <ele>294.64721679688</ele>
        <time>2020-05-23T19:59:31.488Z</time>
      </trkpt>
      <trkpt lat="45.86046" lon="3.3133">
        <ele>293</ele>
        <time>2020-05-23T19:59:31.598Z</time>
      </trkpt>
      <trkpt lat="45.86041" lon="3.31407">
        <ele>292.63842773438</ele>
        <time>2020-05-23T19:59:31.717Z</time>
      </trkpt>
      <trkpt lat="45.8604" lon="3.31726">
        <ele>293</ele>
        <time>2020-05-23T19:59:31.871Z</time>
      </trkpt>
      <trkpt lat="45.86041" lon="3.31846">
        <ele>293.01031494141</ele>
        <time>2020-05-23T19:59:32.039Z</time>
      </trkpt>
      <trkpt lat="45.8604" lon="3.32044">
        <ele>293</ele>
        <time>2020-05-23T19:59:32.229Z</time>
      </trkpt>
      <trkpt lat="45.86046" lon="3.32211">
        <ele>293.59939575195</ele>
        <time>2020-05-23T19:59:32.437Z</time>
      </trkpt>
      <trkpt lat="45.86053" lon="3.3227">
        <ele>294.49371337891</ele>
        <time>2020-05-23T19:59:32.652Z</time>
      </trkpt>
      <trkpt lat="45.86112" lon="3.32459">
        <ele>298.65603637695</ele>
        <time>2020-05-23T19:59:32.890Z</time>
      </trkpt>
      <trkpt lat="45.86117" lon="3.3255">
        <ele>298.26748657227</ele>
        <time>2020-05-23T19:59:33.139Z</time>
      </trkpt>
      <trkpt lat="45.86098" lon="3.32679">
        <ele>298.05032348633</ele>
        <time>2020-05-23T19:59:33.402Z</time>
      </trkpt>
      <trkpt lat="45.8609" lon="3.32905">
        <ele>300.40484619141</ele>
        <time>2020-05-23T19:59:33.691Z</time>
      </trkpt>
      <trkpt lat="45.86123" lon="3.33248">
        <ele>299.19891357422</ele>
        <time>2020-05-23T19:59:34.018Z</time>
      </trkpt>
      <trkpt lat="45.86155" lon="3.3336">
        <ele>296.60165405273</ele>
        <time>2020-05-23T19:59:34.359Z</time>
      </trkpt>
      <trkpt lat="45.86171" lon="3.33416">
        <ele>296.69177246094</ele>
        <time>2020-05-23T19:59:34.707Z</time>
      </trkpt>
      <trkpt lat="45.86172" lon="3.33419">
        <ele>296.69204711914</ele>
        <time>2020-05-23T19:59:35.055Z</time>
      </trkpt>
      <trkpt lat="45.86185" lon="3.33453">
        <ele>297.18585205078</ele>
        <time>2020-05-23T19:59:35.407Z</time>
      </trkpt>
      <trkpt lat="45.86197" lon="3.33484">
        <ele>297.88095092773</ele>
        <time>2020-05-23T19:59:35.763Z</time>
      </trkpt>
      <trkpt lat="45.86227" lon="3.33511">
        <ele>297.99554443359</ele>
        <time>2020-05-23T19:59:36.125Z</time>
      </trkpt>
      <trkpt lat="45.86282" lon="3.3354">
        <ele>300.06164550781</ele>
        <time>2020-05-23T19:59:36.496Z</time>
      </trkpt>
      <trkpt lat="45.86299" lon="3.3355">
        <ele>300.67932128906</ele>
        <time>2020-05-23T19:59:36.870Z</time>
      </trkpt>
      <trkpt lat="45.86278" lon="3.3363">
        <ele>301.72463989258</ele>
        <time>2020-05-23T19:59:37.254Z</time>
      </trkpt>
      <trkpt lat="45.86263" lon="3.33732">
        <ele>302.10317993164</ele>
        <time>2020-05-23T19:59:37.649Z</time>
      </trkpt>
      <trkpt lat="45.86246" lon="3.33756">
        <ele>302.18051147461</ele>
        <time>2020-05-23T19:59:38.048Z</time>
      </trkpt>
      <trkpt lat="45.86243" lon="3.33758">
        <ele>302.16763305664</ele>
        <time>2020-05-23T19:59:38.448Z</time>
      </trkpt>
      <trkpt lat="45.86236" lon="3.33756">
        <ele>302.06457519531</ele>
        <time>2020-05-23T19:59:38.849Z</time>
      </trkpt>
      <trkpt lat="45.86209" lon="3.33806">
        <ele>302.34774780273</ele>
        <time>2020-05-23T19:59:39.257Z</time>
      </trkpt>
      <trkpt lat="45.86196" lon="3.33812">
        <ele>302.24478149414</ele>
        <time>2020-05-23T19:59:39.667Z</time>
      </trkpt>
      <trkpt lat="45.86196" lon="3.33812">
        <ele>302.24487304688</ele>
        <time>2020-05-23T19:59:40.077Z</time>
      </trkpt>
      <trkpt lat="45.86105" lon="3.33766">
        <ele>301.4455871582</ele>
        <time>2020-05-23T19:59:40.503Z</time>
      </trkpt>
      <trkpt lat="45.85961" lon="3.33756">
        <ele>303.61065673828</ele>
        <time>2020-05-23T19:59:40.952Z</time>
      </trkpt>
      <trkpt lat="45.85943" lon="3.33758">
        <ele>303.71365356445</ele>
        <time>2020-05-23T19:59:41.404Z</time>
      </trkpt>
      <trkpt lat="45.85833" lon="3.33821">
        <ele>302.4049987793</ele>
        <time>2020-05-23T19:59:41.875Z</time>
      </trkpt>
      <trkpt lat="45.85684" lon="3.33861">
        <ele>300.21435546875</ele>
        <time>2020-05-23T19:59:42.370Z</time>
      </trkpt>
      <trkpt lat="45.85627" lon="3.33891">
        <ele>300.54736328125</ele>
        <time>2020-05-23T19:59:42.875Z</time>
      </trkpt>
      <trkpt lat="45.85574" lon="3.33881">
        <ele>302.16534423828</ele>
        <time>2020-05-23T19:59:43.388Z</time>
      </trkpt>
      <trkpt lat="45.85529" lon="3.33837">
        <ele>302.04614257812</ele>
        <time>2020-05-23T19:59:43.910Z</time>
      </trkpt>
      <trkpt lat="45.85439" lon="3.33835">
        <ele>304.42092895508</ele>
        <time>2020-05-23T19:59:44.446Z</time>
      </trkpt>
      <trkpt lat="45.85373" lon="3.33843">
        <ele>304.98178100586</ele>
        <time>2020-05-23T19:59:44.993Z</time>
      </trkpt>
      <trkpt lat="45.85309" lon="3.33898">
        <ele>307.16348266602</ele>
        <time>2020-05-23T19:59:45.552Z</time>
      </trkpt>
      <trkpt lat="45.85218" lon="3.33939">
        <ele>310.15780639648</ele>
        <time>2020-05-23T19:59:46.126Z</time>
      </trkpt>
      <trkpt lat="45.85198" lon="3.33969">
        <ele>310.76293945312</ele>
        <time>2020-05-23T19:59:46.705Z</time>
      </trkpt>
      <trkpt lat="45.85188" lon="3.34002">
        <ele>311.79486083984</ele>
        <time>2020-05-23T19:59:47.288Z</time>
      </trkpt>
      <trkpt lat="45.85188" lon="3.34026">
        <ele>312.82928466797</ele>
        <time>2020-05-23T19:59:47.873Z</time>
      </trkpt>
      <trkpt lat="45.85181" lon="3.3405">
        <ele>314.2326965332</ele>
        <time>2020-05-23T19:59:48.461Z</time>
      </trkpt>
      <trkpt lat="45.85104" lon="3.34135">
        <ele>320.85119628906</ele>
        <time>2020-05-23T19:59:49.065Z</time>
      </trkpt>
      <trkpt lat="45.85063" lon="3.34154">
        <ele>323.3606262207</ele>
        <time>2020-05-23T19:59:49.676Z</time>
      </trkpt>
      <trkpt lat="45.85017" lon="3.34197">
        <ele>328.00149536133</ele>
        <time>2020-05-23T19:59:50.295Z</time>
      </trkpt>
      <trkpt lat="45.84981" lon="3.34196">
        <ele>330.77587890625</ele>
        <time>2020-05-23T19:59:50.920Z</time>
      </trkpt>
      <trkpt lat="45.84961" lon="3.3421">
        <ele>331.06100463867</ele>
        <time>2020-05-23T19:59:51.549Z</time>
      </trkpt>
      <trkpt lat="45.84955" lon="3.3426">
        <ele>332.01861572266</ele>
        <time>2020-05-23T19:59:52.184Z</time>
      </trkpt>
      <trkpt lat="45.84948" lon="3.34311">
        <ele>332.85556030273</ele>
        <time>2020-05-23T19:59:52.824Z</time>
      </trkpt>
      <trkpt lat="45.84919" lon="3.34353">
        <ele>335.29956054688</ele>
        <time>2020-05-23T19:59:53.471Z</time>
      </trkpt>
      <trkpt lat="45.84808" lon="3.34449">
        <ele>346.87850952148</ele>
        <time>2020-05-23T19:59:54.139Z</time>
      </trkpt>
      <trkpt lat="45.84764" lon="3.34529">
        <ele>355.05014038086</ele>
        <time>2020-05-23T19:59:54.818Z</time>
      </trkpt>
      <trkpt lat="45.84749" lon="3.34552">
        <ele>356.44110107422</ele>
        <time>2020-05-23T19:59:55.501Z</time>
      </trkpt>
      <trkpt lat="45.84684" lon="3.34638">
        <ele>360.55471801758</ele>
        <time>2020-05-23T19:59:56.198Z</time>
      </trkpt>
      <trkpt lat="45.84684" lon="3.34638">
        <ele>360.55493164062</ele>
        <time>2020-05-23T19:59:56.895Z</time>
      </trkpt>
      <trkpt lat="45.84586" lon="3.34756">
        <ele>361.89981079102</ele>
        <time>2020-05-23T19:59:57.612Z</time>
      </trkpt>
      <trkpt lat="45.84531" lon="3.34848">
        <ele>360.70074462891</ele>
        <time>2020-05-23T19:59:58.343Z</time>
      </trkpt>
      <trkpt lat="45.8451" lon="3.34894">
        <ele>360.11022949219</ele>
        <time>2020-05-23T19:59:59.080Z</time>
      </trkpt>
      <trkpt lat="45.84495" lon="3.3496">
        <ele>361.07565307617</ele>
        <time>2020-05-23T19:59:59.825Z</time>
      </trkpt>
      <trkpt lat="45.84496" lon="3.35028">
        <ele>361.54782104492</ele>
        <time>2020-05-23T20:00:00.577Z</time>
      </trkpt>
      <trkpt lat="45.84506" lon="3.35088">
        <ele>361.20275878906</ele>
        <time>2020-05-23T20:00:01.336Z</time>
      </trkpt>
      <trkpt lat="45.84558" lon="3.35308">
        <ele>361.52911376953</ele>
        <time>2020-05-23T20:00:02.121Z</time>
      </trkpt>
      <trkpt lat="45.84558" lon="3.35308">
        <ele>361.52911376953</ele>
        <time>2020-05-23T20:00:02.906Z</time>
      </trkpt>
      <trkpt lat="45.8458" lon="3.35423">
        <ele>362.95245361328</ele>
        <time>2020-05-23T20:00:03.705Z</time>
      </trkpt>
      <trkpt lat="45.84571" lon="3.35495">
        <ele>363.44845581055</ele>
        <time>2020-05-23T20:00:04.512Z</time>
      </trkpt>
      <trkpt lat="45.84554" lon="3.35532">
        <ele>364.43518066406</ele>
        <time>2020-05-23T20:00:05.324Z</time>
      </trkpt>
      <trkpt lat="45.84525" lon="3.35568">
        <ele>365.63034057617</ele>
        <time>2020-05-23T20:00:06.142Z</time>
      </trkpt>
      <trkpt lat="45.84426" lon="3.35667">
        <ele>365.21087646484</ele>
        <time>2020-05-23T20:00:06.979Z</time>
      </trkpt>
      <trkpt lat="45.8436" lon="3.35729">
        <ele>366.70407104492</ele>
        <time>2020-05-23T20:00:07.829Z</time>
      </trkpt>
      <trkpt lat="45.84221" lon="3.3582">
        <ele>368.70700073242</ele>
        <time>2020-05-23T20:00:08.703Z</time>
      </trkpt>
      <trkpt lat="45.84136" lon="3.35895">
        <ele>372.26751708984</ele>
        <time>2020-05-23T20:00:09.593Z</time>
      </trkpt>
      <trkpt lat="45.84106" lon="3.3602">
        <ele>373</ele>
        <time>2020-05-23T20:00:10.498Z</time>
      </trkpt>
      <trkpt lat="45.841" lon="3.36239">
        <ele>369.99725341797</ele>
        <time>2020-05-23T20:00:11.428Z</time>
      </trkpt>
      <trkpt lat="45.84122" lon="3.36312">
        <ele>369.01571655273</ele>
        <time>2020-05-23T20:00:12.366Z</time>
      </trkpt>
      <trkpt lat="45.84135" lon="3.36397">
        <ele>369.53939819336</ele>
        <time>2020-05-23T20:00:13.314Z</time>
      </trkpt>
      <trkpt lat="45.84129" lon="3.36423">
        <ele>369.71478271484</ele>
        <time>2020-05-23T20:00:14.265Z</time>
      </trkpt>
      <trkpt lat="45.84117" lon="3.36438">
        <ele>368.95516967773</ele>
        <time>2020-05-23T20:00:15.219Z</time>
      </trkpt>
      <trkpt lat="45.84081" lon="3.36448">
        <ele>367.20452880859</ele>
        <time>2020-05-23T20:00:16.179Z</time>
      </trkpt>
      <trkpt lat="45.83925" lon="3.36364">
        <ele>360.58627319336</ele>
        <time>2020-05-23T20:00:17.165Z</time>
      </trkpt>
      <trkpt lat="45.83906" lon="3.36362">
        <ele>359.50500488281</ele>
        <time>2020-05-23T20:00:18.154Z</time>
      </trkpt>
      <trkpt lat="45.83889" lon="3.36377">
        <ele>357.23742675781</ele>
        <time>2020-05-23T20:00:19.147Z</time>
      </trkpt>
      <trkpt lat="45.83874" lon="3.36434">
        <ele>353.17001342773</ele>
        <time>2020-05-23T20:00:20.146Z</time>
      </trkpt>
      <trkpt lat="45.83854" lon="3.3646">
        <ele>351.31637573242</ele>
        <time>2020-05-23T20:00:21.150Z</time>
      </trkpt>
      <trkpt lat="45.8381" lon="3.36484">
        <ele>347.73706054688</ele>
        <time>2020-05-23T20:00:22.161Z</time>
      </trkpt>
      <trkpt lat="45.83724" lon="3.36508">
        <ele>344.18817138672</ele>
        <time>2020-05-23T20:00:23.186Z</time>
      </trkpt>
      <trkpt lat="45.83709" lon="3.36523">
        <ele>343.73364257812</ele>
        <time>2020-05-23T20:00:24.214Z</time>
      </trkpt>
      <trkpt lat="45.83543" lon="3.36632">
        <ele>339.87661743164</ele>
        <time>2020-05-23T20:00:25.271Z</time>
      </trkpt>
      <trkpt lat="45.83469" lon="3.36662">
        <ele>337.34317016602</ele>
        <time>2020-05-23T20:00:26.341Z</time>
      </trkpt>
      <trkpt lat="45.83333" lon="3.36689">
        <ele>335.13708496094</ele>
        <time>2020-05-23T20:00:27.433Z</time>
      </trkpt>
      <trkpt lat="45.8321" lon="3.36726">
        <ele>333.69738769531</ele>
        <time>2020-05-23T20:00:28.545Z</time>
      </trkpt>
      <trkpt lat="45.83129" lon="3.3672">
        <ele>331.76651000977</ele>
        <time>2020-05-23T20:00:29.670Z</time>
      </trkpt>
      <trkpt lat="45.83057" lon="3.36808">
        <ele>331.02880859375</ele>
        <time>2020-05-23T20:00:30.810Z</time>
      </trkpt>
      <trkpt lat="45.83037" lon="3.36884">
        <ele>332.86871337891</ele>
        <time>2020-05-23T20:00:31.959Z</time>
      </trkpt>
      <trkpt lat="45.83034" lon="3.36902">
        <ele>333.40957641602</ele>
        <time>2020-05-23T20:00:33.110Z</time>
      </trkpt>
      <trkpt lat="45.82992" lon="3.37067">
        <ele>334.23559570312</ele>
        <time>2020-05-23T20:00:34.281Z</time>
      </trkpt>
      <trkpt lat="45.82978" lon="3.37143">
        <ele>335.15026855469</ele>
        <time>2020-05-23T20:00:35.461Z</time>
      </trkpt>
      <trkpt lat="45.82979" lon="3.37191">
        <ele>336.16244506836</ele>
        <time>2020-05-23T20:00:36.646Z</time>
      </trkpt>
      <trkpt lat="45.82979" lon="3.37191">
        <ele>336.16223144531</ele>
        <time>2020-05-23T20:00:37.831Z</time>
      </trkpt>
      <trkpt lat="45.82981" lon="3.3728">
        <ele>336.59130859375</ele>
        <time>2020-05-23T20:00:39.026Z</time>
      </trkpt>
      <trkpt lat="45.82981" lon="3.37288">
        <ele>336.77151489258</ele>
        <time>2020-05-23T20:00:40.222Z</time>
      </trkpt>
      <trkpt lat="45.82981" lon="3.37381">
        <ele>338.69055175781</ele>
        <time>2020-05-23T20:00:41.428Z</time>
      </trkpt>
      <trkpt lat="45.82988" lon="3.37407">
        <ele>339.23107910156</ele>
        <time>2020-05-23T20:00:42.637Z</time>
      </trkpt>
      <trkpt lat="45.82985" lon="3.37457">
        <ele>340.62124633789</ele>
        <time>2020-05-23T20:00:43.852Z</time>
      </trkpt>
      <trkpt lat="45.82977" lon="3.37494">
        <ele>342.13998413086</ele>
        <time>2020-05-23T20:00:45.071Z</time>
      </trkpt>
      <trkpt lat="45.82961" lon="3.3756">
        <ele>344.23443603516</ele>
        <time>2020-05-23T20:00:46.298Z</time>
      </trkpt>
      <trkpt lat="45.82958" lon="3.37576">
        <ele>344.65921020508</ele>
        <time>2020-05-23T20:00:47.527Z</time>
      </trkpt>
      <trkpt lat="45.82935" lon="3.3767">
        <ele>346.86138916016</ele>
        <time>2020-05-23T20:00:48.767Z</time>
      </trkpt>
      <trkpt lat="45.82935" lon="3.3767">
        <ele>346.86138916016</ele>
        <time>2020-05-23T20:00:50.007Z</time>
      </trkpt>
      <trkpt lat="45.82916" lon="3.37715">
        <ele>347.80407714844</ele>
        <time>2020-05-23T20:00:51.253Z</time>
      </trkpt>
      <trkpt lat="45.82903" lon="3.37751">
        <ele>348.6794128418</ele>
        <time>2020-05-23T20:00:52.504Z</time>
      </trkpt>
      <trkpt lat="45.82903" lon="3.37751">
        <ele>348.6794128418</ele>
        <time>2020-05-23T20:00:53.755Z</time>
      </trkpt>
      <trkpt lat="45.82893" lon="3.37755">
        <ele>348.75662231445</ele>
        <time>2020-05-23T20:00:55.007Z</time>
      </trkpt>
      <trkpt lat="45.82857" lon="3.37764">
        <ele>349.76666259766</ele>
        <time>2020-05-23T20:00:56.265Z</time>
      </trkpt>
      <trkpt lat="45.8283" lon="3.37767">
        <ele>350.44888305664</ele>
        <time>2020-05-23T20:00:57.527Z</time>
      </trkpt>
      <trkpt lat="45.82827" lon="3.37766">
        <ele>350.51345825195</ele>
        <time>2020-05-23T20:00:58.790Z</time>
      </trkpt>
      <trkpt lat="45.82812" lon="3.37765">
        <ele>350.86080932617</ele>
        <time>2020-05-23T20:01:00.055Z</time>
      </trkpt>
      <trkpt lat="45.82785" lon="3.37773">
        <ele>351.9407043457</ele>
        <time>2020-05-23T20:01:01.325Z</time>
      </trkpt>
      <trkpt lat="45.82762" lon="3.37821">
        <ele>354.10571289062</ele>
        <time>2020-05-23T20:01:02.601Z</time>
      </trkpt>
      <trkpt lat="45.82771" lon="3.37887">
        <ele>356.51107788086</ele>
        <time>2020-05-23T20:01:03.885Z</time>
      </trkpt>
      <trkpt lat="45.82764" lon="3.37909">
        <ele>357.67599487305</ele>
        <time>2020-05-23T20:01:05.171Z</time>
      </trkpt>
      <trkpt lat="45.82758" lon="3.37934">
        <ele>358.767578125</ele>
        <time>2020-05-23T20:01:06.460Z</time>
      </trkpt>
      <trkpt lat="45.8274" lon="3.37932">
        <ele>359.37255859375</ele>
        <time>2020-05-23T20:01:07.752Z</time>
      </trkpt>
      <trkpt lat="45.82687" lon="3.37924">
        <ele>359.64865112305</ele>
        <time>2020-05-23T20:01:09.053Z</time>
      </trkpt>
      <trkpt lat="45.82684" lon="3.37968">
        <ele>360.8798828125</ele>
        <time>2020-05-23T20:01:10.359Z</time>
      </trkpt>
      <trkpt lat="45.82657" lon="3.37967">
        <ele>360.64645385742</ele>
        <time>2020-05-23T20:01:11.669Z</time>
      </trkpt>
      <trkpt lat="45.82655" lon="3.37968">
        <ele>360.63366699219</ele>
        <time>2020-05-23T20:01:12.979Z</time>
      </trkpt>
      <trkpt lat="45.82578" lon="3.37951">
        <ele>358.76782226562</ele>
        <time>2020-05-23T20:01:14.302Z</time>
      </trkpt>
      <trkpt lat="45.82575" lon="3.37951">
        <ele>358.69036865234</ele>
        <time>2020-05-23T20:01:15.625Z</time>
      </trkpt>
      <trkpt lat="45.82575" lon="3.37951">
        <ele>358.69058227539</ele>
        <time>2020-05-23T20:01:16.948Z</time>
      </trkpt>
      <trkpt lat="45.82542" lon="3.37948">
        <ele>357.5634765625</ele>
        <time>2020-05-23T20:01:18.277Z</time>
      </trkpt>
      <trkpt lat="45.82409" lon="3.37947">
        <ele>353.79330444336</ele>
        <time>2020-05-23T20:01:19.627Z</time>
      </trkpt>
      <trkpt lat="45.82337" lon="3.37928">
        <ele>352.96365356445</ele>
        <time>2020-05-23T20:01:20.989Z</time>
      </trkpt>
      <trkpt lat="45.82332" lon="3.37918">
        <ele>352.83493041992</ele>
        <time>2020-05-23T20:01:22.352Z</time>
      </trkpt>
      <trkpt lat="45.82325" lon="3.37921">
        <ele>352.87353515625</ele>
        <time>2020-05-23T20:01:23.716Z</time>
      </trkpt>
      <trkpt lat="45.82323" lon="3.37936">
        <ele>353.05377197266</ele>
        <time>2020-05-23T20:01:25.082Z</time>
      </trkpt>
      <trkpt lat="45.82281" lon="3.37965">
        <ele>353.20492553711</ele>
        <time>2020-05-23T20:01:26.456Z</time>
      </trkpt>
      <trkpt lat="45.82172" lon="3.38084">
        <ele>351</ele>
        <time>2020-05-23T20:01:27.851Z</time>
      </trkpt>
      <trkpt lat="45.82072" lon="3.38089">
        <ele>350.89453125</ele>
        <time>2020-05-23T20:01:29.262Z</time>
      </trkpt>
      <trkpt lat="45.82061" lon="3.38096">
        <ele>350.97177124023</ele>
        <time>2020-05-23T20:01:30.675Z</time>
      </trkpt>
      <trkpt lat="45.82031" lon="3.38113">
        <ele>350.40371704102</ele>
        <time>2020-05-23T20:01:32.094Z</time>
      </trkpt>
      <trkpt lat="45.81944" lon="3.38134">
        <ele>349.43518066406</ele>
        <time>2020-05-23T20:01:33.527Z</time>
      </trkpt>
      <trkpt lat="45.8182" lon="3.38163">
        <ele>346.96170043945</ele>
        <time>2020-05-23T20:01:34.980Z</time>
      </trkpt>
      <trkpt lat="45.8182" lon="3.38163">
        <ele>346.96157836914</ele>
        <time>2020-05-23T20:01:36.433Z</time>
      </trkpt>
      <trkpt lat="45.81811" lon="3.38169">
        <ele>346.91009521484</ele>
        <time>2020-05-23T20:01:37.887Z</time>
      </trkpt>
      <trkpt lat="45.81665" lon="3.38154">
        <ele>340.58255004883</ele>
        <time>2020-05-23T20:01:39.365Z</time>
      </trkpt>
      <trkpt lat="45.81556" lon="3.38179">
        <ele>338.03643798828</ele>
        <time>2020-05-23T20:01:40.860Z</time>
      </trkpt>
      <trkpt lat="45.81458" lon="3.38229">
        <ele>337.44381713867</ele>
        <time>2020-05-23T20:01:42.372Z</time>
      </trkpt>
      <trkpt lat="45.81409" lon="3.38293">
        <ele>337.17819213867</ele>
        <time>2020-05-23T20:01:43.895Z</time>
      </trkpt>
      <trkpt lat="45.81169" lon="3.3857">
        <ele>331.75723266602</ele>
        <time>2020-05-23T20:01:45.467Z</time>
      </trkpt>
      <trkpt lat="45.8104" lon="3.38654">
        <ele>332.05181884766</ele>
        <time>2020-05-23T20:01:47.062Z</time>
      </trkpt>
      <trkpt lat="45.81008" lon="3.38694">
        <ele>332.69677734375</ele>
        <time>2020-05-23T20:01:48.664Z</time>
      </trkpt>
      <trkpt lat="45.80922" lon="3.38746">
        <ele>332.40472412109</ele>
        <time>2020-05-23T20:01:50.280Z</time>
      </trkpt>
      <trkpt lat="45.80831" lon="3.38815">
        <ele>331.19262695312</ele>
        <time>2020-05-23T20:01:51.913Z</time>
      </trkpt>
      <trkpt lat="45.80787" lon="3.3887">
        <ele>332.60357666016</ele>
        <time>2020-05-23T20:01:53.555Z</time>
      </trkpt>
      <trkpt lat="45.80721" lon="3.38904">
        <ele>332.02697753906</ele>
        <time>2020-05-23T20:01:55.209Z</time>
      </trkpt>
      <trkpt lat="45.80706" lon="3.38909">
        <ele>331.82113647461</ele>
        <time>2020-05-23T20:01:56.865Z</time>
      </trkpt>
      <trkpt lat="45.80646" lon="3.38963">
        <ele>333.31246948242</ele>
        <time>2020-05-23T20:01:58.532Z</time>
      </trkpt>
      <trkpt lat="45.80645" lon="3.38962">
        <ele>333.32620239258</ele>
        <time>2020-05-23T20:02:00.200Z</time>
      </trkpt>
      <trkpt lat="45.80629" lon="3.38973">
        <ele>332.73736572266</ele>
        <time>2020-05-23T20:02:01.870Z</time>
      </trkpt>
      <trkpt lat="45.80614" lon="3.38979">
        <ele>332.73736572266</ele>
        <time>2020-05-23T20:02:03.543Z</time>
      </trkpt>
      <trkpt lat="45.80587" lon="3.38986">
        <ele>332.96533203125</ele>
        <time>2020-05-23T20:02:05.220Z</time>
      </trkpt>
      <trkpt lat="45.80552" lon="3.38998">
        <ele>332.97253417969</ele>
        <time>2020-05-23T20:02:06.903Z</time>
      </trkpt>
      <trkpt lat="45.80508" lon="3.39019">
        <ele>333.03115844727</ele>
        <time>2020-05-23T20:02:08.593Z</time>
      </trkpt>
      <trkpt lat="45.80418" lon="3.39049">
        <ele>331</ele>
        <time>2020-05-23T20:02:10.298Z</time>
      </trkpt>
      <trkpt lat="45.80349" lon="3.3907">
        <ele>328.76907348633</ele>
        <time>2020-05-23T20:02:12.015Z</time>
      </trkpt>
      <trkpt lat="45.80321" lon="3.39078">
        <ele>327.52127075195</ele>
        <time>2020-05-23T20:02:13.736Z</time>
      </trkpt>
      <trkpt lat="45.80286" lon="3.39083">
        <ele>326.77093505859</ele>
        <time>2020-05-23T20:02:15.463Z</time>
      </trkpt>
      <trkpt lat="45.80176" lon="3.39093">
        <ele>325.3889465332</ele>
        <time>2020-05-23T20:02:17.207Z</time>
      </trkpt>
      <trkpt lat="45.80118" lon="3.39099">
        <ele>325.009765625</ele>
        <time>2020-05-23T20:02:18.961Z</time>
      </trkpt>
      <trkpt lat="45.80085" lon="3.39105">
        <ele>325.0817565918</ele>
        <time>2020-05-23T20:02:20.720Z</time>
      </trkpt>
      <trkpt lat="45.8006" lon="3.39111">
        <ele>325.24810791016</ele>
        <time>2020-05-23T20:02:22.483Z</time>
      </trkpt>
      <trkpt lat="45.80031" lon="3.39121">
        <ele>325.54745483398</ele>
        <time>2020-05-23T20:02:24.251Z</time>
      </trkpt>
      <trkpt lat="45.7997" lon="3.39147">
        <ele>326.19177246094</ele>
        <time>2020-05-23T20:02:26.029Z</time>
      </trkpt>
      <trkpt lat="45.79949" lon="3.39154">
        <ele>326.61172485352</ele>
        <time>2020-05-23T20:02:27.810Z</time>
      </trkpt>
      <trkpt lat="45.79917" lon="3.3916">
        <ele>326.34365844727</ele>
        <time>2020-05-23T20:02:29.597Z</time>
      </trkpt>
      <trkpt lat="45.79838" lon="3.39172">
        <ele>324.30187988281</ele>
        <time>2020-05-23T20:02:31.396Z</time>
      </trkpt>
      <trkpt lat="45.79747" lon="3.39188">
        <ele>323.07760620117</ele>
        <time>2020-05-23T20:02:33.210Z</time>
      </trkpt>
      <trkpt lat="45.79708" lon="3.39199">
        <ele>323.09133911133</ele>
        <time>2020-05-23T20:02:35.030Z</time>
      </trkpt>
      <trkpt lat="45.79687" lon="3.39207">
        <ele>322.77938842773</ele>
        <time>2020-05-23T20:02:36.854Z</time>
      </trkpt>
      <trkpt lat="45.79654" lon="3.39227">
        <ele>322.82473754883</ele>
        <time>2020-05-23T20:02:38.684Z</time>
      </trkpt>
      <trkpt lat="45.79614" lon="3.39253">
        <ele>323.86410522461</ele>
        <time>2020-05-23T20:02:40.521Z</time>
      </trkpt>
      <trkpt lat="45.79574" lon="3.39274">
        <ele>325.20932006836</ele>
        <time>2020-05-23T20:02:42.364Z</time>
      </trkpt>
      <trkpt lat="45.79543" lon="3.39287">
        <ele>326.03982543945</ele>
        <time>2020-05-23T20:02:44.213Z</time>
      </trkpt>
      <trkpt lat="45.79517" lon="3.39294">
        <ele>325.83587646484</ele>
        <time>2020-05-23T20:02:46.066Z</time>
      </trkpt>
      <trkpt lat="45.79455" lon="3.39306">
        <ele>325.466796875</ele>
        <time>2020-05-23T20:02:47.929Z</time>
      </trkpt>
      <trkpt lat="45.79398" lon="3.39307">
        <ele>325.52679443359</ele>
        <time>2020-05-23T20:02:49.801Z</time>
      </trkpt>
      <trkpt lat="45.7932" lon="3.39297">
        <ele>325.54150390625</ele>
        <time>2020-05-23T20:02:51.686Z</time>
      </trkpt>
      <trkpt lat="45.79247" lon="3.39286">
        <ele>324.31860351562</ele>
        <time>2020-05-23T20:02:53.582Z</time>
      </trkpt>
      <trkpt lat="45.79173" lon="3.39276">
        <ele>322.36801147461</ele>
        <time>2020-05-23T20:02:55.490Z</time>
      </trkpt>
      <trkpt lat="45.79137" lon="3.39275">
        <ele>321.48568725586</ele>
        <time>2020-05-23T20:02:57.404Z</time>
      </trkpt>
      <trkpt lat="45.79111" lon="3.39277">
        <ele>321.58166503906</ele>
        <time>2020-05-23T20:02:59.322Z</time>
      </trkpt>
      <trkpt lat="45.79073" lon="3.39283">
        <ele>321.86953735352</ele>
        <time>2020-05-23T20:03:01.246Z</time>
      </trkpt>
      <trkpt lat="45.79022" lon="3.39293">
        <ele>321.67477416992</ele>
        <time>2020-05-23T20:03:03.178Z</time>
      </trkpt>
      <trkpt lat="45.79" lon="3.39301">
        <ele>321.95858764648</ele>
        <time>2020-05-23T20:03:05.114Z</time>
      </trkpt>
      <trkpt lat="45.78975" lon="3.39316">
        <ele>322.79846191406</ele>
        <time>2020-05-23T20:03:07.054Z</time>
      </trkpt>
      <trkpt lat="45.789" lon="3.3938">
        <ele>326.14556884766</ele>
        <time>2020-05-23T20:03:09.008Z</time>
      </trkpt>
      <trkpt lat="45.78884" lon="3.39392">
        <ele>327.00033569336</ele>
        <time>2020-05-23T20:03:10.965Z</time>
      </trkpt>
      <trkpt lat="45.78855" lon="3.39407">
        <ele>327.24307250977</ele>
        <time>2020-05-23T20:03:12.927Z</time>
      </trkpt>
      <trkpt lat="45.78837" lon="3.39413">
        <ele>327.60299682617</ele>
        <time>2020-05-23T20:03:14.892Z</time>
      </trkpt>
      <trkpt lat="45.78806" lon="3.3942">
        <ele>327.90295410156</ele>
        <time>2020-05-23T20:03:16.862Z</time>
      </trkpt>
      <trkpt lat="45.78755" lon="3.39426">
        <ele>328.0007019043</ele>
        <time>2020-05-23T20:03:18.840Z</time>
      </trkpt>
      <trkpt lat="45.78664" lon="3.39434">
        <ele>327.51391601562</ele>
        <time>2020-05-23T20:03:20.833Z</time>
      </trkpt>
      <trkpt lat="45.78543" lon="3.3944">
        <ele>328.39517211914</ele>
        <time>2020-05-23T20:03:22.845Z</time>
      </trkpt>
      <trkpt lat="45.78399" lon="3.3945">
        <ele>331.34143066406</ele>
        <time>2020-05-23T20:03:24.880Z</time>
      </trkpt>
      <trkpt lat="45.78337" lon="3.39453">
        <ele>330.95748901367</ele>
        <time>2020-05-23T20:03:26.925Z</time>
      </trkpt>
      <trkpt lat="45.78288" lon="3.39458">
        <ele>331.05456542969</ele>
        <time>2020-05-23T20:03:28.978Z</time>
      </trkpt>
      <trkpt lat="45.78267" lon="3.3946">
        <ele>331.52249145508</ele>
        <time>2020-05-23T20:03:31.035Z</time>
      </trkpt>
      <trkpt lat="45.78246" lon="3.39466">
        <ele>332.30432128906</ele>
        <time>2020-05-23T20:03:33.095Z</time>
      </trkpt>
      <trkpt lat="45.78195" lon="3.39484">
        <ele>334.03204345703</ele>
        <time>2020-05-23T20:03:35.163Z</time>
      </trkpt>
      <trkpt lat="45.78163" lon="3.39488">
        <ele>334.03814697266</ele>
        <time>2020-05-23T20:03:37.237Z</time>
      </trkpt>
      <trkpt lat="45.78125" lon="3.39493">
        <ele>334.1589050293</ele>
        <time>2020-05-23T20:03:39.317Z</time>
      </trkpt>
      <trkpt lat="45.78102" lon="3.39499">
        <ele>334.42114257812</ele>
        <time>2020-05-23T20:03:41.400Z</time>
      </trkpt>
      <trkpt lat="45.78077" lon="3.3951">
        <ele>334.91305541992</ele>
        <time>2020-05-23T20:03:43.488Z</time>
      </trkpt>
      <trkpt lat="45.78043" lon="3.39519">
        <ele>335.53204345703</ele>
        <time>2020-05-23T20:03:45.581Z</time>
      </trkpt>
      <trkpt lat="45.78004" lon="3.39528">
        <ele>336.86383056641</ele>
        <time>2020-05-23T20:03:47.681Z</time>
      </trkpt>
      <trkpt lat="45.77983" lon="3.39534">
        <ele>337.60232543945</ele>
        <time>2020-05-23T20:03:49.784Z</time>
      </trkpt>
      <trkpt lat="45.77964" lon="3.39544">
        <ele>338.53060913086</ele>
        <time>2020-05-23T20:03:51.890Z</time>
      </trkpt>
      <trkpt lat="45.7793" lon="3.39566">
        <ele>340.45864868164</ele>
        <time>2020-05-23T20:03:54.002Z</time>
      </trkpt>
      <trkpt lat="45.779" lon="3.39579">
        <ele>340.36267089844</ele>
        <time>2020-05-23T20:03:56.119Z</time>
      </trkpt>
      <trkpt lat="45.77867" lon="3.39588">
        <ele>340.12594604492</ele>
        <time>2020-05-23T20:03:58.242Z</time>
      </trkpt>
      <trkpt lat="45.77842" lon="3.39595">
        <ele>339.77798461914</ele>
        <time>2020-05-23T20:04:00.369Z</time>
      </trkpt>
      <trkpt lat="45.77813" lon="3.39608">
        <ele>339.76666259766</ele>
        <time>2020-05-23T20:04:02.500Z</time>
      </trkpt>
      <trkpt lat="45.77793" lon="3.39613">
        <ele>339.56689453125</ele>
        <time>2020-05-23T20:04:04.635Z</time>
      </trkpt>
      <trkpt lat="45.77778" lon="3.39613">
        <ele>339.38693237305</ele>
        <time>2020-05-23T20:04:06.772Z</time>
      </trkpt>
      <trkpt lat="45.77764" lon="3.39614">
        <ele>339.26696777344</ele>
        <time>2020-05-23T20:04:08.911Z</time>
      </trkpt>
      <trkpt lat="45.77753" lon="3.39618">
        <ele>339.32693481445</ele>
        <time>2020-05-23T20:04:11.052Z</time>
      </trkpt>
      <trkpt lat="45.77702" lon="3.39643">
        <ele>339.45104980469</ele>
        <time>2020-05-23T20:04:13.202Z</time>
      </trkpt>
      <trkpt lat="45.77649" lon="3.39674">
        <ele>339.80752563477</ele>
        <time>2020-05-23T20:04:15.361Z</time>
      </trkpt>
      <trkpt lat="45.77612" lon="3.39698">
        <ele>338.91598510742</ele>
        <time>2020-05-23T20:04:17.526Z</time>
      </trkpt>
      <trkpt lat="45.77585" lon="3.39711">
        <ele>337.59622192383</ele>
        <time>2020-05-23T20:04:19.696Z</time>
      </trkpt>
      <trkpt lat="45.77551" lon="3.39725">
        <ele>335.43078613281</ele>
        <time>2020-05-23T20:04:21.872Z</time>
      </trkpt>
      <trkpt lat="45.77499" lon="3.39739">
        <ele>334.06301879883</ele>
        <time>2020-05-23T20:04:24.056Z</time>
      </trkpt>
      <trkpt lat="45.7749" lon="3.39741">
        <ele>333.81103515625</ele>
        <time>2020-05-23T20:04:26.242Z</time>
      </trkpt>
      <trkpt lat="45.77485" lon="3.39739">
        <ele>333.55908203125</ele>
        <time>2020-05-23T20:04:28.428Z</time>
      </trkpt>
      <trkpt lat="45.77477" lon="3.39734">
        <ele>333.09115600586</ele>
        <time>2020-05-23T20:04:30.616Z</time>
      </trkpt>
      <trkpt lat="45.77462" lon="3.39734">
        <ele>332.99691772461</ele>
        <time>2020-05-23T20:04:32.806Z</time>
      </trkpt>
      <trkpt lat="45.77458" lon="3.39733">
        <ele>333.00894165039</ele>
        <time>2020-05-23T20:04:34.997Z</time>
      </trkpt>
      <trkpt lat="45.77456" lon="3.39741">
        <ele>333.32086181641</ele>
        <time>2020-05-23T20:04:37.189Z</time>
      </trkpt>
      <trkpt lat="45.77453" lon="3.39751">
        <ele>333.50933837891</ele>
        <time>2020-05-23T20:04:39.382Z</time>
      </trkpt>
      <trkpt lat="45.77441" lon="3.39771">
        <ele>332.98229980469</ele>
        <time>2020-05-23T20:04:41.578Z</time>
      </trkpt>
      <trkpt lat="45.77392" lon="3.39824">
        <ele>331.8544921875</ele>
        <time>2020-05-23T20:04:43.784Z</time>
      </trkpt>
      <trkpt lat="45.77373" lon="3.39843">
        <ele>332.35848999023</ele>
        <time>2020-05-23T20:04:45.994Z</time>
      </trkpt>
      <trkpt lat="45.77351" lon="3.39871">
        <ele>333.43084716797</ele>
        <time>2020-05-23T20:04:48.208Z</time>
      </trkpt>
      <trkpt lat="45.77316" lon="3.39942">
        <ele>334.37225341797</ele>
        <time>2020-05-23T20:04:50.432Z</time>
      </trkpt>
      <trkpt lat="45.77264" lon="3.40059">
        <ele>335.95916748047</ele>
        <time>2020-05-23T20:04:52.672Z</time>
      </trkpt>
      <trkpt lat="45.77244" lon="3.40117">
        <ele>336.17446899414</ele>
        <time>2020-05-23T20:04:54.919Z</time>
      </trkpt>
      <trkpt lat="45.77226" lon="3.40191">
        <ele>339.04949951172</ele>
        <time>2020-05-23T20:04:57.175Z</time>
      </trkpt>
      <trkpt lat="45.772" lon="3.40334">
        <ele>343.57241821289</ele>
        <time>2020-05-23T20:04:59.447Z</time>
      </trkpt>
      <trkpt lat="45.77153" lon="3.4059">
        <ele>347.333984375</ele>
        <time>2020-05-23T20:05:01.749Z</time>
      </trkpt>
      <trkpt lat="45.7711" lon="3.40825">
        <ele>344.33471679688</ele>
        <time>2020-05-23T20:05:04.078Z</time>
      </trkpt>
      <trkpt lat="45.77106" lon="3.40892">
        <ele>345.42709350586</ele>
        <time>2020-05-23T20:05:06.415Z</time>
      </trkpt>
      <trkpt lat="45.77106" lon="3.40917">
        <ele>345.41244506836</ele>
        <time>2020-05-23T20:05:08.754Z</time>
      </trkpt>
      <trkpt lat="45.77101" lon="3.40944">
        <ele>344.82244873047</ele>
        <time>2020-05-23T20:05:11.096Z</time>
      </trkpt>
      <trkpt lat="45.77096" lon="3.40967">
        <ele>344.15054321289</ele>
        <time>2020-05-23T20:05:13.441Z</time>
      </trkpt>
      <trkpt lat="45.77089" lon="3.40982">
        <ele>343.62265014648</ele>
        <time>2020-05-23T20:05:15.788Z</time>
      </trkpt>
      <trkpt lat="45.77078" lon="3.4099">
        <ele>343.1667175293</ele>
        <time>2020-05-23T20:05:18.137Z</time>
      </trkpt>
      <trkpt lat="45.77071" lon="3.40988">
        <ele>343.04672241211</ele>
        <time>2020-05-23T20:05:20.487Z</time>
      </trkpt>
      <trkpt lat="45.77064" lon="3.40989">
        <ele>342.8547668457</ele>
        <time>2020-05-23T20:05:22.838Z</time>
      </trkpt>
      <trkpt lat="45.77058" lon="3.40994">
        <ele>342.5908203125</ele>
        <time>2020-05-23T20:05:25.191Z</time>
      </trkpt>
      <trkpt lat="45.77053" lon="3.41001">
        <ele>342.37725830078</ele>
        <time>2020-05-23T20:05:27.545Z</time>
      </trkpt>
      <trkpt lat="45.77049" lon="3.4101">
        <ele>342.26181030273</ele>
        <time>2020-05-23T20:05:29.900Z</time>
      </trkpt>
      <trkpt lat="45.77048" lon="3.4102">
        <ele>342.06198120117</ele>
        <time>2020-05-23T20:05:32.256Z</time>
      </trkpt>
      <trkpt lat="45.77049" lon="3.41035">
        <ele>341.4860534668</ele>
        <time>2020-05-23T20:05:34.614Z</time>
      </trkpt>
      <trkpt lat="45.77045" lon="3.41077">
        <ele>340.11828613281</ele>
        <time>2020-05-23T20:05:36.976Z</time>
      </trkpt>
      <trkpt lat="45.77042" lon="3.41103">
        <ele>339.39797973633</ele>
        <time>2020-05-23T20:05:39.341Z</time>
      </trkpt>
      <trkpt lat="45.77037" lon="3.4112">
        <ele>339.37396240234</ele>
        <time>2020-05-23T20:05:41.708Z</time>
      </trkpt>
      <trkpt lat="45.77031" lon="3.41132">
        <ele>339.44595336914</ele>
        <time>2020-05-23T20:05:44.077Z</time>
      </trkpt>
      <trkpt lat="45.77004" lon="3.4118">
        <ele>339.25778198242</ele>
        <time>2020-05-23T20:05:46.453Z</time>
      </trkpt>
      <trkpt lat="45.76958" lon="3.41266">
        <ele>340.48468017578</ele>
        <time>2020-05-23T20:05:48.841Z</time>
      </trkpt>
      <trkpt lat="45.76943" lon="3.4129">
        <ele>341.31253051758</ele>
        <time>2020-05-23T20:05:51.233Z</time>
      </trkpt>
      <trkpt lat="45.76924" lon="3.41313">
        <ele>341.99298095703</ele>
        <time>2020-05-23T20:05:53.629Z</time>
      </trkpt>
      <trkpt lat="45.76841" lon="3.41399">
        <ele>342</ele>
        <time>2020-05-23T20:05:56.041Z</time>
      </trkpt>
      <trkpt lat="45.76671" lon="3.41577">
        <ele>346.34265136719</ele>
        <time>2020-05-23T20:05:58.487Z</time>
      </trkpt>
      <trkpt lat="45.76529" lon="3.41725">
        <ele>347.96694946289</ele>
        <time>2020-05-23T20:06:00.961Z</time>
      </trkpt>
      <trkpt lat="45.76475" lon="3.4178">
        <ele>346.42419433594</ele>
        <time>2020-05-23T20:06:03.446Z</time>
      </trkpt>
      <trkpt lat="45.76446" lon="3.41804">
        <ele>346.2096862793</ele>
        <time>2020-05-23T20:06:05.936Z</time>
      </trkpt>
      <trkpt lat="45.76433" lon="3.41813">
        <ele>346.19769287109</ele>
        <time>2020-05-23T20:06:08.428Z</time>
      </trkpt>
      <trkpt lat="45.76414" lon="3.41822">
        <ele>346.32965087891</ele>
        <time>2020-05-23T20:06:10.923Z</time>
      </trkpt>
      <trkpt lat="45.764" lon="3.4183">
        <ele>346.3776550293</ele>
        <time>2020-05-23T20:06:13.421Z</time>
      </trkpt>
      <trkpt lat="45.7639" lon="3.41837">
        <ele>346.36566162109</ele>
        <time>2020-05-23T20:06:15.921Z</time>
      </trkpt>
      <trkpt lat="45.76384" lon="3.41847">
        <ele>346.18106079102</ele>
        <time>2020-05-23T20:06:18.422Z</time>
      </trkpt>
      <trkpt lat="45.76382" lon="3.41858">
        <ele>345.94024658203</ele>
        <time>2020-05-23T20:06:20.924Z</time>
      </trkpt>
      <trkpt lat="45.76379" lon="3.41897">
        <ele>344.68048095703</ele>
        <time>2020-05-23T20:06:23.431Z</time>
      </trkpt>
      <trkpt lat="45.76374" lon="3.41925">
        <ele>343.99395751953</ele>
        <time>2020-05-23T20:06:25.941Z</time>
      </trkpt>
      <trkpt lat="45.76359" lon="3.41957">
        <ele>344.42599487305</ele>
        <time>2020-05-23T20:06:28.455Z</time>
      </trkpt>
      <trkpt lat="45.76337" lon="3.41993">
        <ele>345.31384277344</ele>
        <time>2020-05-23T20:06:30.975Z</time>
      </trkpt>
      <trkpt lat="45.76324" lon="3.42027">
        <ele>345.96563720703</ele>
        <time>2020-05-23T20:06:33.499Z</time>
      </trkpt>
      <trkpt lat="45.76313" lon="3.42053">
        <ele>346.58847045898</ele>
        <time>2020-05-23T20:06:36.026Z</time>
      </trkpt>
      <trkpt lat="45.76305" lon="3.42064">
        <ele>346.97241210938</ele>
        <time>2020-05-23T20:06:38.555Z</time>
      </trkpt>
      <trkpt lat="45.76293" lon="3.42072">
        <ele>347.27416992188</ele>
        <time>2020-05-23T20:06:41.086Z</time>
      </trkpt>
      <trkpt lat="45.76284" lon="3.42076">
        <ele>347.49011230469</ele>
        <time>2020-05-23T20:06:43.619Z</time>
      </trkpt>
      <trkpt lat="45.76284" lon="3.42074">
        <ele>347.48867797852</ele>
        <time>2020-05-23T20:06:46.152Z</time>
      </trkpt>
      <trkpt lat="45.76284" lon="3.42074">
        <ele>347.48941040039</ele>
        <time>2020-05-23T20:06:48.685Z</time>
      </trkpt>
      <trkpt lat="45.76284" lon="3.42074">
        <ele>347.49011230469</ele>
        <time>2020-05-23T20:06:51.218Z</time>
      </trkpt>
      <trkpt lat="45.76265" lon="3.42076">
        <ele>347.54437255859</ele>
        <time>2020-05-23T20:06:53.754Z</time>
      </trkpt>
      <trkpt lat="45.76233" lon="3.42069">
        <ele>347.71234130859</ele>
        <time>2020-05-23T20:06:56.295Z</time>
      </trkpt>
      <trkpt lat="45.76218" lon="3.42071">
        <ele>347.73818969727</ele>
        <time>2020-05-23T20:06:58.839Z</time>
      </trkpt>
      <trkpt lat="45.76176" lon="3.42108">
        <ele>347.88217163086</ele>
        <time>2020-05-23T20:07:01.391Z</time>
      </trkpt>
      <trkpt lat="45.76133" lon="3.42144">
        <ele>348.08291625977</ele>
        <time>2020-05-23T20:07:03.951Z</time>
      </trkpt>
      <trkpt lat="45.76111" lon="3.42155">
        <ele>348.61080932617</ele>
        <time>2020-05-23T20:07:06.514Z</time>
      </trkpt>
      <trkpt lat="45.76086" lon="3.42159">
        <ele>348.72604370117</ele>
        <time>2020-05-23T20:07:09.081Z</time>
      </trkpt>
      <trkpt lat="45.76066" lon="3.42167">
        <ele>348.58206176758</ele>
        <time>2020-05-23T20:07:11.652Z</time>
      </trkpt>
      <trkpt lat="45.76054" lon="3.42179">
        <ele>348.14553833008</ele>
        <time>2020-05-23T20:07:14.225Z</time>
      </trkpt>
      <trkpt lat="45.76045" lon="3.42194">
        <ele>348.19415283203</ele>
        <time>2020-05-23T20:07:16.800Z</time>
      </trkpt>
      <trkpt lat="45.75995" lon="3.42263">
        <ele>348.48208618164</ele>
        <time>2020-05-23T20:07:19.386Z</time>
      </trkpt>
      <trkpt lat="45.75987" lon="3.4229">
        <ele>349.10385131836</ele>
        <time>2020-05-23T20:07:21.976Z</time>
      </trkpt>
      <trkpt lat="45.75988" lon="3.4233">
        <ele>349.57177734375</ele>
        <time>2020-05-23T20:07:24.570Z</time>
      </trkpt>
      <trkpt lat="45.75983" lon="3.42403">
        <ele>350.50762939453</ele>
        <time>2020-05-23T20:07:27.172Z</time>
      </trkpt>
      <trkpt lat="45.75989" lon="3.42437">
        <ele>350.84356689453</ele>
        <time>2020-05-23T20:07:29.778Z</time>
      </trkpt>
      <trkpt lat="45.75991" lon="3.42469">
        <ele>351</ele>
        <time>2020-05-23T20:07:32.388Z</time>
      </trkpt>
      <trkpt lat="45.75981" lon="3.42517">
        <ele>351</ele>
        <time>2020-05-23T20:07:35.003Z</time>
      </trkpt>
      <trkpt lat="45.75963" lon="3.42548">
        <ele>351.5837097168</ele>
        <time>2020-05-23T20:07:37.623Z</time>
      </trkpt>
      <trkpt lat="45.75933" lon="3.4259">
        <ele>352.80752563477</ele>
        <time>2020-05-23T20:07:40.250Z</time>
      </trkpt>
      <trkpt lat="45.75873" lon="3.42677">
        <ele>355.04956054688</ele>
        <time>2020-05-23T20:07:42.890Z</time>
      </trkpt>
      <trkpt lat="45.75812" lon="3.42763">
        <ele>356</ele>
        <time>2020-05-23T20:07:45.544Z</time>
      </trkpt>
      <trkpt lat="45.75752" lon="3.4285">
        <ele>358.27029418945</ele>
        <time>2020-05-23T20:07:48.212Z</time>
      </trkpt>
      <trkpt lat="45.75692" lon="3.42937">
        <ele>358.10836791992</ele>
        <time>2020-05-23T20:07:50.893Z</time>
      </trkpt>
      <trkpt lat="45.75631" lon="3.43023">
        <ele>359.24545288086</ele>
        <time>2020-05-23T20:07:53.588Z</time>
      </trkpt>
      <trkpt lat="45.75571" lon="3.4311">
        <ele>361.59927368164</ele>
        <time>2020-05-23T20:07:56.297Z</time>
      </trkpt>
      <trkpt lat="45.75531" lon="3.43148">
        <ele>362.55911254883</ele>
        <time>2020-05-23T20:07:59.014Z</time>
      </trkpt>
      <trkpt lat="45.75506" lon="3.43162">
        <ele>363.15899658203</ele>
        <time>2020-05-23T20:08:01.735Z</time>
      </trkpt>
      <trkpt lat="45.75466" lon="3.43166">
        <ele>364.1188659668</ele>
        <time>2020-05-23T20:08:04.462Z</time>
      </trkpt>
      <trkpt lat="45.75424" lon="3.43174">
        <ele>364.19674682617</ele>
        <time>2020-05-23T20:08:07.196Z</time>
      </trkpt>
      <trkpt lat="45.75383" lon="3.43169">
        <ele>364.42724609375</ele>
        <time>2020-05-23T20:08:09.937Z</time>
      </trkpt>
      <trkpt lat="45.75331" lon="3.4316">
        <ele>365.89099121094</ele>
        <time>2020-05-23T20:08:12.686Z</time>
      </trkpt>
      <trkpt lat="45.75271" lon="3.43139">
        <ele>367.8346862793</ele>
        <time>2020-05-23T20:08:15.445Z</time>
      </trkpt>
      <trkpt lat="45.75216" lon="3.43115">
        <ele>369.28396606445</ele>
        <time>2020-05-23T20:08:18.213Z</time>
      </trkpt>
      <trkpt lat="45.7517" lon="3.43084">
        <ele>370.61083984375</ele>
        <time>2020-05-23T20:08:20.989Z</time>
      </trkpt>
      <trkpt lat="45.75136" lon="3.43067">
        <ele>371.07507324219</ele>
        <time>2020-05-23T20:08:23.771Z</time>
      </trkpt>
      <trkpt lat="45.75071" lon="3.43042">
        <ele>373.85699462891</ele>
        <time>2020-05-23T20:08:26.564Z</time>
      </trkpt>
      <trkpt lat="45.75006" lon="3.43016">
        <ele>377.28421020508</ele>
        <time>2020-05-23T20:08:29.368Z</time>
      </trkpt>
      <trkpt lat="45.74941" lon="3.42991">
        <ele>379.42272949219</ele>
        <time>2020-05-23T20:08:32.182Z</time>
      </trkpt>
      <trkpt lat="45.74913" lon="3.42988">
        <ele>380.05862426758</ele>
        <time>2020-05-23T20:08:35.001Z</time>
      </trkpt>
      <trkpt lat="45.74866" lon="3.42999">
        <ele>380.79598999023</ele>
        <time>2020-05-23T20:08:37.828Z</time>
      </trkpt>
      <trkpt lat="45.74818" lon="3.43009">
        <ele>380.92196655273</ele>
        <time>2020-05-23T20:08:40.662Z</time>
      </trkpt>
      <trkpt lat="45.74756" lon="3.43006">
        <ele>381.92794799805</ele>
        <time>2020-05-23T20:08:43.506Z</time>
      </trkpt>
      <trkpt lat="45.74698" lon="3.42993">
        <ele>382.18997192383</ele>
        <time>2020-05-23T20:08:46.360Z</time>
      </trkpt>
      <trkpt lat="45.74693" lon="3.42991">
        <ele>382.11798095703</ele>
        <time>2020-05-23T20:08:49.214Z</time>
      </trkpt>
      <trkpt lat="45.74634" lon="3.42978">
        <ele>381.69781494141</ele>
        <time>2020-05-23T20:08:52.078Z</time>
      </trkpt>
      <trkpt lat="45.74574" lon="3.42965">
        <ele>381.63241577148</ele>
        <time>2020-05-23T20:08:54.952Z</time>
      </trkpt>
      <trkpt lat="45.74547" lon="3.42965">
        <ele>381.65081787109</ele>
        <time>2020-05-23T20:08:57.830Z</time>
      </trkpt>
      <trkpt lat="45.74505" lon="3.42954">
        <ele>383.03057861328</ele>
        <time>2020-05-23T20:09:00.715Z</time>
      </trkpt>
      <trkpt lat="45.74442" lon="3.4296">
        <ele>383.32055664062</ele>
        <time>2020-05-23T20:09:03.610Z</time>
      </trkpt>
      <trkpt lat="45.74395" lon="3.42956">
        <ele>383</ele>
        <time>2020-05-23T20:09:06.512Z</time>
      </trkpt>
      <trkpt lat="45.74337" lon="3.4296">
        <ele>383.61117553711</ele>
        <time>2020-05-23T20:09:09.424Z</time>
      </trkpt>
      <trkpt lat="45.74278" lon="3.42964">
        <ele>384.24404907227</ele>
        <time>2020-05-23T20:09:12.345Z</time>
      </trkpt>
      <trkpt lat="45.7424" lon="3.42965">
        <ele>385.3069152832</ele>
        <time>2020-05-23T20:09:15.272Z</time>
      </trkpt>
      <trkpt lat="45.74207" lon="3.42962">
        <ele>386.3298034668</ele>
        <time>2020-05-23T20:09:18.205Z</time>
      </trkpt>
      <trkpt lat="45.7412" lon="3.42949">
        <ele>389.05032348633</ele>
        <time>2020-05-23T20:09:21.152Z</time>
      </trkpt>
      <trkpt lat="45.74033" lon="3.42936">
        <ele>393.83764648438</ele>
        <time>2020-05-23T20:09:24.113Z</time>
      </trkpt>
      <trkpt lat="45.73959" lon="3.42919">
        <ele>395.31573486328</ele>
        <time>2020-05-23T20:09:27.086Z</time>
      </trkpt>
      <trkpt lat="45.73891" lon="3.42897">
        <ele>395.84362792969</ele>
        <time>2020-05-23T20:09:30.070Z</time>
      </trkpt>
      <trkpt lat="45.7384" lon="3.42874">
        <ele>397.54391479492</ele>
        <time>2020-05-23T20:09:33.062Z</time>
      </trkpt>
      <trkpt lat="45.73788" lon="3.42851">
        <ele>399.13952636719</ele>
        <time>2020-05-23T20:09:36.063Z</time>
      </trkpt>
      <trkpt lat="45.73719" lon="3.42825">
        <ele>399.42864990234</ele>
        <time>2020-05-23T20:09:39.075Z</time>
      </trkpt>
      <trkpt lat="45.73635" lon="3.42803">
        <ele>399.00201416016</ele>
        <time>2020-05-23T20:09:42.101Z</time>
      </trkpt>
      <trkpt lat="45.7355" lon="3.42781">
        <ele>401.19036865234</ele>
        <time>2020-05-23T20:09:45.141Z</time>
      </trkpt>
      <trkpt lat="45.73518" lon="3.42761">
        <ele>402.45837402344</ele>
        <time>2020-05-23T20:09:48.187Z</time>
      </trkpt>
      <trkpt lat="45.73476" lon="3.42727">
        <ele>402.40435791016</ele>
        <time>2020-05-23T20:09:51.240Z</time>
      </trkpt>
      <trkpt lat="45.73434" lon="3.42692">
        <ele>405.86529541016</ele>
        <time>2020-05-23T20:09:54.301Z</time>
      </trkpt>
      <trkpt lat="45.73368" lon="3.42623">
        <ele>413.86541748047</ele>
        <time>2020-05-23T20:09:57.375Z</time>
      </trkpt>
      <trkpt lat="45.7333" lon="3.42569">
        <ele>416.07858276367</ele>
        <time>2020-05-23T20:10:00.458Z</time>
      </trkpt>
      <trkpt lat="45.73292" lon="3.42515">
        <ele>417.71032714844</ele>
        <time>2020-05-23T20:10:03.549Z</time>
      </trkpt>
      <trkpt lat="45.73256" lon="3.42485">
        <ele>419.5100402832</ele>
        <time>2020-05-23T20:10:06.647Z</time>
      </trkpt>
      <trkpt lat="45.73238" lon="3.42475">
        <ele>420.46987915039</ele>
        <time>2020-05-23T20:10:09.748Z</time>
      </trkpt>
      <trkpt lat="45.73198" lon="3.42485">
        <ele>421.90588378906</ele>
        <time>2020-05-23T20:10:12.856Z</time>
      </trkpt>
      <trkpt lat="45.73156" lon="3.42468">
        <ele>423.23504638672</ele>
        <time>2020-05-23T20:10:15.971Z</time>
      </trkpt>
      <trkpt lat="45.73132" lon="3.42462">
        <ele>424.40533447266</ele>
        <time>2020-05-23T20:10:19.089Z</time>
      </trkpt>
      <trkpt lat="45.73114" lon="3.42467">
        <ele>425.62911987305</ele>
        <time>2020-05-23T20:10:22.210Z</time>
      </trkpt>
      <trkpt lat="45.73097" lon="3.42476">
        <ele>427.1123046875</ele>
        <time>2020-05-23T20:10:25.334Z</time>
      </trkpt>
      <trkpt lat="45.73078" lon="3.42481">
        <ele>428.95999145508</ele>
        <time>2020-05-23T20:10:28.461Z</time>
      </trkpt>
      <trkpt lat="45.73049" lon="3.42478">
        <ele>431.05264282227</ele>
        <time>2020-05-23T20:10:31.593Z</time>
      </trkpt>
      <trkpt lat="45.73029" lon="3.42472">
        <ele>433.11630249023</ele>
        <time>2020-05-23T20:10:34.728Z</time>
      </trkpt>
      <trkpt lat="45.73022" lon="3.42467">
        <ele>433.56024169922</ele>
        <time>2020-05-23T20:10:37.865Z</time>
      </trkpt>
      <trkpt lat="45.73009" lon="3.42452">
        <ele>433.83618164062</ele>
        <time>2020-05-23T20:10:41.004Z</time>
      </trkpt>
      <trkpt lat="45.73001" lon="3.42431">
        <ele>432.94079589844</ele>
        <time>2020-05-23T20:10:44.146Z</time>
      </trkpt>
      <trkpt lat="45.72998" lon="3.42388">
        <ele>431.78900146484</ele>
        <time>2020-05-23T20:10:47.293Z</time>
      </trkpt>
      <trkpt lat="45.72992" lon="3.42368">
        <ele>431.86096191406</ele>
        <time>2020-05-23T20:10:50.442Z</time>
      </trkpt>
      <trkpt lat="45.72984" lon="3.42357">
        <ele>432.52087402344</ele>
        <time>2020-05-23T20:10:53.593Z</time>
      </trkpt>
      <trkpt lat="45.72977" lon="3.42353">
        <ele>433.30075073242</ele>
        <time>2020-05-23T20:10:56.745Z</time>
      </trkpt>
      <trkpt lat="45.72958" lon="3.42356">
        <ele>435.31466674805</ele>
        <time>2020-05-23T20:10:59.900Z</time>
      </trkpt>
      <trkpt lat="45.72907" lon="3.42425">
        <ele>442.08154296875</ele>
        <time>2020-05-23T20:11:03.066Z</time>
      </trkpt>
      <trkpt lat="45.72876" lon="3.42491">
        <ele>445.40222167969</ele>
        <time>2020-05-23T20:11:06.241Z</time>
      </trkpt>
      <trkpt lat="45.72844" lon="3.42556">
        <ele>449.59594726562</ele>
        <time>2020-05-23T20:11:09.425Z</time>
      </trkpt>
      <trkpt lat="45.72815" lon="3.42588">
        <ele>452.06753540039</ele>
        <time>2020-05-23T20:11:12.615Z</time>
      </trkpt>
      <trkpt lat="45.72753" lon="3.42605">
        <ele>455.14096069336</ele>
        <time>2020-05-23T20:11:15.815Z</time>
      </trkpt>
      <trkpt lat="45.72733" lon="3.42606">
        <ele>456.05279541016</ele>
        <time>2020-05-23T20:11:19.018Z</time>
      </trkpt>
      <trkpt lat="45.72712" lon="3.42604">
        <ele>457.21939086914</ele>
        <time>2020-05-23T20:11:22.225Z</time>
      </trkpt>
      <trkpt lat="45.72689" lon="3.426">
        <ele>458.46716308594</ele>
        <time>2020-05-23T20:11:25.436Z</time>
      </trkpt>
      <trkpt lat="45.72672" lon="3.42595">
        <ele>459.41778564453</ele>
        <time>2020-05-23T20:11:28.649Z</time>
      </trkpt>
      <trkpt lat="45.72647" lon="3.42599">
        <ele>460.5188293457</ele>
        <time>2020-05-23T20:11:31.866Z</time>
      </trkpt>
      <trkpt lat="45.72637" lon="3.42605">
        <ele>460.5549621582</ele>
        <time>2020-05-23T20:11:35.085Z</time>
      </trkpt>
      <trkpt lat="45.72614" lon="3.42644">
        <ele>458.29934692383</ele>
        <time>2020-05-23T20:11:38.310Z</time>
      </trkpt>
      <trkpt lat="45.7259" lon="3.42661">
        <ele>457.65145874023</ele>
        <time>2020-05-23T20:11:41.539Z</time>
      </trkpt>
      <trkpt lat="45.72565" lon="3.42661">
        <ele>458.25134277344</ele>
        <time>2020-05-23T20:11:44.772Z</time>
      </trkpt>
      <trkpt lat="45.725" lon="3.4267">
        <ele>458.66305541992</ele>
        <time>2020-05-23T20:11:48.016Z</time>
      </trkpt>
      <trkpt lat="45.72453" lon="3.42681">
        <ele>457.47891235352</ele>
        <time>2020-05-23T20:11:51.267Z</time>
      </trkpt>
      <trkpt lat="45.72399" lon="3.42701">
        <ele>453.41400146484</ele>
        <time>2020-05-23T20:11:54.527Z</time>
      </trkpt>
      <trkpt lat="45.72345" lon="3.42721">
        <ele>450.21871948242</ele>
        <time>2020-05-23T20:11:57.796Z</time>
      </trkpt>
      <trkpt lat="45.72309" lon="3.4278">
        <ele>452.40185546875</ele>
        <time>2020-05-23T20:12:01.074Z</time>
      </trkpt>
      <trkpt lat="45.72273" lon="3.42838">
        <ele>456.95986938477</ele>
        <time>2020-05-23T20:12:04.360Z</time>
      </trkpt>
      <trkpt lat="45.72232" lon="3.429">
        <ele>460.56442260742</ele>
        <time>2020-05-23T20:12:07.656Z</time>
      </trkpt>
      <trkpt lat="45.72161" lon="3.42921">
        <ele>463.45712280273</ele>
        <time>2020-05-23T20:12:10.964Z</time>
      </trkpt>
      <trkpt lat="45.72089" lon="3.42941">
        <ele>466.21322631836</ele>
        <time>2020-05-23T20:12:14.283Z</time>
      </trkpt>
      <trkpt lat="45.72041" lon="3.42962">
        <ele>468.86441040039</ele>
        <time>2020-05-23T20:12:17.610Z</time>
      </trkpt>
      <trkpt lat="45.71992" lon="3.42983">
        <ele>472.28201293945</ele>
        <time>2020-05-23T20:12:20.946Z</time>
      </trkpt>
      <trkpt lat="45.71952" lon="3.42992">
        <ele>474.39547729492</ele>
        <time>2020-05-23T20:12:24.288Z</time>
      </trkpt>
      <trkpt lat="45.71902" lon="3.42985">
        <ele>474.15063476562</ele>
        <time>2020-05-23T20:12:27.638Z</time>
      </trkpt>
      <trkpt lat="45.71885" lon="3.4299">
        <ele>475.33709716797</ele>
        <time>2020-05-23T20:12:30.991Z</time>
      </trkpt>
      <trkpt lat="45.71862" lon="3.4304">
        <ele>480.24328613281</ele>
        <time>2020-05-23T20:12:34.351Z</time>
      </trkpt>
      <trkpt lat="45.71846" lon="3.43061">
        <ele>481.05123901367</ele>
        <time>2020-05-23T20:12:37.714Z</time>
      </trkpt>
      <trkpt lat="45.71807" lon="3.43104">
        <ele>483.61380004883</ele>
        <time>2020-05-23T20:12:41.085Z</time>
      </trkpt>
      <trkpt lat="45.71799" lon="3.43116">
        <ele>484.08499145508</ele>
        <time>2020-05-23T20:12:44.458Z</time>
      </trkpt>
      <trkpt lat="45.71795" lon="3.43128">
        <ele>484.75689697266</ele>
        <time>2020-05-23T20:12:47.832Z</time>
      </trkpt>
      <trkpt lat="45.71794" lon="3.43153">
        <ele>487.03649902344</ele>
        <time>2020-05-23T20:12:51.209Z</time>
      </trkpt>
      <trkpt lat="45.71802" lon="3.43181">
        <ele>490.66677856445</ele>
        <time>2020-05-23T20:12:54.590Z</time>
      </trkpt>
      <trkpt lat="45.71822" lon="3.43215">
        <ele>492.49285888672</ele>
        <time>2020-05-23T20:12:57.975Z</time>
      </trkpt>
      <trkpt lat="45.71831" lon="3.43242">
        <ele>493.35668945312</ele>
        <time>2020-05-23T20:13:01.364Z</time>
      </trkpt>
      <trkpt lat="45.7183" lon="3.43292">
        <ele>492.95062255859</ele>
        <time>2020-05-23T20:13:04.758Z</time>
      </trkpt>
      <trkpt lat="45.71823" lon="3.43322">
        <ele>493.58651733398</ele>
        <time>2020-05-23T20:13:08.156Z</time>
      </trkpt>
      <trkpt lat="45.71814" lon="3.43344">
        <ele>494.00643920898</ele>
        <time>2020-05-23T20:13:11.557Z</time>
      </trkpt>
      <trkpt lat="45.71808" lon="3.43351">
        <ele>493.95080566406</ele>
        <time>2020-05-23T20:13:14.959Z</time>
      </trkpt>
      <trkpt lat="45.71772" lon="3.43369">
        <ele>494.10241699219</ele>
        <time>2020-05-23T20:13:18.367Z</time>
      </trkpt>
      <trkpt lat="45.71704" lon="3.43393">
        <ele>496.70434570312</ele>
        <time>2020-05-23T20:13:21.786Z</time>
      </trkpt>
      <trkpt lat="45.71635" lon="3.43417">
        <ele>499.63217163086</ele>
        <time>2020-05-23T20:13:25.217Z</time>
      </trkpt>
      <trkpt lat="45.71612" lon="3.43423">
        <ele>501.50073242188</ele>
        <time>2020-05-23T20:13:28.652Z</time>
      </trkpt>
      <trkpt lat="45.71559" lon="3.43411">
        <ele>503.38442993164</ele>
        <time>2020-05-23T20:13:32.095Z</time>
      </trkpt>
      <trkpt lat="45.7153" lon="3.43415">
        <ele>507.36431884766</ele>
        <time>2020-05-23T20:13:35.543Z</time>
      </trkpt>
      <trkpt lat="45.71518" lon="3.43411">
        <ele>508.22817993164</ele>
        <time>2020-05-23T20:13:38.993Z</time>
      </trkpt>
      <trkpt lat="45.71509" lon="3.43402">
        <ele>508.66009521484</ele>
        <time>2020-05-23T20:13:42.444Z</time>
      </trkpt>
      <trkpt lat="45.71486" lon="3.43352">
        <ele>507.8844909668</ele>
        <time>2020-05-23T20:13:45.902Z</time>
      </trkpt>
      <trkpt lat="45.71471" lon="3.43335">
        <ele>508.88848876953</ele>
        <time>2020-05-23T20:13:49.363Z</time>
      </trkpt>
      <trkpt lat="45.71454" lon="3.43325">
        <ele>508.27993774414</ele>
        <time>2020-05-23T20:13:52.827Z</time>
      </trkpt>
      <trkpt lat="45.71436" lon="3.43326">
        <ele>509.03536987305</ele>
        <time>2020-05-23T20:13:56.294Z</time>
      </trkpt>
      <trkpt lat="45.71422" lon="3.4333">
        <ele>510.40313720703</ele>
        <time>2020-05-23T20:13:59.763Z</time>
      </trkpt>
      <trkpt lat="45.71405" lon="3.43339">
        <ele>512.61077880859</ele>
        <time>2020-05-23T20:14:03.235Z</time>
      </trkpt>
      <trkpt lat="45.71334" lon="3.4339">
        <ele>522.75653076172</ele>
        <time>2020-05-23T20:14:06.720Z</time>
      </trkpt>
      <trkpt lat="45.71288" lon="3.43397">
        <ele>526.55279541016</ele>
        <time>2020-05-23T20:14:10.212Z</time>
      </trkpt>
      <trkpt lat="45.71228" lon="3.43399">
        <ele>530.29614257812</ele>
        <time>2020-05-23T20:14:13.714Z</time>
      </trkpt>
      <trkpt lat="45.71168" lon="3.434">
        <ele>530.13171386719</ele>
        <time>2020-05-23T20:14:17.226Z</time>
      </trkpt>
      <trkpt lat="45.71095" lon="3.4337">
        <ele>531.55920410156</ele>
        <time>2020-05-23T20:14:20.750Z</time>
      </trkpt>
      <trkpt lat="45.71034" lon="3.43362">
        <ele>536.34826660156</ele>
        <time>2020-05-23T20:14:24.284Z</time>
      </trkpt>
      <trkpt lat="45.70986" lon="3.43328">
        <ele>539.48101806641</ele>
        <time>2020-05-23T20:14:27.826Z</time>
      </trkpt>
      <trkpt lat="45.70967" lon="3.43324">
        <ele>540.99743652344</ele>
        <time>2020-05-23T20:14:31.371Z</time>
      </trkpt>
      <trkpt lat="45.70901" lon="3.43338">
        <ele>544.93505859375</ele>
        <time>2020-05-23T20:14:34.927Z</time>
      </trkpt>
      <trkpt lat="45.70834" lon="3.43351">
        <ele>551.02276611328</ele>
        <time>2020-05-23T20:14:38.494Z</time>
      </trkpt>
      <trkpt lat="45.70813" lon="3.43341">
        <ele>552.99426269531</ele>
        <time>2020-05-23T20:14:42.064Z</time>
      </trkpt>
      <trkpt lat="45.70791" lon="3.43321">
        <ele>554.71588134766</ele>
        <time>2020-05-23T20:14:45.638Z</time>
      </trkpt>
      <trkpt lat="45.70765" lon="3.43309">
        <ele>556.75555419922</ele>
        <time>2020-05-23T20:14:49.217Z</time>
      </trkpt>
      <trkpt lat="45.70716" lon="3.43299">
        <ele>560.24963378906</ele>
        <time>2020-05-23T20:14:52.804Z</time>
      </trkpt>
      <trkpt lat="45.707" lon="3.43305">
        <ele>561.20947265625</ele>
        <time>2020-05-23T20:14:56.393Z</time>
      </trkpt>
      <trkpt lat="45.70693" lon="3.43311">
        <ele>561.62939453125</ele>
        <time>2020-05-23T20:14:59.984Z</time>
      </trkpt>
      <trkpt lat="45.70693" lon="3.43333">
        <ele>561.89978027344</ele>
        <time>2020-05-23T20:15:03.577Z</time>
      </trkpt>
      <trkpt lat="45.707" lon="3.43381">
        <ele>562.07849121094</ele>
        <time>2020-05-23T20:15:07.176Z</time>
      </trkpt>
      <trkpt lat="45.70702" lon="3.43411">
        <ele>562.27044677734</ele>
        <time>2020-05-23T20:15:10.778Z</time>
      </trkpt>
      <trkpt lat="45.70687" lon="3.43439">
        <ele>564.18298339844</ele>
        <time>2020-05-23T20:15:14.384Z</time>
      </trkpt>
      <trkpt lat="45.70657" lon="3.43458">
        <ele>566.86187744141</ele>
        <time>2020-05-23T20:15:17.995Z</time>
      </trkpt>
      <trkpt lat="45.70633" lon="3.43471">
        <ele>567.97100830078</ele>
        <time>2020-05-23T20:15:21.610Z</time>
      </trkpt>
      <trkpt lat="45.7061" lon="3.43478">
        <ele>569.92669677734</ele>
        <time>2020-05-23T20:15:25.229Z</time>
      </trkpt>
      <trkpt lat="45.70565" lon="3.43486">
        <ele>573.45135498047</ele>
        <time>2020-05-23T20:15:28.855Z</time>
      </trkpt>
      <trkpt lat="45.70521" lon="3.43481">
        <ele>576.21807861328</ele>
        <time>2020-05-23T20:15:32.488Z</time>
      </trkpt>
      <trkpt lat="45.70481" lon="3.4343">
        <ele>580.60046386719</ele>
        <time>2020-05-23T20:15:36.130Z</time>
      </trkpt>
      <trkpt lat="45.7044" lon="3.43378">
        <ele>584.03649902344</ele>
        <time>2020-05-23T20:15:39.781Z</time>
      </trkpt>
      <trkpt lat="45.70442" lon="3.43347">
        <ele>585.17120361328</ele>
        <time>2020-05-23T20:15:43.435Z</time>
      </trkpt>
      <trkpt lat="45.70442" lon="3.43319">
        <ele>587.41638183594</ele>
        <time>2020-05-23T20:15:47.092Z</time>
      </trkpt>
      <trkpt lat="45.70437" lon="3.43273">
        <ele>589.00012207031</ele>
        <time>2020-05-23T20:15:50.755Z</time>
      </trkpt>
      <trkpt lat="45.70441" lon="3.43199">
        <ele>594.30590820312</ele>
        <time>2020-05-23T20:15:54.426Z</time>
      </trkpt>
      <trkpt lat="45.70444" lon="3.43124">
        <ele>601.66937255859</ele>
        <time>2020-05-23T20:15:58.105Z</time>
      </trkpt>
      <trkpt lat="45.70443" lon="3.43112">
        <ele>603.09710693359</ele>
        <time>2020-05-23T20:16:01.786Z</time>
      </trkpt>
      <trkpt lat="45.70438" lon="3.43102">
        <ele>604.23693847656</ele>
        <time>2020-05-23T20:16:05.468Z</time>
      </trkpt>
      <trkpt lat="45.70431" lon="3.43096">
        <ele>604.73596191406</ele>
        <time>2020-05-23T20:16:09.151Z</time>
      </trkpt>
      <trkpt lat="45.7042" lon="3.43094">
        <ele>604.74792480469</ele>
        <time>2020-05-23T20:16:12.836Z</time>
      </trkpt>
      <trkpt lat="45.70397" lon="3.43096">
        <ele>604.32800292969</ele>
        <time>2020-05-23T20:16:16.525Z</time>
      </trkpt>
      <trkpt lat="45.70367" lon="3.43105">
        <ele>602.845703125</ele>
        <time>2020-05-23T20:16:20.219Z</time>
      </trkpt>
      <trkpt lat="45.70346" lon="3.43133">
        <ele>600.07421875</ele>
        <time>2020-05-23T20:16:23.917Z</time>
      </trkpt>
      <trkpt lat="45.70287" lon="3.4322">
        <ele>601.39416503906</ele>
        <time>2020-05-23T20:16:27.629Z</time>
      </trkpt>
      <trkpt lat="45.70272" lon="3.4323">
        <ele>601.75408935547</ele>
        <time>2020-05-23T20:16:31.344Z</time>
      </trkpt>
      <trkpt lat="45.70266" lon="3.4323">
        <ele>601.94311523438</ele>
        <time>2020-05-23T20:16:35.060Z</time>
      </trkpt>
      <trkpt lat="45.70189" lon="3.43287">
        <ele>607.35272216797</ele>
        <time>2020-05-23T20:16:38.789Z</time>
      </trkpt>
      <trkpt lat="45.70164" lon="3.43325">
        <ele>609.38256835938</ele>
        <time>2020-05-23T20:16:42.524Z</time>
      </trkpt>
      <trkpt lat="45.70156" lon="3.43339">
        <ele>610.15045166016</ele>
        <time>2020-05-23T20:16:46.261Z</time>
      </trkpt>
      <trkpt lat="45.70113" lon="3.43392">
        <ele>611.35485839844</ele>
        <time>2020-05-23T20:16:50.007Z</time>
      </trkpt>
      <trkpt lat="45.70091" lon="3.43433">
        <ele>614.05364990234</ele>
        <time>2020-05-23T20:16:53.759Z</time>
      </trkpt>
      <trkpt lat="45.70046" lon="3.43543">
        <ele>615.03881835938</ele>
        <time>2020-05-23T20:16:57.526Z</time>
      </trkpt>
      <trkpt lat="45.70008" lon="3.43589">
        <ele>613.37890625</ele>
        <time>2020-05-23T20:17:01.300Z</time>
      </trkpt>
      <trkpt lat="45.6997" lon="3.43635">
        <ele>610.40673828125</ele>
        <time>2020-05-23T20:17:05.082Z</time>
      </trkpt>
      <trkpt lat="45.6997" lon="3.43635">
        <ele>610.40411376953</ele>
        <time>2020-05-23T20:17:08.864Z</time>
      </trkpt>
      <trkpt lat="45.6997" lon="3.43635">
        <ele>610.40380859375</ele>
        <time>2020-05-23T20:17:12.646Z</time>
      </trkpt>
      <trkpt lat="45.69938" lon="3.43693">
        <ele>608.53747558594</ele>
        <time>2020-05-23T20:17:16.437Z</time>
      </trkpt>
      <trkpt lat="45.69921" lon="3.43756">
        <ele>609.35333251953</ele>
        <time>2020-05-23T20:17:20.235Z</time>
      </trkpt>
      <trkpt lat="45.69904" lon="3.43818">
        <ele>610.58984375</ele>
        <time>2020-05-23T20:17:24.041Z</time>
      </trkpt>
      <trkpt lat="45.69885" lon="3.43873">
        <ele>612.32873535156</ele>
        <time>2020-05-23T20:17:27.854Z</time>
      </trkpt>
      <trkpt lat="45.69878" lon="3.43869">
        <ele>612.44873046875</ele>
        <time>2020-05-23T20:17:31.668Z</time>
      </trkpt>
      <trkpt lat="45.69865" lon="3.43868">
        <ele>612.74871826172</ele>
        <time>2020-05-23T20:17:35.484Z</time>
      </trkpt>
      <trkpt lat="45.69845" lon="3.43876">
        <ele>613.32458496094</ele>
        <time>2020-05-23T20:17:39.303Z</time>
      </trkpt>
      <trkpt lat="45.69819" lon="3.43892">
        <ele>613.81213378906</ele>
        <time>2020-05-23T20:17:43.127Z</time>
      </trkpt>
      <trkpt lat="45.69816" lon="3.43892">
        <ele>613.84814453125</ele>
        <time>2020-05-23T20:17:46.951Z</time>
      </trkpt>
      <trkpt lat="45.69799" lon="3.43779">
        <ele>614.63732910156</ele>
        <time>2020-05-23T20:17:50.788Z</time>
      </trkpt>
      <trkpt lat="45.69782" lon="3.43665">
        <ele>613.32922363281</ele>
        <time>2020-05-23T20:17:54.638Z</time>
      </trkpt>
      <trkpt lat="45.69765" lon="3.43552">
        <ele>612.53997802734</ele>
        <time>2020-05-23T20:17:58.501Z</time>
      </trkpt>
      <trkpt lat="45.69748" lon="3.43438">
        <ele>612.20581054688</ele>
        <time>2020-05-23T20:18:02.377Z</time>
      </trkpt>
      <trkpt lat="45.69738" lon="3.43388">
        <ele>611.33331298828</ele>
        <time>2020-05-23T20:18:06.259Z</time>
      </trkpt>
      <trkpt lat="45.69725" lon="3.43343">
        <ele>610.22955322266</ele>
        <time>2020-05-23T20:18:10.147Z</time>
      </trkpt>
      <trkpt lat="45.69707" lon="3.433">
        <ele>608.63385009766</ele>
        <time>2020-05-23T20:18:14.040Z</time>
      </trkpt>
      <trkpt lat="45.69667" lon="3.43228">
        <ele>605.37036132812</ele>
        <time>2020-05-23T20:18:17.944Z</time>
      </trkpt>
      <trkpt lat="45.69627" lon="3.43156">
        <ele>601.19677734375</ele>
        <time>2020-05-23T20:18:21.858Z</time>
      </trkpt>
      <trkpt lat="45.69607" lon="3.43113">
        <ele>598.13732910156</ele>
        <time>2020-05-23T20:18:25.778Z</time>
      </trkpt>
      <trkpt lat="45.69595" lon="3.43104">
        <ele>597.30944824219</ele>
        <time>2020-05-23T20:18:29.700Z</time>
      </trkpt>
      <trkpt lat="45.69575" lon="3.43113">
        <ele>597.36944580078</ele>
        <time>2020-05-23T20:18:33.625Z</time>
      </trkpt>
      <trkpt lat="45.69555" lon="3.43133">
        <ele>596.92138671875</ele>
        <time>2020-05-23T20:18:37.554Z</time>
      </trkpt>
      <trkpt lat="45.69538" lon="3.43148">
        <ele>597.36291503906</ele>
        <time>2020-05-23T20:18:41.486Z</time>
      </trkpt>
      <trkpt lat="45.69483" lon="3.43148">
        <ele>597.58966064453</ele>
        <time>2020-05-23T20:18:45.427Z</time>
      </trkpt>
      <trkpt lat="45.69445" lon="3.43153">
        <ele>597.05090332031</ele>
        <time>2020-05-23T20:18:49.374Z</time>
      </trkpt>
      <trkpt lat="45.69368" lon="3.43147">
        <ele>595.13122558594</ele>
        <time>2020-05-23T20:18:53.334Z</time>
      </trkpt>
      <trkpt lat="45.69368" lon="3.43146">
        <ele>595.11920166016</ele>
        <time>2020-05-23T20:18:57.294Z</time>
      </trkpt>
      <trkpt lat="45.69332" lon="3.43144">
        <ele>593.83764648438</ele>
        <time>2020-05-23T20:19:01.259Z</time>
      </trkpt>
      <trkpt lat="45.69271" lon="3.43147">
        <ele>590.87414550781</ele>
        <time>2020-05-23T20:19:05.234Z</time>
      </trkpt>
      <trkpt lat="45.6921" lon="3.4315">
        <ele>588.76214599609</ele>
        <time>2020-05-23T20:19:09.219Z</time>
      </trkpt>
      <trkpt lat="45.69149" lon="3.43153">
        <ele>588.7998046875</ele>
        <time>2020-05-23T20:19:13.214Z</time>
      </trkpt>
      <trkpt lat="45.6912" lon="3.4315">
        <ele>589.43725585938</ele>
        <time>2020-05-23T20:19:17.213Z</time>
      </trkpt>
      <trkpt lat="45.6908" lon="3.43136">
        <ele>590.373046875</ele>
        <time>2020-05-23T20:19:21.219Z</time>
      </trkpt>
      <trkpt lat="45.69038" lon="3.43106">
        <ele>590.98754882812</ele>
        <time>2020-05-23T20:19:25.232Z</time>
      </trkpt>
      <trkpt lat="45.68997" lon="3.43054">
        <ele>593.23608398438</ele>
        <time>2020-05-23T20:19:29.254Z</time>
      </trkpt>
      <trkpt lat="45.68948" lon="3.43003">
        <ele>594.19110107422</ele>
        <time>2020-05-23T20:19:33.286Z</time>
      </trkpt>
      <trkpt lat="45.689" lon="3.42953">
        <ele>591.80755615234</ele>
        <time>2020-05-23T20:19:37.328Z</time>
      </trkpt>
      <trkpt lat="45.68851" lon="3.42902">
        <ele>588.40283203125</ele>
        <time>2020-05-23T20:19:41.379Z</time>
      </trkpt>
      <trkpt lat="45.68826" lon="3.42896">
        <ele>587.67095947266</ele>
        <time>2020-05-23T20:19:45.434Z</time>
      </trkpt>
      <trkpt lat="45.68737" lon="3.42898">
        <ele>586.36291503906</ele>
        <time>2020-05-23T20:19:49.504Z</time>
      </trkpt>
      <trkpt lat="45.68685" lon="3.42905">
        <ele>585.67687988281</ele>
        <time>2020-05-23T20:19:53.582Z</time>
      </trkpt>
      <trkpt lat="45.68633" lon="3.42912">
        <ele>583.51629638672</ele>
        <time>2020-05-23T20:19:57.668Z</time>
      </trkpt>
      <trkpt lat="45.68579" lon="3.42908">
        <ele>582.62066650391</ele>
        <time>2020-05-23T20:20:01.763Z</time>
      </trkpt>
      <trkpt lat="45.68506" lon="3.42891">
        <ele>580.93469238281</ele>
        <time>2020-05-23T20:20:05.870Z</time>
      </trkpt>
      <trkpt lat="45.68432" lon="3.42874">
        <ele>581.20892333984</ele>
        <time>2020-05-23T20:20:09.989Z</time>
      </trkpt>
      <trkpt lat="45.6838" lon="3.42868">
        <ele>582.53771972656</ele>
        <time>2020-05-23T20:20:14.116Z</time>
      </trkpt>
      <trkpt lat="45.68343" lon="3.42873">
        <ele>583.10162353516</ele>
        <time>2020-05-23T20:20:18.249Z</time>
      </trkpt>
      <trkpt lat="45.68299" lon="3.42885">
        <ele>583.05511474609</ele>
        <time>2020-05-23T20:20:22.389Z</time>
      </trkpt>
      <trkpt lat="45.68254" lon="3.42897">
        <ele>583.42181396484</ele>
        <time>2020-05-23T20:20:26.537Z</time>
      </trkpt>
      <trkpt lat="45.6824" lon="3.42894">
        <ele>583.45782470703</ele>
        <time>2020-05-23T20:20:30.687Z</time>
      </trkpt>
      <trkpt lat="45.68227" lon="3.42885">
        <ele>583.56579589844</ele>
        <time>2020-05-23T20:20:34.839Z</time>
      </trkpt>
      <trkpt lat="45.68214" lon="3.42872">
        <ele>583.79071044922</ele>
        <time>2020-05-23T20:20:38.994Z</time>
      </trkpt>
      <trkpt lat="45.68173" lon="3.42813">
        <ele>585.42016601562</ele>
        <time>2020-05-23T20:20:43.158Z</time>
      </trkpt>
      <trkpt lat="45.68143" lon="3.42788">
        <ele>586.38000488281</ele>
        <time>2020-05-23T20:20:47.328Z</time>
      </trkpt>
      <trkpt lat="45.68101" lon="3.42762">
        <ele>589.68200683594</ele>
        <time>2020-05-23T20:20:51.505Z</time>
      </trkpt>
      <trkpt lat="45.68058" lon="3.42735">
        <ele>591.02581787109</ele>
        <time>2020-05-23T20:20:55.689Z</time>
      </trkpt>
      <trkpt lat="45.68006" lon="3.42673">
        <ele>590.87817382812</ele>
        <time>2020-05-23T20:20:59.884Z</time>
      </trkpt>
      <trkpt lat="45.67953" lon="3.4261">
        <ele>594.13677978516</ele>
        <time>2020-05-23T20:21:04.090Z</time>
      </trkpt>
      <trkpt lat="45.67908" lon="3.42605">
        <ele>596.77630615234</ele>
        <time>2020-05-23T20:21:08.303Z</time>
      </trkpt>
      <trkpt lat="45.67858" lon="3.42595">
        <ele>598.51153564453</ele>
        <time>2020-05-23T20:21:12.525Z</time>
      </trkpt>
      <trkpt lat="45.67807" lon="3.42585">
        <ele>599.24340820312</ele>
        <time>2020-05-23T20:21:16.755Z</time>
      </trkpt>
      <trkpt lat="45.67792" lon="3.42574">
        <ele>599.4716796875</ele>
        <time>2020-05-23T20:21:20.987Z</time>
      </trkpt>
      <trkpt lat="45.67776" lon="3.42556">
        <ele>599.56768798828</ele>
        <time>2020-05-23T20:21:25.223Z</time>
      </trkpt>
      <trkpt lat="45.67762" lon="3.42536">
        <ele>599.44769287109</ele>
        <time>2020-05-23T20:21:29.462Z</time>
      </trkpt>
      <trkpt lat="45.67747" lon="3.4252">
        <ele>599.57971191406</ele>
        <time>2020-05-23T20:21:33.704Z</time>
      </trkpt>
      <trkpt lat="45.67731" lon="3.42508">
        <ele>600.23077392578</ele>
        <time>2020-05-23T20:21:37.949Z</time>
      </trkpt>
      <trkpt lat="45.67686" lon="3.42486">
        <ele>603.32147216797</ele>
        <time>2020-05-23T20:21:42.201Z</time>
      </trkpt>
      <trkpt lat="45.67641" lon="3.42464">
        <ele>606.00903320312</ele>
        <time>2020-05-23T20:21:46.461Z</time>
      </trkpt>
      <trkpt lat="45.67592" lon="3.42401">
        <ele>607.15881347656</ele>
        <time>2020-05-23T20:21:50.732Z</time>
      </trkpt>
      <trkpt lat="45.67544" lon="3.42339">
        <ele>607.46459960938</ele>
        <time>2020-05-23T20:21:55.013Z</time>
      </trkpt>
      <trkpt lat="45.67495" lon="3.42276">
        <ele>610.13610839844</ele>
        <time>2020-05-23T20:21:59.305Z</time>
      </trkpt>
      <trkpt lat="45.67423" lon="3.42208">
        <ele>615.18560791016</ele>
        <time>2020-05-23T20:22:03.610Z</time>
      </trkpt>
      <trkpt lat="45.67351" lon="3.42139">
        <ele>618.51629638672</ele>
        <time>2020-05-23T20:22:07.929Z</time>
      </trkpt>
      <trkpt lat="45.67321" lon="3.4212">
        <ele>618.78314208984</ele>
        <time>2020-05-23T20:22:12.253Z</time>
      </trkpt>
      <trkpt lat="45.67242" lon="3.42102">
        <ele>620.46197509766</ele>
        <time>2020-05-23T20:22:16.590Z</time>
      </trkpt>
      <trkpt lat="45.67162" lon="3.42081">
        <ele>621.74505615234</ele>
        <time>2020-05-23T20:22:20.940Z</time>
      </trkpt>
      <trkpt lat="45.67082" lon="3.4206">
        <ele>621.42102050781</ele>
        <time>2020-05-23T20:22:25.303Z</time>
      </trkpt>
      <trkpt lat="45.67017" lon="3.4204">
        <ele>620.591796875</ele>
        <time>2020-05-23T20:22:29.677Z</time>
      </trkpt>
      <trkpt lat="45.66952" lon="3.4202">
        <ele>619.52325439453</ele>
        <time>2020-05-23T20:22:34.062Z</time>
      </trkpt>
      <trkpt lat="45.66883" lon="3.41975">
        <ele>616.95550537109</ele>
        <time>2020-05-23T20:22:38.459Z</time>
      </trkpt>
      <trkpt lat="45.66814" lon="3.4193">
        <ele>614.10052490234</ele>
        <time>2020-05-23T20:22:42.868Z</time>
      </trkpt>
      <trkpt lat="45.66728" lon="3.41907">
        <ele>612.20092773438</ele>
        <time>2020-05-23T20:22:47.291Z</time>
      </trkpt>
      <trkpt lat="45.66641" lon="3.41884">
        <ele>609.96942138672</ele>
        <time>2020-05-23T20:22:51.728Z</time>
      </trkpt>
      <trkpt lat="45.66557" lon="3.41865">
        <ele>609.48114013672</ele>
        <time>2020-05-23T20:22:56.179Z</time>
      </trkpt>
      <trkpt lat="45.66472" lon="3.41846">
        <ele>609.93890380859</ele>
        <time>2020-05-23T20:23:00.643Z</time>
      </trkpt>
      <trkpt lat="45.66441" lon="3.41835">
        <ele>610.16369628906</ele>
        <time>2020-05-23T20:23:05.113Z</time>
      </trkpt>
      <trkpt lat="45.6638" lon="3.41798">
        <ele>610.68090820312</ele>
        <time>2020-05-23T20:23:09.593Z</time>
      </trkpt>
      <trkpt lat="45.6632" lon="3.4176">
        <ele>611.79711914062</ele>
        <time>2020-05-23T20:23:14.084Z</time>
      </trkpt>
      <trkpt lat="45.66259" lon="3.41723">
        <ele>614.13513183594</ele>
        <time>2020-05-23T20:23:18.585Z</time>
      </trkpt>
      <trkpt lat="45.66198" lon="3.41687">
        <ele>616.89984130859</ele>
        <time>2020-05-23T20:23:23.097Z</time>
      </trkpt>
      <trkpt lat="45.66137" lon="3.41652">
        <ele>617.51293945312</ele>
        <time>2020-05-23T20:23:27.619Z</time>
      </trkpt>
      <trkpt lat="45.66076" lon="3.41616">
        <ele>617.27624511719</ele>
        <time>2020-05-23T20:23:32.152Z</time>
      </trkpt>
      <trkpt lat="45.66023" lon="3.41587">
        <ele>618.13067626953</ele>
        <time>2020-05-23T20:23:36.694Z</time>
      </trkpt>
      <trkpt lat="45.65981" lon="3.41556">
        <ele>620.25433349609</ele>
        <time>2020-05-23T20:23:41.244Z</time>
      </trkpt>
      <trkpt lat="45.65942" lon="3.41515">
        <ele>622.35284423828</ele>
        <time>2020-05-23T20:23:45.801Z</time>
      </trkpt>
      <trkpt lat="45.65864" lon="3.41479">
        <ele>625.95141601562</ele>
        <time>2020-05-23T20:23:50.371Z</time>
      </trkpt>
      <trkpt lat="45.65831" lon="3.4146">
        <ele>626.98327636719</ele>
        <time>2020-05-23T20:23:54.947Z</time>
      </trkpt>
      <trkpt lat="45.65816" lon="3.41459">
        <ele>627.71038818359</ele>
        <time>2020-05-23T20:23:59.526Z</time>
      </trkpt>
      <trkpt lat="45.65803" lon="3.41464">
        <ele>628.21429443359</ele>
        <time>2020-05-23T20:24:04.107Z</time>
      </trkpt>
      <trkpt lat="45.65795" lon="3.41474">
        <ele>628.26623535156</ele>
        <time>2020-05-23T20:24:08.689Z</time>
      </trkpt>
      <trkpt lat="45.65789" lon="3.41486">
        <ele>628.19421386719</ele>
        <time>2020-05-23T20:24:13.273Z</time>
      </trkpt>
      <trkpt lat="45.65787" lon="3.41502">
        <ele>627.94036865234</ele>
        <time>2020-05-23T20:24:17.859Z</time>
      </trkpt>
      <trkpt lat="45.65789" lon="3.41517">
        <ele>627.82037353516</ele>
        <time>2020-05-23T20:24:22.447Z</time>
      </trkpt>
      <trkpt lat="45.65829" lon="3.41606">
        <ele>624.87786865234</ele>
        <time>2020-05-23T20:24:27.046Z</time>
      </trkpt>
      <trkpt lat="45.65834" lon="3.41628">
        <ele>624.72186279297</ele>
        <time>2020-05-23T20:24:31.648Z</time>
      </trkpt>
      <trkpt lat="45.65831" lon="3.41674">
        <ele>626.65533447266</ele>
        <time>2020-05-23T20:24:36.255Z</time>
      </trkpt>
      <trkpt lat="45.65833" lon="3.41697">
        <ele>628.71185302734</ele>
        <time>2020-05-23T20:24:40.865Z</time>
      </trkpt>
      <trkpt lat="45.65847" lon="3.41762">
        <ele>633.20678710938</ele>
        <time>2020-05-23T20:24:45.482Z</time>
      </trkpt>
      <trkpt lat="45.65869" lon="3.41836">
        <ele>635.95336914062</ele>
        <time>2020-05-23T20:24:50.109Z</time>
      </trkpt>
      <trkpt lat="45.6587" lon="3.41854">
        <ele>635.74182128906</ele>
        <time>2020-05-23T20:24:54.738Z</time>
      </trkpt>
      <trkpt lat="45.65867" lon="3.41872">
        <ele>633.65417480469</ele>
        <time>2020-05-23T20:24:59.369Z</time>
      </trkpt>
      <trkpt lat="45.65836" lon="3.41966">
        <ele>624.78747558594</ele>
        <time>2020-05-23T20:25:04.011Z</time>
      </trkpt>
      <trkpt lat="45.65805" lon="3.42059">
        <ele>623.78491210938</ele>
        <time>2020-05-23T20:25:08.665Z</time>
      </trkpt>
      <trkpt lat="45.65777" lon="3.4212">
        <ele>624.48791503906</ele>
        <time>2020-05-23T20:25:13.327Z</time>
      </trkpt>
      <trkpt lat="45.65762" lon="3.42157">
        <ele>625.08868408203</ele>
        <time>2020-05-23T20:25:17.994Z</time>
      </trkpt>
      <trkpt lat="45.65748" lon="3.42204">
        <ele>624.91955566406</ele>
        <time>2020-05-23T20:25:22.667Z</time>
      </trkpt>
      <trkpt lat="45.65732" lon="3.42291">
        <ele>624.76348876953</ele>
        <time>2020-05-23T20:25:27.350Z</time>
      </trkpt>
      <trkpt lat="45.65699" lon="3.42391">
        <ele>624.51220703125</ele>
        <time>2020-05-23T20:25:32.045Z</time>
      </trkpt>
      <trkpt lat="45.65679" lon="3.42474">
        <ele>622.07769775391</ele>
        <time>2020-05-23T20:25:36.750Z</time>
      </trkpt>
      <trkpt lat="45.6567" lon="3.42495">
        <ele>621.28582763672</ele>
        <time>2020-05-23T20:25:41.458Z</time>
      </trkpt>
      <trkpt lat="45.65625" lon="3.42555">
        <ele>619.39874267578</ele>
        <time>2020-05-23T20:25:46.176Z</time>
      </trkpt>
      <trkpt lat="45.65579" lon="3.42615">
        <ele>618.55541992188</ele>
        <time>2020-05-23T20:25:50.903Z</time>
      </trkpt>
      <trkpt lat="45.65522" lon="3.42664">
        <ele>617.55780029297</ele>
        <time>2020-05-23T20:25:55.641Z</time>
      </trkpt>
      <trkpt lat="45.65465" lon="3.42713">
        <ele>616.07952880859</ele>
        <time>2020-05-23T20:26:00.390Z</time>
      </trkpt>
      <trkpt lat="45.65448" lon="3.42816">
        <ele>623.04138183594</ele>
        <time>2020-05-23T20:26:05.151Z</time>
      </trkpt>
      <trkpt lat="45.65421" lon="3.42885">
        <ele>621.61254882812</ele>
        <time>2020-05-23T20:26:09.921Z</time>
      </trkpt>
      <trkpt lat="45.65426" lon="3.42963">
        <ele>623.099609375</ele>
        <time>2020-05-23T20:26:14.699Z</time>
      </trkpt>
      <trkpt lat="45.65453" lon="3.43077">
        <ele>622.15637207031</ele>
        <time>2020-05-23T20:26:19.491Z</time>
      </trkpt>
      <trkpt lat="45.65479" lon="3.43191">
        <ele>621.03283691406</ele>
        <time>2020-05-23T20:26:24.296Z</time>
      </trkpt>
      <trkpt lat="45.65505" lon="3.43263">
        <ele>621.54095458984</ele>
        <time>2020-05-23T20:26:29.110Z</time>
      </trkpt>
      <trkpt lat="45.65549" lon="3.43338">
        <ele>619.30499267578</ele>
        <time>2020-05-23T20:26:33.935Z</time>
      </trkpt>
      <trkpt lat="45.65555" lon="3.43361">
        <ele>618.62762451172</ele>
        <time>2020-05-23T20:26:38.763Z</time>
      </trkpt>
      <trkpt lat="45.65552" lon="3.43388">
        <ele>618.515625</ele>
        <time>2020-05-23T20:26:43.594Z</time>
      </trkpt>
      <trkpt lat="45.65523" lon="3.43446">
        <ele>619.20635986328</ele>
        <time>2020-05-23T20:26:48.433Z</time>
      </trkpt>
      <trkpt lat="45.65483" lon="3.43459">
        <ele>620.94714355469</ele>
        <time>2020-05-23T20:26:53.279Z</time>
      </trkpt>
      <trkpt lat="45.65423" lon="3.43433">
        <ele>622.82220458984</ele>
        <time>2020-05-23T20:26:58.135Z</time>
      </trkpt>
      <trkpt lat="45.65364" lon="3.43408">
        <ele>622.23583984375</ele>
        <time>2020-05-23T20:27:03.001Z</time>
      </trkpt>
      <trkpt lat="45.65304" lon="3.43382">
        <ele>622.23706054688</ele>
        <time>2020-05-23T20:27:07.877Z</time>
      </trkpt>
      <trkpt lat="45.65222" lon="3.43382">
        <ele>628.28253173828</ele>
        <time>2020-05-23T20:27:12.766Z</time>
      </trkpt>
      <trkpt lat="45.65164" lon="3.43376">
        <ele>631.19213867188</ele>
        <time>2020-05-23T20:27:17.664Z</time>
      </trkpt>
      <trkpt lat="45.65105" lon="3.4337">
        <ele>632.29962158203</ele>
        <time>2020-05-23T20:27:22.572Z</time>
      </trkpt>
      <trkpt lat="45.65053" lon="3.43389">
        <ele>637.65075683594</ele>
        <time>2020-05-23T20:27:27.488Z</time>
      </trkpt>
      <trkpt lat="45.65001" lon="3.43408">
        <ele>637.94342041016</ele>
        <time>2020-05-23T20:27:32.413Z</time>
      </trkpt>
      <trkpt lat="45.64979" lon="3.43433">
        <ele>639.12164306641</ele>
        <time>2020-05-23T20:27:37.342Z</time>
      </trkpt>
      <trkpt lat="45.64988" lon="3.4353">
        <ele>645.30786132812</ele>
        <time>2020-05-23T20:27:42.282Z</time>
      </trkpt>
      <trkpt lat="45.64965" lon="3.43578">
        <ele>646.34063720703</ele>
        <time>2020-05-23T20:27:47.229Z</time>
      </trkpt>
      <trkpt lat="45.64923" lon="3.43617">
        <ele>643.78198242188</ele>
        <time>2020-05-23T20:27:52.184Z</time>
      </trkpt>
      <trkpt lat="45.64883" lon="3.43668">
        <ele>644.28021240234</ele>
        <time>2020-05-23T20:27:57.147Z</time>
      </trkpt>
      <trkpt lat="45.6481" lon="3.4368">
        <ele>646.73809814453</ele>
        <time>2020-05-23T20:28:02.122Z</time>
      </trkpt>
      <trkpt lat="45.6479" lon="3.43669">
        <ele>647.72253417969</ele>
        <time>2020-05-23T20:28:07.101Z</time>
      </trkpt>
      <trkpt lat="45.64772" lon="3.43652">
        <ele>648.83294677734</ele>
        <time>2020-05-23T20:28:12.083Z</time>
      </trkpt>
      <trkpt lat="45.64764" lon="3.43632">
        <ele>648.88635253906</ele>
        <time>2020-05-23T20:28:17.068Z</time>
      </trkpt>
      <trkpt lat="45.6474" lon="3.43625">
        <ele>650.81256103516</ele>
        <time>2020-05-23T20:28:22.057Z</time>
      </trkpt>
      <trkpt lat="45.64703" lon="3.43625">
        <ele>654.25177001953</ele>
        <time>2020-05-23T20:28:27.051Z</time>
      </trkpt>
      <trkpt lat="45.64669" lon="3.4361">
        <ele>658.15112304688</ele>
        <time>2020-05-23T20:28:32.051Z</time>
      </trkpt>
      <trkpt lat="45.64627" lon="3.43592">
        <ele>663.14074707031</ele>
        <time>2020-05-23T20:28:37.058Z</time>
      </trkpt>
      <trkpt lat="45.64587" lon="3.43582">
        <ele>668.05993652344</ele>
        <time>2020-05-23T20:28:42.072Z</time>
      </trkpt>
      <trkpt lat="45.64579" lon="3.43573">
        <ele>669.12774658203</ele>
        <time>2020-05-23T20:28:47.087Z</time>
      </trkpt>
      <trkpt lat="45.64567" lon="3.4354">
        <ele>670.96343994141</ele>
        <time>2020-05-23T20:28:52.106Z</time>
      </trkpt>
      <trkpt lat="45.64562" lon="3.43538">
        <ele>671.58734130859</ele>
        <time>2020-05-23T20:28:57.126Z</time>
      </trkpt>
      <trkpt lat="45.64544" lon="3.43517">
        <ele>673.59259033203</ele>
        <time>2020-05-23T20:29:02.150Z</time>
      </trkpt>
      <trkpt lat="45.64543" lon="3.43519">
        <ele>673.62298583984</ele>
        <time>2020-05-23T20:29:07.174Z</time>
      </trkpt>
      <trkpt lat="45.64523" lon="3.43501">
        <ele>673.86785888672</ele>
        <time>2020-05-23T20:29:12.202Z</time>
      </trkpt>
      <trkpt lat="45.64523" lon="3.43501">
        <ele>673.86981201172</ele>
        <time>2020-05-23T20:29:17.230Z</time>
      </trkpt>
      <trkpt lat="45.64523" lon="3.43501">
        <ele>673.87249755859</ele>
        <time>2020-05-23T20:29:22.258Z</time>
      </trkpt>
      <trkpt lat="45.64474" lon="3.43499">
        <ele>677.23980712891</ele>
        <time>2020-05-23T20:29:27.294Z</time>
      </trkpt>
      <trkpt lat="45.64463" lon="3.43506">
        <ele>678.5</ele>
        <time>2020-05-23T20:29:32.332Z</time>
      </trkpt>
      <trkpt lat="45.64455" lon="3.43528">
        <ele>679.08917236328</ele>
        <time>2020-05-23T20:29:37.373Z</time>
      </trkpt>
      <trkpt lat="45.64433" lon="3.43509">
        <ele>679.85333251953</ele>
        <time>2020-05-23T20:29:42.418Z</time>
      </trkpt>
      <trkpt lat="45.64413" lon="3.43493">
        <ele>679.42858886719</ele>
        <time>2020-05-23T20:29:47.466Z</time>
      </trkpt>
      <trkpt lat="45.64374" lon="3.43455">
        <ele>677.75817871094</ele>
        <time>2020-05-23T20:29:52.522Z</time>
      </trkpt>
      <trkpt lat="45.64353" lon="3.43459">
        <ele>678.32458496094</ele>
        <time>2020-05-23T20:29:57.581Z</time>
      </trkpt>
      <trkpt lat="45.64333" lon="3.43478">
        <ele>679.76440429688</ele>
        <time>2020-05-23T20:30:02.644Z</time>
      </trkpt>
      <trkpt lat="45.64219" lon="3.43512">
        <ele>679.61541748047</ele>
        <time>2020-05-23T20:30:07.726Z</time>
      </trkpt>
      <trkpt lat="45.64069" lon="3.43494">
        <ele>678.18792724609</ele>
        <time>2020-05-23T20:30:12.832Z</time>
      </trkpt>
      <trkpt lat="45.63878" lon="3.43573">
        <ele>683.14422607422</ele>
        <time>2020-05-23T20:30:17.970Z</time>
      </trkpt>
      <trkpt lat="45.63854" lon="3.43572">
        <ele>683.28955078125</ele>
        <time>2020-05-23T20:30:23.112Z</time>
      </trkpt>
      <trkpt lat="45.63774" lon="3.4354">
        <ele>681.95080566406</ele>
        <time>2020-05-23T20:30:28.267Z</time>
      </trkpt>
      <trkpt lat="45.63687" lon="3.43371">
        <ele>684.53692626953</ele>
        <time>2020-05-23T20:30:33.445Z</time>
      </trkpt>
      <trkpt lat="45.63655" lon="3.43334">
        <ele>686.40283203125</ele>
        <time>2020-05-23T20:30:38.630Z</time>
      </trkpt>
      <trkpt lat="45.63596" lon="3.43291">
        <ele>691.55364990234</ele>
        <time>2020-05-23T20:30:43.825Z</time>
      </trkpt>
      <trkpt lat="45.63533" lon="3.43285">
        <ele>697.13531494141</ele>
        <time>2020-05-23T20:30:49.031Z</time>
      </trkpt>
      <trkpt lat="45.63513" lon="3.43298">
        <ele>698.98895263672</ele>
        <time>2020-05-23T20:30:54.240Z</time>
      </trkpt>
      <trkpt lat="45.63463" lon="3.43412">
        <ele>695.82690429688</ele>
        <time>2020-05-23T20:30:59.464Z</time>
      </trkpt>
      <trkpt lat="45.63439" lon="3.43425">
        <ele>697.10131835938</ele>
        <time>2020-05-23T20:31:04.692Z</time>
      </trkpt>
      <trkpt lat="45.63396" lon="3.43406">
        <ele>703.70489501953</ele>
        <time>2020-05-23T20:31:09.928Z</time>
      </trkpt>
      <trkpt lat="45.63333" lon="3.43434">
        <ele>708.6650390625</ele>
        <time>2020-05-23T20:31:15.174Z</time>
      </trkpt>
      <trkpt lat="45.6326" lon="3.43505">
        <ele>711.15991210938</ele>
        <time>2020-05-23T20:31:20.434Z</time>
      </trkpt>
      <trkpt lat="45.63205" lon="3.43651">
        <ele>709.63092041016</ele>
        <time>2020-05-23T20:31:25.713Z</time>
      </trkpt>
      <trkpt lat="45.63162" lon="3.43653">
        <ele>713.55865478516</ele>
        <time>2020-05-23T20:31:30.999Z</time>
      </trkpt>
      <trkpt lat="45.63088" lon="3.43641">
        <ele>719.54406738281</ele>
        <time>2020-05-23T20:31:36.297Z</time>
      </trkpt>
      <trkpt lat="45.63088" lon="3.43641">
        <ele>719.54388427734</ele>
        <time>2020-05-23T20:31:41.595Z</time>
      </trkpt>
      <trkpt lat="45.63073" lon="3.43639">
        <ele>720.18768310547</ele>
        <time>2020-05-23T20:31:46.895Z</time>
      </trkpt>
      <trkpt lat="45.63073" lon="3.43639">
        <ele>720.1875</ele>
        <time>2020-05-23T20:31:52.195Z</time>
      </trkpt>
      <trkpt lat="45.63026" lon="3.43634">
        <ele>723.31188964844</ele>
        <time>2020-05-23T20:31:57.503Z</time>
      </trkpt>
      <trkpt lat="45.62964" lon="3.43663">
        <ele>721.75402832031</ele>
        <time>2020-05-23T20:32:02.821Z</time>
      </trkpt>
      <trkpt lat="45.6292" lon="3.43637">
        <ele>730.58697509766</ele>
        <time>2020-05-23T20:32:08.147Z</time>
      </trkpt>
      <trkpt lat="45.62891" lon="3.43637">
        <ele>731.62963867188</ele>
        <time>2020-05-23T20:32:13.477Z</time>
      </trkpt>
      <trkpt lat="45.62823" lon="3.4371">
        <ele>718.29125976562</ele>
        <time>2020-05-23T20:32:18.821Z</time>
      </trkpt>
      <trkpt lat="45.62799" lon="3.43711">
        <ele>721.47192382812</ele>
        <time>2020-05-23T20:32:24.169Z</time>
      </trkpt>
      <trkpt lat="45.62784" lon="3.43723">
        <ele>722.591796875</ele>
        <time>2020-05-23T20:32:29.519Z</time>
      </trkpt>
      <trkpt lat="45.62754" lon="3.43816">
        <ele>719.50482177734</ele>
        <time>2020-05-23T20:32:34.881Z</time>
      </trkpt>
      <trkpt lat="45.6274" lon="3.43829">
        <ele>721.29406738281</ele>
        <time>2020-05-23T20:32:40.246Z</time>
      </trkpt>
      <trkpt lat="45.62699" lon="3.43849">
        <ele>725.50244140625</ele>
        <time>2020-05-23T20:32:45.617Z</time>
      </trkpt>
      <trkpt lat="45.62592" lon="3.43858">
        <ele>728.65588378906</ele>
        <time>2020-05-23T20:32:51.006Z</time>
      </trkpt>
      <trkpt lat="45.62581" lon="3.43869">
        <ele>726.59631347656</ele>
        <time>2020-05-23T20:32:56.397Z</time>
      </trkpt>
      <trkpt lat="45.62542" lon="3.43952">
        <ele>713.25427246094</ele>
        <time>2020-05-23T20:33:01.799Z</time>
      </trkpt>
      <trkpt lat="45.62396" lon="3.43962">
        <ele>718.58679199219</ele>
        <time>2020-05-23T20:33:07.224Z</time>
      </trkpt>
      <trkpt lat="45.62364" lon="3.43956">
        <ele>717.74591064453</ele>
        <time>2020-05-23T20:33:12.655Z</time>
      </trkpt>
      <trkpt lat="45.62298" lon="3.43903">
        <ele>720.56848144531</ele>
        <time>2020-05-23T20:33:18.098Z</time>
      </trkpt>
      <trkpt lat="45.62262" lon="3.43858">
        <ele>722.54943847656</ele>
        <time>2020-05-23T20:33:23.548Z</time>
      </trkpt>
      <trkpt lat="45.62239" lon="3.4384">
        <ele>722.48376464844</ele>
        <time>2020-05-23T20:33:29.003Z</time>
      </trkpt>
      <trkpt lat="45.622" lon="3.43827">
        <ele>719.59143066406</ele>
        <time>2020-05-23T20:33:34.464Z</time>
      </trkpt>
      <trkpt lat="45.62132" lon="3.43817">
        <ele>713.79602050781</ele>
        <time>2020-05-23T20:33:39.936Z</time>
      </trkpt>
      <trkpt lat="45.62109" lon="3.43822">
        <ele>708.86737060547</ele>
        <time>2020-05-23T20:33:45.412Z</time>
      </trkpt>
      <trkpt lat="45.6208" lon="3.43858">
        <ele>704.28430175781</ele>
        <time>2020-05-23T20:33:50.894Z</time>
      </trkpt>
      <trkpt lat="45.62062" lon="3.43879">
        <ele>702.31243896484</ele>
        <time>2020-05-23T20:33:56.380Z</time>
      </trkpt>
      <trkpt lat="45.62062" lon="3.43879">
        <ele>702.31225585938</ele>
        <time>2020-05-23T20:34:01.866Z</time>
      </trkpt>
      <trkpt lat="45.62002" lon="3.43952">
        <ele>697.595703125</ele>
        <time>2020-05-23T20:34:07.364Z</time>
      </trkpt>
      <trkpt lat="45.61964" lon="3.44042">
        <ele>696.69030761719</ele>
        <time>2020-05-23T20:34:12.874Z</time>
      </trkpt>
      <trkpt lat="45.61942" lon="3.44094">
        <ele>695.85888671875</ele>
        <time>2020-05-23T20:34:18.391Z</time>
      </trkpt>
      <trkpt lat="45.61763" lon="3.44247">
        <ele>702.53472900391</ele>
        <time>2020-05-23T20:34:23.941Z</time>
      </trkpt>
      <trkpt lat="45.61732" lon="3.44279">
        <ele>703.27947998047</ele>
        <time>2020-05-23T20:34:29.497Z</time>
      </trkpt>
      <trkpt lat="45.61705" lon="3.4432">
        <ele>703.52459716797</ele>
        <time>2020-05-23T20:34:35.060Z</time>
      </trkpt>
      <trkpt lat="45.61622" lon="3.44494">
        <ele>711.07263183594</ele>
        <time>2020-05-23T20:34:40.646Z</time>
      </trkpt>
      <trkpt lat="45.61614" lon="3.44528">
        <ele>711.04333496094</ele>
        <time>2020-05-23T20:34:46.236Z</time>
      </trkpt>
      <trkpt lat="45.6162" lon="3.4463">
        <ele>714.57543945312</ele>
        <time>2020-05-23T20:34:51.838Z</time>
      </trkpt>
      <trkpt lat="45.61603" lon="3.44741">
        <ele>705.10522460938</ele>
        <time>2020-05-23T20:34:57.453Z</time>
      </trkpt>
      <trkpt lat="45.61607" lon="3.44836">
        <ele>704.71868896484</ele>
        <time>2020-05-23T20:35:03.078Z</time>
      </trkpt>
      <trkpt lat="45.61602" lon="3.44887">
        <ele>699.70208740234</ele>
        <time>2020-05-23T20:35:08.709Z</time>
      </trkpt>
      <trkpt lat="45.61563" lon="3.44988">
        <ele>693.74383544922</ele>
        <time>2020-05-23T20:35:14.353Z</time>
      </trkpt>
      <trkpt lat="45.61555" lon="3.45044">
        <ele>691.42572021484</ele>
        <time>2020-05-23T20:35:20.003Z</time>
      </trkpt>
      <trkpt lat="45.61541" lon="3.45133">
        <ele>685.68481445312</ele>
        <time>2020-05-23T20:35:25.664Z</time>
      </trkpt>
      <trkpt lat="45.61437" lon="3.45401">
        <ele>669.55700683594</ele>
        <time>2020-05-23T20:35:31.359Z</time>
      </trkpt>
      <trkpt lat="45.6127" lon="3.45498">
        <ele>661.67517089844</ele>
        <time>2020-05-23T20:35:37.083Z</time>
      </trkpt>
      <trkpt lat="45.6119" lon="3.45574">
        <ele>654.65435791016</ele>
        <time>2020-05-23T20:35:42.822Z</time>
      </trkpt>
      <trkpt lat="45.61036" lon="3.45643">
        <ele>649.15673828125</ele>
        <time>2020-05-23T20:35:48.587Z</time>
      </trkpt>
      <trkpt lat="45.61036" lon="3.45643">
        <ele>649.15692138672</ele>
        <time>2020-05-23T20:35:54.352Z</time>
      </trkpt>
      <trkpt lat="45.61019" lon="3.45647">
        <ele>648.78344726562</ele>
        <time>2020-05-23T20:36:00.120Z</time>
      </trkpt>
      <trkpt lat="45.61002" lon="3.45648">
        <ele>648.56378173828</ele>
        <time>2020-05-23T20:36:05.891Z</time>
      </trkpt>
      <trkpt lat="45.60972" lon="3.45651">
        <ele>648.28057861328</ele>
        <time>2020-05-23T20:36:11.666Z</time>
      </trkpt>
      <trkpt lat="45.60944" lon="3.45656">
        <ele>646.607421875</ele>
        <time>2020-05-23T20:36:17.446Z</time>
      </trkpt>
      <trkpt lat="45.60885" lon="3.45643">
        <ele>643.63903808594</ele>
        <time>2020-05-23T20:36:23.235Z</time>
      </trkpt>
      <trkpt lat="45.60828" lon="3.45648">
        <ele>639.80303955078</ele>
        <time>2020-05-23T20:36:29.034Z</time>
      </trkpt>
      <trkpt lat="45.60767" lon="3.45638">
        <ele>635.23883056641</ele>
        <time>2020-05-23T20:36:34.842Z</time>
      </trkpt>
      <trkpt lat="45.60724" lon="3.45666">
        <ele>635.06982421875</ele>
        <time>2020-05-23T20:36:40.658Z</time>
      </trkpt>
      <trkpt lat="45.60712" lon="3.45664">
        <ele>634.34899902344</ele>
        <time>2020-05-23T20:36:46.476Z</time>
      </trkpt>
      <trkpt lat="45.607" lon="3.45654">
        <ele>633.03594970703</ele>
        <time>2020-05-23T20:36:52.296Z</time>
      </trkpt>
      <trkpt lat="45.60681" lon="3.45609">
        <ele>628.91680908203</ele>
        <time>2020-05-23T20:36:58.122Z</time>
      </trkpt>
      <trkpt lat="45.60673" lon="3.45575">
        <ele>628.09368896484</ele>
        <time>2020-05-23T20:37:03.952Z</time>
      </trkpt>
      <trkpt lat="45.60674" lon="3.45507">
        <ele>626.89471435547</ele>
        <time>2020-05-23T20:37:09.790Z</time>
      </trkpt>
      <trkpt lat="45.60665" lon="3.45487">
        <ele>626.65014648438</ele>
        <time>2020-05-23T20:37:15.630Z</time>
      </trkpt>
      <trkpt lat="45.60623" lon="3.45457">
        <ele>625.00909423828</ele>
        <time>2020-05-23T20:37:21.478Z</time>
      </trkpt>
      <trkpt lat="45.60603" lon="3.45458">
        <ele>622.82080078125</ele>
        <time>2020-05-23T20:37:27.329Z</time>
      </trkpt>
      <trkpt lat="45.60585" lon="3.45463">
        <ele>620.91564941406</ele>
        <time>2020-05-23T20:37:33.183Z</time>
      </trkpt>
      <trkpt lat="45.60572" lon="3.45479">
        <ele>620.35888671875</ele>
        <time>2020-05-23T20:37:39.040Z</time>
      </trkpt>
      <trkpt lat="45.60547" lon="3.45551">
        <ele>616.31170654297</ele>
        <time>2020-05-23T20:37:44.906Z</time>
      </trkpt>
      <trkpt lat="45.6055" lon="3.45602">
        <ele>612.70617675781</ele>
        <time>2020-05-23T20:37:50.778Z</time>
      </trkpt>
      <trkpt lat="45.60568" lon="3.45663">
        <ele>613.35321044922</ele>
        <time>2020-05-23T20:37:56.657Z</time>
      </trkpt>
      <trkpt lat="45.6056" lon="3.45691">
        <ele>611.56707763672</ele>
        <time>2020-05-23T20:38:02.539Z</time>
      </trkpt>
      <trkpt lat="45.60543" lon="3.45702">
        <ele>609.29113769531</ele>
        <time>2020-05-23T20:38:08.424Z</time>
      </trkpt>
      <trkpt lat="45.60474" lon="3.45565">
        <ele>604.28240966797</ele>
        <time>2020-05-23T20:38:14.328Z</time>
      </trkpt>
      <trkpt lat="45.60474" lon="3.45565">
        <ele>604.28363037109</ele>
        <time>2020-05-23T20:38:20.232Z</time>
      </trkpt>
      <trkpt lat="45.60458" lon="3.45516">
        <ele>604.87872314453</ele>
        <time>2020-05-23T20:38:26.142Z</time>
      </trkpt>
      <trkpt lat="45.60441" lon="3.45386">
        <ele>599.24298095703</ele>
        <time>2020-05-23T20:38:32.067Z</time>
      </trkpt>
      <trkpt lat="45.60428" lon="3.45251">
        <ele>589.66351318359</ele>
        <time>2020-05-23T20:38:38.008Z</time>
      </trkpt>
      <trkpt lat="45.60431" lon="3.45198">
        <ele>586.115234375</ele>
        <time>2020-05-23T20:38:43.954Z</time>
      </trkpt>
      <trkpt lat="45.60442" lon="3.45162">
        <ele>584.70745849609</ele>
        <time>2020-05-23T20:38:49.905Z</time>
      </trkpt>
      <trkpt lat="45.6046" lon="3.45138">
        <ele>583.00134277344</ele>
        <time>2020-05-23T20:38:55.860Z</time>
      </trkpt>
      <trkpt lat="45.60525" lon="3.45117">
        <ele>584.66760253906</ele>
        <time>2020-05-23T20:39:01.825Z</time>
      </trkpt>
      <trkpt lat="45.60553" lon="3.45093">
        <ele>583.45532226562</ele>
        <time>2020-05-23T20:39:07.796Z</time>
      </trkpt>
      <trkpt lat="45.60636" lon="3.44968">
        <ele>583.66516113281</ele>
        <time>2020-05-23T20:39:13.786Z</time>
      </trkpt>
      <trkpt lat="45.6068" lon="3.44882">
        <ele>583.65032958984</ele>
        <time>2020-05-23T20:39:19.788Z</time>
      </trkpt>
      <trkpt lat="45.60771" lon="3.44798">
        <ele>578.33905029297</ele>
        <time>2020-05-23T20:39:25.807Z</time>
      </trkpt>
      <trkpt lat="45.60793" lon="3.44762">
        <ele>575.61077880859</ele>
        <time>2020-05-23T20:39:31.832Z</time>
      </trkpt>
      <trkpt lat="45.60821" lon="3.44684">
        <ele>571.783203125</ele>
        <time>2020-05-23T20:39:37.866Z</time>
      </trkpt>
      <trkpt lat="45.60883" lon="3.44604">
        <ele>579.93103027344</ele>
        <time>2020-05-23T20:39:43.914Z</time>
      </trkpt>
      <trkpt lat="45.60916" lon="3.44498">
        <ele>576.57592773438</ele>
        <time>2020-05-23T20:39:49.975Z</time>
      </trkpt>
      <trkpt lat="45.60948" lon="3.44437">
        <ele>575.93511962891</ele>
        <time>2020-05-23T20:39:56.045Z</time>
      </trkpt>
      <trkpt lat="45.60948" lon="3.44437">
        <ele>575.93640136719</ele>
        <time>2020-05-23T20:40:02.115Z</time>
      </trkpt>
      <trkpt lat="45.60948" lon="3.44437">
        <ele>575.93481445312</ele>
        <time>2020-05-23T20:40:08.185Z</time>
      </trkpt>
      <trkpt lat="45.61022" lon="3.44298">
        <ele>572.98815917969</ele>
        <time>2020-05-23T20:40:14.274Z</time>
      </trkpt>
      <trkpt lat="45.61043" lon="3.44247">
        <ele>578.28869628906</ele>
        <time>2020-05-23T20:40:20.370Z</time>
      </trkpt>
      <trkpt lat="45.6107" lon="3.44125">
        <ele>575.17535400391</ele>
        <time>2020-05-23T20:40:26.480Z</time>
      </trkpt>
      <trkpt lat="45.61079" lon="3.44052">
        <ele>578.70062255859</ele>
        <time>2020-05-23T20:40:32.598Z</time>
      </trkpt>
      <trkpt lat="45.61059" lon="3.43972">
        <ele>568.93756103516</ele>
        <time>2020-05-23T20:40:38.726Z</time>
      </trkpt>
      <trkpt lat="45.61058" lon="3.43879">
        <ele>571.14086914062</ele>
        <time>2020-05-23T20:40:44.864Z</time>
      </trkpt>
      <trkpt lat="45.61045" lon="3.43743">
        <ele>571.37945556641</ele>
        <time>2020-05-23T20:40:51.018Z</time>
      </trkpt>
      <trkpt lat="45.61032" lon="3.43673">
        <ele>567.34222412109</ele>
        <time>2020-05-23T20:40:57.180Z</time>
      </trkpt>
      <trkpt lat="45.61018" lon="3.43637">
        <ele>566.32690429688</ele>
        <time>2020-05-23T20:41:03.347Z</time>
      </trkpt>
      <trkpt lat="45.61013" lon="3.43631">
        <ele>565.42578125</ele>
        <time>2020-05-23T20:41:09.515Z</time>
      </trkpt>
      <trkpt lat="45.60919" lon="3.43561">
        <ele>562.72528076172</ele>
        <time>2020-05-23T20:41:15.700Z</time>
      </trkpt>
      <trkpt lat="45.60919" lon="3.43561">
        <ele>562.72619628906</ele>
        <time>2020-05-23T20:41:21.885Z</time>
      </trkpt>
      <trkpt lat="45.60828" lon="3.43561">
        <ele>554.92791748047</ele>
        <time>2020-05-23T20:41:28.084Z</time>
      </trkpt>
      <trkpt lat="45.60786" lon="3.43557">
        <ele>552.51947021484</ele>
        <time>2020-05-23T20:41:34.290Z</time>
      </trkpt>
      <trkpt lat="45.60737" lon="3.43537">
        <ele>548.36224365234</ele>
        <time>2020-05-23T20:41:40.504Z</time>
      </trkpt>
      <trkpt lat="45.60723" lon="3.43529">
        <ele>548.37512207031</ele>
        <time>2020-05-23T20:41:46.721Z</time>
      </trkpt>
      <trkpt lat="45.60703" lon="3.43516">
        <ele>548.22442626953</ele>
        <time>2020-05-23T20:41:52.941Z</time>
      </trkpt>
      <trkpt lat="45.60649" lon="3.4349">
        <ele>552.08258056641</ele>
        <time>2020-05-23T20:41:59.170Z</time>
      </trkpt>
      <trkpt lat="45.60461" lon="3.4344">
        <ele>546.81140136719</ele>
        <time>2020-05-23T20:42:05.430Z</time>
      </trkpt>
      <trkpt lat="45.60322" lon="3.43338">
        <ele>539.55603027344</ele>
        <time>2020-05-23T20:42:11.715Z</time>
      </trkpt>
      <trkpt lat="45.60105" lon="3.43165">
        <ele>543.4306640625</ele>
        <time>2020-05-23T20:42:18.040Z</time>
      </trkpt>
      <trkpt lat="45.60056" lon="3.43087">
        <ele>541.6904296875</ele>
        <time>2020-05-23T20:42:24.376Z</time>
      </trkpt>
      <trkpt lat="45.6" lon="3.42924">
        <ele>531.74200439453</ele>
        <time>2020-05-23T20:42:30.733Z</time>
      </trkpt>
      <trkpt lat="45.6" lon="3.42924">
        <ele>531.74334716797</ele>
        <time>2020-05-23T20:42:37.090Z</time>
      </trkpt>
      <trkpt lat="45.59981" lon="3.42876">
        <ele>533.26098632812</ele>
        <time>2020-05-23T20:42:43.453Z</time>
      </trkpt>
      <trkpt lat="45.59936" lon="3.42809">
        <ele>534.65155029297</ele>
        <time>2020-05-23T20:42:49.826Z</time>
      </trkpt>
      <trkpt lat="45.59836" lon="3.42725">
        <ele>525.97760009766</ele>
        <time>2020-05-23T20:42:56.218Z</time>
      </trkpt>
      <trkpt lat="45.59825" lon="3.42698">
        <ele>522.9736328125</ele>
        <time>2020-05-23T20:43:02.613Z</time>
      </trkpt>
      <trkpt lat="45.59829" lon="3.42674">
        <ele>522.11798095703</ele>
        <time>2020-05-23T20:43:09.011Z</time>
      </trkpt>
      <trkpt lat="45.59829" lon="3.42674">
        <ele>522.11901855469</ele>
        <time>2020-05-23T20:43:15.409Z</time>
      </trkpt>
      <trkpt lat="45.59851" lon="3.4265">
        <ele>524.12713623047</ele>
        <time>2020-05-23T20:43:21.812Z</time>
      </trkpt>
      <trkpt lat="45.59889" lon="3.42615">
        <ele>520.04315185547</ele>
        <time>2020-05-23T20:43:28.222Z</time>
      </trkpt>
      <trkpt lat="45.5991" lon="3.42564">
        <ele>522.15496826172</ele>
        <time>2020-05-23T20:43:34.638Z</time>
      </trkpt>
      <trkpt lat="45.59915" lon="3.42527">
        <ele>527.35388183594</ele>
        <time>2020-05-23T20:43:41.059Z</time>
      </trkpt>
      <trkpt lat="45.59903" lon="3.42492">
        <ele>532.50341796875</ele>
        <time>2020-05-23T20:43:47.484Z</time>
      </trkpt>
      <trkpt lat="45.59825" lon="3.42421">
        <ele>528.49530029297</ele>
        <time>2020-05-23T20:43:53.924Z</time>
      </trkpt>
      <trkpt lat="45.59808" lon="3.42386">
        <ele>522.11053466797</ele>
        <time>2020-05-23T20:44:00.369Z</time>
      </trkpt>
      <trkpt lat="45.59809" lon="3.42354">
        <ele>520.212890625</ele>
        <time>2020-05-23T20:44:06.817Z</time>
      </trkpt>
      <trkpt lat="45.59845" lon="3.42279">
        <ele>520.97607421875</ele>
        <time>2020-05-23T20:44:13.276Z</time>
      </trkpt>
      <trkpt lat="45.59867" lon="3.42216">
        <ele>520.357421875</ele>
        <time>2020-05-23T20:44:19.742Z</time>
      </trkpt>
      <trkpt lat="45.59873" lon="3.42143">
        <ele>520.35180664062</ele>
        <time>2020-05-23T20:44:26.217Z</time>
      </trkpt>
      <trkpt lat="45.59866" lon="3.42103">
        <ele>521.26574707031</ele>
        <time>2020-05-23T20:44:32.696Z</time>
      </trkpt>
      <trkpt lat="45.59854" lon="3.42081">
        <ele>524.05096435547</ele>
        <time>2020-05-23T20:44:39.178Z</time>
      </trkpt>
      <trkpt lat="45.59736" lon="3.42016">
        <ele>521.02844238281</ele>
        <time>2020-05-23T20:44:45.681Z</time>
      </trkpt>
      <trkpt lat="45.59736" lon="3.42016">
        <ele>521.02996826172</ele>
        <time>2020-05-23T20:44:52.184Z</time>
      </trkpt>
      <trkpt lat="45.59687" lon="3.41975">
        <ele>516.70922851562</ele>
        <time>2020-05-23T20:44:58.696Z</time>
      </trkpt>
      <trkpt lat="45.59632" lon="3.41967">
        <ele>511.15594482422</ele>
        <time>2020-05-23T20:45:05.217Z</time>
      </trkpt>
      <trkpt lat="45.59616" lon="3.41945">
        <ele>511.21981811523</ele>
        <time>2020-05-23T20:45:11.741Z</time>
      </trkpt>
      <trkpt lat="45.59615" lon="3.41923">
        <ele>511.33926391602</ele>
        <time>2020-05-23T20:45:18.268Z</time>
      </trkpt>
      <trkpt lat="45.59643" lon="3.41636">
        <ele>515.30255126953</ele>
        <time>2020-05-23T20:45:24.827Z</time>
      </trkpt>
      <trkpt lat="45.59655" lon="3.4161">
        <ele>517.29040527344</ele>
        <time>2020-05-23T20:45:31.390Z</time>
      </trkpt>
      <trkpt lat="45.59758" lon="3.41505">
        <ele>513.87481689453</ele>
        <time>2020-05-23T20:45:37.973Z</time>
      </trkpt>
      <trkpt lat="45.59793" lon="3.41428">
        <ele>514.10107421875</ele>
        <time>2020-05-23T20:45:44.566Z</time>
      </trkpt>
      <trkpt lat="45.59804" lon="3.41395">
        <ele>512.32189941406</ele>
        <time>2020-05-23T20:45:51.163Z</time>
      </trkpt>
      <trkpt lat="45.59806" lon="3.4136">
        <ele>509.92764282227</ele>
        <time>2020-05-23T20:45:57.764Z</time>
      </trkpt>
      <trkpt lat="45.59806" lon="3.4136">
        <ele>509.92953491211</ele>
        <time>2020-05-23T20:46:04.365Z</time>
      </trkpt>
      <trkpt lat="45.59803" lon="3.41334">
        <ele>507.10153198242</ele>
        <time>2020-05-23T20:46:10.969Z</time>
      </trkpt>
      <trkpt lat="45.59791" lon="3.41303">
        <ele>503.63470458984</ele>
        <time>2020-05-23T20:46:17.577Z</time>
      </trkpt>
      <trkpt lat="45.59769" lon="3.4127">
        <ele>499.25805664062</ele>
        <time>2020-05-23T20:46:24.190Z</time>
      </trkpt>
      <trkpt lat="45.59767" lon="3.41246">
        <ele>498.21450805664</ele>
        <time>2020-05-23T20:46:30.806Z</time>
      </trkpt>
      <trkpt lat="45.59781" lon="3.41226">
        <ele>497.11666870117</ele>
        <time>2020-05-23T20:46:37.425Z</time>
      </trkpt>
      <trkpt lat="45.59814" lon="3.41214">
        <ele>496.84100341797</ele>
        <time>2020-05-23T20:46:44.050Z</time>
      </trkpt>
      <trkpt lat="45.5988" lon="3.41156">
        <ele>493.09329223633</ele>
        <time>2020-05-23T20:46:50.687Z</time>
      </trkpt>
      <trkpt lat="45.59942" lon="3.41101">
        <ele>488.67004394531</ele>
        <time>2020-05-23T20:46:57.336Z</time>
      </trkpt>
      <trkpt lat="45.60073" lon="3.40983">
        <ele>488.73138427734</ele>
        <time>2020-05-23T20:47:04.010Z</time>
      </trkpt>
      <trkpt lat="45.60089" lon="3.40957">
        <ele>488.49966430664</ele>
        <time>2020-05-23T20:47:10.687Z</time>
      </trkpt>
      <trkpt lat="45.60089" lon="3.40957">
        <ele>488.49987792969</ele>
        <time>2020-05-23T20:47:17.364Z</time>
      </trkpt>
      <trkpt lat="45.60092" lon="3.40947">
        <ele>488.32186889648</ele>
        <time>2020-05-23T20:47:24.043Z</time>
      </trkpt>
      <trkpt lat="45.60092" lon="3.40947">
        <ele>488.31967163086</ele>
        <time>2020-05-23T20:47:30.722Z</time>
      </trkpt>
      <trkpt lat="45.60092" lon="3.40947">
        <ele>488.31921386719</ele>
        <time>2020-05-23T20:47:37.401Z</time>
      </trkpt>
      <trkpt lat="45.60092" lon="3.40947">
        <ele>488.31845092773</ele>
        <time>2020-05-23T20:47:44.080Z</time>
      </trkpt>
      <trkpt lat="45.6012" lon="3.40839">
        <ele>486.16876220703</ele>
        <time>2020-05-23T20:47:50.772Z</time>
      </trkpt>
      <trkpt lat="45.6012" lon="3.40839">
        <ele>486.16915893555</ele>
        <time>2020-05-23T20:47:57.464Z</time>
      </trkpt>
      <trkpt lat="45.6013" lon="3.40776">
        <ele>486.6819152832</ele>
        <time>2020-05-23T20:48:04.163Z</time>
      </trkpt>
      <trkpt lat="45.60133" lon="3.40727">
        <ele>486.47290039062</ele>
        <time>2020-05-23T20:48:10.867Z</time>
      </trkpt>
      <trkpt lat="45.60133" lon="3.40727">
        <ele>486.47320556641</ele>
        <time>2020-05-23T20:48:17.571Z</time>
      </trkpt>
      <trkpt lat="45.60101" lon="3.40657">
        <ele>484.16311645508</ele>
        <time>2020-05-23T20:48:24.285Z</time>
      </trkpt>
      <trkpt lat="45.60087" lon="3.4064">
        <ele>483.24917602539</ele>
        <time>2020-05-23T20:48:31.002Z</time>
      </trkpt>
      <trkpt lat="45.60087" lon="3.4064">
        <ele>483.24948120117</ele>
        <time>2020-05-23T20:48:37.719Z</time>
      </trkpt>
      <trkpt lat="45.60035" lon="3.4059">
        <ele>480.90023803711</ele>
        <time>2020-05-23T20:48:44.446Z</time>
      </trkpt>
      <trkpt lat="45.59938" lon="3.40502">
        <ele>481.3154296875</ele>
        <time>2020-05-23T20:48:51.191Z</time>
      </trkpt>
      <trkpt lat="45.59931" lon="3.40495">
        <ele>481.53427124023</ele>
        <time>2020-05-23T20:48:57.938Z</time>
      </trkpt>
      <trkpt lat="45.59908" lon="3.40465">
        <ele>482.30700683594</ele>
        <time>2020-05-23T20:49:04.690Z</time>
      </trkpt>
      <trkpt lat="45.5988" lon="3.40401">
        <ele>482.93719482422</ele>
        <time>2020-05-23T20:49:11.450Z</time>
      </trkpt>
      <trkpt lat="45.59865" lon="3.40369">
        <ele>482.75698852539</ele>
        <time>2020-05-23T20:49:18.214Z</time>
      </trkpt>
      <trkpt lat="45.59803" lon="3.40229">
        <ele>482.11413574219</ele>
        <time>2020-05-23T20:49:24.997Z</time>
      </trkpt>
      <trkpt lat="45.59803" lon="3.40229">
        <ele>482.11404418945</ele>
        <time>2020-05-23T20:49:31.780Z</time>
      </trkpt>
      <trkpt lat="45.59749" lon="3.40106">
        <ele>481.99478149414</ele>
        <time>2020-05-23T20:49:38.579Z</time>
      </trkpt>
      <trkpt lat="45.59721" lon="3.40044">
        <ele>481.60006713867</ele>
        <time>2020-05-23T20:49:45.386Z</time>
      </trkpt>
      <trkpt lat="45.59702" lon="3.4">
        <ele>481.52008056641</ele>
        <time>2020-05-23T20:49:52.199Z</time>
      </trkpt>
      <trkpt lat="45.59702" lon="3.4">
        <ele>481.5192565918</ele>
        <time>2020-05-23T20:49:59.012Z</time>
      </trkpt>
      <trkpt lat="45.5964" lon="3.39883">
        <ele>479.87170410156</ele>
        <time>2020-05-23T20:50:05.842Z</time>
      </trkpt>
      <trkpt lat="45.59456" lon="3.39613">
        <ele>472.17340087891</ele>
        <time>2020-05-23T20:50:12.714Z</time>
      </trkpt>
      <trkpt lat="45.59456" lon="3.39613">
        <ele>472.17340087891</ele>
        <time>2020-05-23T20:50:19.586Z</time>
      </trkpt>
      <trkpt lat="45.59291" lon="3.39379">
        <ele>471.89254760742</ele>
        <time>2020-05-23T20:50:26.495Z</time>
      </trkpt>
      <trkpt lat="45.59265" lon="3.39333">
        <ele>472.50503540039</ele>
        <time>2020-05-23T20:50:33.411Z</time>
      </trkpt>
      <trkpt lat="45.5925" lon="3.39247">
        <ele>473.02923583984</ele>
        <time>2020-05-23T20:50:40.337Z</time>
      </trkpt>
      <trkpt lat="45.59246" lon="3.39186">
        <ele>474.62036132812</ele>
        <time>2020-05-23T20:50:47.270Z</time>
      </trkpt>
      <trkpt lat="45.59246" lon="3.39186">
        <ele>474.62023925781</ele>
        <time>2020-05-23T20:50:54.203Z</time>
      </trkpt>
      <trkpt lat="45.59226" lon="3.38758">
        <ele>467.90213012695</ele>
        <time>2020-05-23T20:51:01.184Z</time>
      </trkpt>
      <trkpt lat="45.59221" lon="3.3865">
        <ele>467.66033935547</ele>
        <time>2020-05-23T20:51:08.177Z</time>
      </trkpt>
      <trkpt lat="45.59215" lon="3.3851">
        <ele>464.12835693359</ele>
        <time>2020-05-23T20:51:15.186Z</time>
      </trkpt>
      <trkpt lat="45.59205" lon="3.38296">
        <ele>461.65631103516</ele>
        <time>2020-05-23T20:51:22.219Z</time>
      </trkpt>
      <trkpt lat="45.59205" lon="3.38296">
        <ele>461.65551757812</ele>
        <time>2020-05-23T20:51:29.252Z</time>
      </trkpt>
      <trkpt lat="45.59198" lon="3.38139">
        <ele>460.22033691406</ele>
        <time>2020-05-23T20:51:36.303Z</time>
      </trkpt>
      <trkpt lat="45.59198" lon="3.38139">
        <ele>460.21719360352</ele>
        <time>2020-05-23T20:51:43.354Z</time>
      </trkpt>
      <trkpt lat="45.59198" lon="3.38139">
        <ele>460.22515869141</ele>
        <time>2020-05-23T20:51:50.405Z</time>
      </trkpt>
      <trkpt lat="45.59198" lon="3.38139">
        <ele>460.224609375</ele>
        <time>2020-05-23T20:51:57.456Z</time>
      </trkpt>
      <trkpt lat="45.59191" lon="3.37994">
        <ele>454.72543334961</ele>
        <time>2020-05-23T20:52:04.523Z</time>
      </trkpt>
      <trkpt lat="45.59191" lon="3.37994">
        <ele>454.72512817383</ele>
        <time>2020-05-23T20:52:11.590Z</time>
      </trkpt>
      <trkpt lat="45.59189" lon="3.37949">
        <ele>452.53845214844</ele>
        <time>2020-05-23T20:52:18.662Z</time>
      </trkpt>
      <trkpt lat="45.59195" lon="3.37902">
        <ele>452.18475341797</ele>
        <time>2020-05-23T20:52:25.740Z</time>
      </trkpt>
      <trkpt lat="45.59215" lon="3.37844">
        <ele>452.26293945312</ele>
        <time>2020-05-23T20:52:32.825Z</time>
      </trkpt>
      <trkpt lat="45.5941" lon="3.37481">
        <ele>442.70104980469</ele>
        <time>2020-05-23T20:52:39.961Z</time>
      </trkpt>
      <trkpt lat="45.5941" lon="3.37481">
        <ele>442.70092773438</ele>
        <time>2020-05-23T20:52:47.097Z</time>
      </trkpt>
      <trkpt lat="45.59529" lon="3.37256">
        <ele>444.59432983398</ele>
        <time>2020-05-23T20:52:54.265Z</time>
      </trkpt>
      <trkpt lat="45.59547" lon="3.37182">
        <ele>445.15567016602</ele>
        <time>2020-05-23T20:53:01.442Z</time>
      </trkpt>
      <trkpt lat="45.59574" lon="3.37111">
        <ele>444.89068603516</ele>
        <time>2020-05-23T20:53:08.628Z</time>
      </trkpt>
      <trkpt lat="45.59605" lon="3.37076">
        <ele>446.494140625</ele>
        <time>2020-05-23T20:53:15.820Z</time>
      </trkpt>
      <trkpt lat="45.59645" lon="3.37054">
        <ele>443.95364379883</ele>
        <time>2020-05-23T20:53:23.019Z</time>
      </trkpt>
      <trkpt lat="45.59723" lon="3.37056">
        <ele>444.275390625</ele>
        <time>2020-05-23T20:53:30.230Z</time>
      </trkpt>
      <trkpt lat="45.59765" lon="3.37042">
        <ele>444.53182983398</ele>
        <time>2020-05-23T20:53:37.448Z</time>
      </trkpt>
      <trkpt lat="45.5992" lon="3.36908">
        <ele>439.48028564453</ele>
        <time>2020-05-23T20:53:44.695Z</time>
      </trkpt>
      <trkpt lat="45.6" lon="3.36864">
        <ele>438.56295776367</ele>
        <time>2020-05-23T20:53:51.956Z</time>
      </trkpt>
      <trkpt lat="45.6" lon="3.36864">
        <ele>438.56286621094</ele>
        <time>2020-05-23T20:53:59.217Z</time>
      </trkpt>
      <trkpt lat="45.60103" lon="3.36808">
        <ele>436.44451904297</ele>
        <time>2020-05-23T20:54:06.496Z</time>
      </trkpt>
      <trkpt lat="45.60142" lon="3.36769">
        <ele>432.60308837891</ele>
        <time>2020-05-23T20:54:13.782Z</time>
      </trkpt>
      <trkpt lat="45.60142" lon="3.36769">
        <ele>432.60348510742</ele>
        <time>2020-05-23T20:54:21.068Z</time>
      </trkpt>
      <trkpt lat="45.60416" lon="3.36332">
        <ele>431.64004516602</ele>
        <time>2020-05-23T20:54:28.420Z</time>
      </trkpt>
      <trkpt lat="45.60433" lon="3.36266">
        <ele>429.23135375977</ele>
        <time>2020-05-23T20:54:35.780Z</time>
      </trkpt>
      <trkpt lat="45.60431" lon="3.36196">
        <ele>426.54202270508</ele>
        <time>2020-05-23T20:54:43.148Z</time>
      </trkpt>
      <trkpt lat="45.60417" lon="3.36144">
        <ele>425.30798339844</ele>
        <time>2020-05-23T20:54:50.522Z</time>
      </trkpt>
      <trkpt lat="45.60344" lon="3.35997">
        <ele>426.31384277344</ele>
        <time>2020-05-23T20:54:57.916Z</time>
      </trkpt>
      <trkpt lat="45.60318" lon="3.35932">
        <ele>425.88967895508</ele>
        <time>2020-05-23T20:55:05.319Z</time>
      </trkpt>
      <trkpt lat="45.60305" lon="3.35874">
        <ele>424.04403686523</ele>
        <time>2020-05-23T20:55:12.729Z</time>
      </trkpt>
      <trkpt lat="45.60307" lon="3.35814">
        <ele>422.00308227539</ele>
        <time>2020-05-23T20:55:20.145Z</time>
      </trkpt>
      <trkpt lat="45.60324" lon="3.35753">
        <ele>420.87539672852</ele>
        <time>2020-05-23T20:55:27.569Z</time>
      </trkpt>
      <trkpt lat="45.60403" lon="3.35609">
        <ele>423.94290161133</ele>
        <time>2020-05-23T20:55:35.013Z</time>
      </trkpt>
      <trkpt lat="45.60584" lon="3.35496">
        <ele>428.38314819336</ele>
        <time>2020-05-23T20:55:42.489Z</time>
      </trkpt>
      <trkpt lat="45.60686" lon="3.35372">
        <ele>435.89990234375</ele>
        <time>2020-05-23T20:55:49.986Z</time>
      </trkpt>
      <trkpt lat="45.60701" lon="3.35351">
        <ele>438.21694946289</ele>
        <time>2020-05-23T20:55:57.487Z</time>
      </trkpt>
      <trkpt lat="45.60842" lon="3.35047">
        <ele>441.29040527344</ele>
        <time>2020-05-23T20:56:05.029Z</time>
      </trkpt>
      <trkpt lat="45.60887" lon="3.34978">
        <ele>442.30627441406</ele>
        <time>2020-05-23T20:56:12.581Z</time>
      </trkpt>
      <trkpt lat="45.60887" lon="3.34978">
        <ele>442.30645751953</ele>
        <time>2020-05-23T20:56:20.133Z</time>
      </trkpt>
      <trkpt lat="45.60986" lon="3.34856">
        <ele>442.68356323242</ele>
        <time>2020-05-23T20:56:27.706Z</time>
      </trkpt>
      <trkpt lat="45.60986" lon="3.34856">
        <ele>442.68444824219</ele>
        <time>2020-05-23T20:56:35.279Z</time>
      </trkpt>
      <trkpt lat="45.61029" lon="3.34785">
        <ele>446.75888061523</ele>
        <time>2020-05-23T20:56:42.863Z</time>
      </trkpt>
      <trkpt lat="45.61106" lon="3.34563">
        <ele>455.76754760742</ele>
        <time>2020-05-23T20:56:50.475Z</time>
      </trkpt>
      <trkpt lat="45.61139" lon="3.34362">
        <ele>456.23550415039</ele>
        <time>2020-05-23T20:56:58.110Z</time>
      </trkpt>
      <trkpt lat="45.61192" lon="3.343">
        <ele>467.05685424805</ele>
        <time>2020-05-23T20:57:05.756Z</time>
      </trkpt>
      <trkpt lat="45.61512" lon="3.34096">
        <ele>478.92730712891</ele>
        <time>2020-05-23T20:57:13.458Z</time>
      </trkpt>
      <trkpt lat="45.61573" lon="3.34025">
        <ele>480.71743774414</ele>
        <time>2020-05-23T20:57:21.172Z</time>
      </trkpt>
      <trkpt lat="45.61599" lon="3.33966">
        <ele>482.72689819336</ele>
        <time>2020-05-23T20:57:28.894Z</time>
      </trkpt>
      <trkpt lat="45.61636" lon="3.33732">
        <ele>473.03961181641</ele>
        <time>2020-05-23T20:57:36.643Z</time>
      </trkpt>
      <trkpt lat="45.61628" lon="3.33675">
        <ele>468.90576171875</ele>
        <time>2020-05-23T20:57:44.399Z</time>
      </trkpt>
      <trkpt lat="45.61593" lon="3.33554">
        <ele>475.57382202148</ele>
        <time>2020-05-23T20:57:52.169Z</time>
      </trkpt>
      <trkpt lat="45.61586" lon="3.33525">
        <ele>476.89895629883</ele>
        <time>2020-05-23T20:57:59.943Z</time>
      </trkpt>
      <trkpt lat="45.61528" lon="3.33321">
        <ele>483.13803100586</ele>
        <time>2020-05-23T20:58:07.741Z</time>
      </trkpt>
      <trkpt lat="45.61528" lon="3.33321">
        <ele>483.16622924805</ele>
        <time>2020-05-23T20:58:15.540Z</time>
      </trkpt>
      <trkpt lat="45.61528" lon="3.33321">
        <ele>483.15203857422</ele>
        <time>2020-05-23T20:58:23.339Z</time>
      </trkpt>
      <trkpt lat="45.61528" lon="3.33321">
        <ele>483.15350341797</ele>
        <time>2020-05-23T20:58:31.138Z</time>
      </trkpt>
      <trkpt lat="45.61491" lon="3.3319">
        <ele>490.6565246582</ele>
        <time>2020-05-23T20:58:38.952Z</time>
      </trkpt>
      <trkpt lat="45.61501" lon="3.33133">
        <ele>494.3486328125</ele>
        <time>2020-05-23T20:58:46.773Z</time>
      </trkpt>
      <trkpt lat="45.61572" lon="3.3292">
        <ele>505.26275634766</ele>
        <time>2020-05-23T20:58:54.621Z</time>
      </trkpt>
      <trkpt lat="45.61603" lon="3.3289">
        <ele>509.21459960938</ele>
        <time>2020-05-23T20:59:02.475Z</time>
      </trkpt>
      <trkpt lat="45.6163" lon="3.32888">
        <ele>509.20172119141</ele>
        <time>2020-05-23T20:59:10.333Z</time>
      </trkpt>
      <trkpt lat="45.61657" lon="3.32906">
        <ele>509.04672241211</ele>
        <time>2020-05-23T20:59:18.196Z</time>
      </trkpt>
      <trkpt lat="45.61701" lon="3.32951">
        <ele>508.08502197266</ele>
        <time>2020-05-23T20:59:26.067Z</time>
      </trkpt>
      <trkpt lat="45.61728" lon="3.32965">
        <ele>508.31134033203</ele>
        <time>2020-05-23T20:59:33.943Z</time>
      </trkpt>
      <trkpt lat="45.6182" lon="3.3295">
        <ele>510.38519287109</ele>
        <time>2020-05-23T20:59:41.834Z</time>
      </trkpt>
      <trkpt lat="45.61885" lon="3.32919">
        <ele>514.97351074219</ele>
        <time>2020-05-23T20:59:49.736Z</time>
      </trkpt>
      <trkpt lat="45.61937" lon="3.32858">
        <ele>516.291015625</ele>
        <time>2020-05-23T20:59:57.648Z</time>
      </trkpt>
      <trkpt lat="45.61988" lon="3.32771">
        <ele>521.60565185547</ele>
        <time>2020-05-23T21:00:05.573Z</time>
      </trkpt>
      <trkpt lat="45.6201" lon="3.32732">
        <ele>525.62145996094</ele>
        <time>2020-05-23T21:00:13.504Z</time>
      </trkpt>
      <trkpt lat="45.6201" lon="3.32732">
        <ele>525.62164306641</ele>
        <time>2020-05-23T21:00:21.435Z</time>
      </trkpt>
      <trkpt lat="45.62062" lon="3.32655">
        <ele>533.28302001953</ele>
        <time>2020-05-23T21:00:29.378Z</time>
      </trkpt>
      <trkpt lat="45.62132" lon="3.32604">
        <ele>537.33520507812</ele>
        <time>2020-05-23T21:00:37.333Z</time>
      </trkpt>
      <trkpt lat="45.62132" lon="3.32604">
        <ele>537.33532714844</ele>
        <time>2020-05-23T21:00:45.288Z</time>
      </trkpt>
      <trkpt lat="45.62219" lon="3.32516">
        <ele>543.82409667969</ele>
        <time>2020-05-23T21:00:53.260Z</time>
      </trkpt>
      <trkpt lat="45.62295" lon="3.3246">
        <ele>544.70483398438</ele>
        <time>2020-05-23T21:01:01.246Z</time>
      </trkpt>
      <trkpt lat="45.62321" lon="3.32446">
        <ele>545.40716552734</ele>
        <time>2020-05-23T21:01:09.237Z</time>
      </trkpt>
      <trkpt lat="45.62353" lon="3.32442">
        <ele>544.50610351562</ele>
        <time>2020-05-23T21:01:17.233Z</time>
      </trkpt>
      <trkpt lat="45.62408" lon="3.32465">
        <ele>540.06225585938</ele>
        <time>2020-05-23T21:01:25.238Z</time>
      </trkpt>
      <trkpt lat="45.62435" lon="3.32464">
        <ele>537.97888183594</ele>
        <time>2020-05-23T21:01:33.247Z</time>
      </trkpt>
      <trkpt lat="45.62453" lon="3.32452">
        <ele>537.59271240234</ele>
        <time>2020-05-23T21:01:41.259Z</time>
      </trkpt>
      <trkpt lat="45.62492" lon="3.32397">
        <ele>536.68640136719</ele>
        <time>2020-05-23T21:01:49.280Z</time>
      </trkpt>
      <trkpt lat="45.62515" lon="3.32347">
        <ele>535.47918701172</ele>
        <time>2020-05-23T21:01:57.308Z</time>
      </trkpt>
      <trkpt lat="45.62524" lon="3.32276">
        <ele>537.90057373047</ele>
        <time>2020-05-23T21:02:05.344Z</time>
      </trkpt>
      <trkpt lat="45.62524" lon="3.32276">
        <ele>537.89978027344</ele>
        <time>2020-05-23T21:02:13.380Z</time>
      </trkpt>
      <trkpt lat="45.62536" lon="3.3211">
        <ele>544.80725097656</ele>
        <time>2020-05-23T21:02:21.435Z</time>
      </trkpt>
      <trkpt lat="45.62553" lon="3.32029">
        <ele>547.6318359375</ele>
        <time>2020-05-23T21:02:29.499Z</time>
      </trkpt>
      <trkpt lat="45.62553" lon="3.32029">
        <ele>547.63098144531</ele>
        <time>2020-05-23T21:02:37.563Z</time>
      </trkpt>
      <trkpt lat="45.62583" lon="3.31908">
        <ele>548.64337158203</ele>
        <time>2020-05-23T21:02:45.642Z</time>
      </trkpt>
      <trkpt lat="45.62575" lon="3.31657">
        <ele>555.08020019531</ele>
        <time>2020-05-23T21:02:53.749Z</time>
      </trkpt>
      <trkpt lat="45.62534" lon="3.31534">
        <ele>560.35345458984</ele>
        <time>2020-05-23T21:03:01.871Z</time>
      </trkpt>
      <trkpt lat="45.62529" lon="3.31484">
        <ele>562.01165771484</ele>
        <time>2020-05-23T21:03:09.999Z</time>
      </trkpt>
      <trkpt lat="45.6253" lon="3.31427">
        <ele>562.74371337891</ele>
        <time>2020-05-23T21:03:18.133Z</time>
      </trkpt>
      <trkpt lat="45.62515" lon="3.31435">
        <ele>564.76635742188</ele>
        <time>2020-05-23T21:03:26.270Z</time>
      </trkpt>
      <trkpt lat="45.62489" lon="3.31481">
        <ele>567.85888671875</ele>
        <time>2020-05-23T21:03:34.414Z</time>
      </trkpt>
      <trkpt lat="45.6246" lon="3.31625">
        <ele>571.51306152344</ele>
        <time>2020-05-23T21:03:42.574Z</time>
      </trkpt>
      <trkpt lat="45.62391" lon="3.31873">
        <ele>574.66778564453</ele>
        <time>2020-05-23T21:03:50.764Z</time>
      </trkpt>
      <trkpt lat="45.62291" lon="3.32046">
        <ele>582.52337646484</ele>
        <time>2020-05-23T21:03:58.980Z</time>
      </trkpt>
      <trkpt lat="45.62167" lon="3.32152">
        <ele>584.55017089844</ele>
        <time>2020-05-23T21:04:07.219Z</time>
      </trkpt>
      <trkpt lat="45.62025" lon="3.32191">
        <ele>588.6533203125</ele>
        <time>2020-05-23T21:04:15.481Z</time>
      </trkpt>
      <trkpt lat="45.61997" lon="3.32186">
        <ele>590.22375488281</ele>
        <time>2020-05-23T21:04:23.747Z</time>
      </trkpt>
      <trkpt lat="45.61866" lon="3.32102">
        <ele>592.73059082031</ele>
        <time>2020-05-23T21:04:32.036Z</time>
      </trkpt>
      <trkpt lat="45.61809" lon="3.32109">
        <ele>594.91400146484</ele>
        <time>2020-05-23T21:04:40.335Z</time>
      </trkpt>
      <trkpt lat="45.61809" lon="3.32109">
        <ele>594.91412353516</ele>
        <time>2020-05-23T21:04:48.634Z</time>
      </trkpt>
      <trkpt lat="45.61663" lon="3.32193">
        <ele>597.64965820312</ele>
        <time>2020-05-23T21:04:56.958Z</time>
      </trkpt>
      <trkpt lat="45.61492" lon="3.3227">
        <ele>600.34405517578</ele>
        <time>2020-05-23T21:05:05.310Z</time>
      </trkpt>
      <trkpt lat="45.61398" lon="3.32275">
        <ele>603.70013427734</ele>
        <time>2020-05-23T21:05:13.677Z</time>
      </trkpt>
      <trkpt lat="45.61308" lon="3.32255">
        <ele>607.41229248047</ele>
        <time>2020-05-23T21:05:22.059Z</time>
      </trkpt>
      <trkpt lat="45.61173" lon="3.32296">
        <ele>604.61590576172</ele>
        <time>2020-05-23T21:05:30.463Z</time>
      </trkpt>
      <trkpt lat="45.61127" lon="3.32281">
        <ele>606.16546630859</ele>
        <time>2020-05-23T21:05:38.875Z</time>
      </trkpt>
      <trkpt lat="45.61068" lon="3.32289">
        <ele>604.28302001953</ele>
        <time>2020-05-23T21:05:47.296Z</time>
      </trkpt>
      <trkpt lat="45.60992" lon="3.32246">
        <ele>608.17633056641</ele>
        <time>2020-05-23T21:05:55.730Z</time>
      </trkpt>
      <trkpt lat="45.6093" lon="3.32192">
        <ele>609.83227539062</ele>
        <time>2020-05-23T21:06:04.176Z</time>
      </trkpt>
      <trkpt lat="45.60816" lon="3.32018">
        <ele>610.57733154297</ele>
        <time>2020-05-23T21:06:12.649Z</time>
      </trkpt>
      <trkpt lat="45.60782" lon="3.32">
        <ele>608.69689941406</ele>
        <time>2020-05-23T21:06:21.127Z</time>
      </trkpt>
      <trkpt lat="45.60782" lon="3.32">
        <ele>608.69622802734</ele>
        <time>2020-05-23T21:06:29.605Z</time>
      </trkpt>
      <trkpt lat="45.60752" lon="3.31983">
        <ele>607.82086181641</ele>
        <time>2020-05-23T21:06:38.089Z</time>
      </trkpt>
      <trkpt lat="45.60752" lon="3.31983">
        <ele>607.82061767578</ele>
        <time>2020-05-23T21:06:46.573Z</time>
      </trkpt>
      <trkpt lat="45.60751" lon="3.31982">
        <ele>607.78955078125</ele>
        <time>2020-05-23T21:06:55.057Z</time>
      </trkpt>
      <trkpt lat="45.60751" lon="3.31982">
        <ele>607.78814697266</ele>
        <time>2020-05-23T21:07:03.541Z</time>
      </trkpt>
      <trkpt lat="45.60751" lon="3.31982">
        <ele>607.78820800781</ele>
        <time>2020-05-23T21:07:12.025Z</time>
      </trkpt>
      <trkpt lat="45.60727" lon="3.31968">
        <ele>607.08715820312</ele>
        <time>2020-05-23T21:07:20.513Z</time>
      </trkpt>
      <trkpt lat="45.60682" lon="3.31887">
        <ele>610.86853027344</ele>
        <time>2020-05-23T21:07:29.013Z</time>
      </trkpt>
      <trkpt lat="45.60625" lon="3.31867">
        <ele>606.72613525391</ele>
        <time>2020-05-23T21:07:37.522Z</time>
      </trkpt>
      <trkpt lat="45.60579" lon="3.31827">
        <ele>605.23553466797</ele>
        <time>2020-05-23T21:07:46.040Z</time>
      </trkpt>
      <trkpt lat="45.60502" lon="3.31589">
        <ele>602.25061035156</ele>
        <time>2020-05-23T21:07:54.587Z</time>
      </trkpt>
      <trkpt lat="45.60486" lon="3.31462">
        <ele>594.87585449219</ele>
        <time>2020-05-23T21:08:03.148Z</time>
      </trkpt>
      <trkpt lat="45.60482" lon="3.3142">
        <ele>592.82781982422</ele>
        <time>2020-05-23T21:08:11.714Z</time>
      </trkpt>
      <trkpt lat="45.60461" lon="3.31238">
        <ele>592.64288330078</ele>
        <time>2020-05-23T21:08:20.301Z</time>
      </trkpt>
      <trkpt lat="45.60347" lon="3.30741">
        <ele>575.90393066406</ele>
        <time>2020-05-23T21:08:28.947Z</time>
      </trkpt>
      <trkpt lat="45.60347" lon="3.30741">
        <ele>575.90277099609</ele>
        <time>2020-05-23T21:08:37.593Z</time>
      </trkpt>
      <trkpt lat="45.6033" lon="3.30671">
        <ele>574.12237548828</ele>
        <time>2020-05-23T21:08:46.247Z</time>
      </trkpt>
      <trkpt lat="45.60278" lon="3.30574">
        <ele>568.54425048828</ele>
        <time>2020-05-23T21:08:54.915Z</time>
      </trkpt>
      <trkpt lat="45.60153" lon="3.30384">
        <ele>566.42602539062</ele>
        <time>2020-05-23T21:09:03.612Z</time>
      </trkpt>
      <trkpt lat="45.60123" lon="3.30347">
        <ele>566.82507324219</ele>
        <time>2020-05-23T21:09:12.315Z</time>
      </trkpt>
      <trkpt lat="45.601" lon="3.30332">
        <ele>567.72784423828</ele>
        <time>2020-05-23T21:09:21.022Z</time>
      </trkpt>
      <trkpt lat="45.6" lon="3.30288">
        <ele>566.40924072266</ele>
        <time>2020-05-23T21:09:29.746Z</time>
      </trkpt>
      <trkpt lat="45.6" lon="3.30288">
        <ele>566.40826416016</ele>
        <time>2020-05-23T21:09:38.470Z</time>
      </trkpt>
      <trkpt lat="45.59997" lon="3.30287">
        <ele>566.31677246094</ele>
        <time>2020-05-23T21:09:47.195Z</time>
      </trkpt>
      <trkpt lat="45.59997" lon="3.30287">
        <ele>566.31671142578</ele>
        <time>2020-05-23T21:09:55.920Z</time>
      </trkpt>
      <trkpt lat="45.59996" lon="3.30286">
        <ele>566.28576660156</ele>
        <time>2020-05-23T21:10:04.645Z</time>
      </trkpt>
      <trkpt lat="45.59996" lon="3.30286">
        <ele>566.28424072266</ele>
        <time>2020-05-23T21:10:13.370Z</time>
      </trkpt>
      <trkpt lat="45.59996" lon="3.30286">
        <ele>566.28131103516</ele>
        <time>2020-05-23T21:10:22.095Z</time>
      </trkpt>
      <trkpt lat="45.59914" lon="3.30252">
        <ele>563.99822998047</ele>
        <time>2020-05-23T21:10:30.834Z</time>
      </trkpt>
      <trkpt lat="45.59877" lon="3.30225">
        <ele>561.82818603516</ele>
        <time>2020-05-23T21:10:39.579Z</time>
      </trkpt>
      <trkpt lat="45.59836" lon="3.30157">
        <ele>559.63641357422</ele>
        <time>2020-05-23T21:10:48.334Z</time>
      </trkpt>
      <trkpt lat="45.5982" lon="3.30061">
        <ele>560.2373046875</ele>
        <time>2020-05-23T21:10:57.100Z</time>
      </trkpt>
      <trkpt lat="45.59808" lon="3.29872">
        <ele>558.90734863281</ele>
        <time>2020-05-23T21:11:05.888Z</time>
      </trkpt>
      <trkpt lat="45.59797" lon="3.29896">
        <ele>559.44555664062</ele>
        <time>2020-05-23T21:11:14.679Z</time>
      </trkpt>
      <trkpt lat="45.59787" lon="3.29905">
        <ele>560.29071044922</ele>
        <time>2020-05-23T21:11:23.472Z</time>
      </trkpt>
      <trkpt lat="45.59786" lon="3.29906">
        <ele>560.36981201172</ele>
        <time>2020-05-23T21:11:32.265Z</time>
      </trkpt>
      <trkpt lat="45.59786" lon="3.29906">
        <ele>560.37463378906</ele>
        <time>2020-05-23T21:11:41.058Z</time>
      </trkpt>
      <trkpt lat="45.59786" lon="3.29906">
        <ele>560.37554931641</ele>
        <time>2020-05-23T21:11:49.851Z</time>
      </trkpt>
      <trkpt lat="45.59786" lon="3.29906">
        <ele>560.37463378906</ele>
        <time>2020-05-23T21:11:58.644Z</time>
      </trkpt>
      <trkpt lat="45.59756" lon="3.29932">
        <ele>558.37030029297</ele>
        <time>2020-05-23T21:12:07.443Z</time>
      </trkpt>
      <trkpt lat="45.59668" lon="3.29973">
        <ele>555.15057373047</ele>
        <time>2020-05-23T21:12:16.257Z</time>
      </trkpt>
      <trkpt lat="45.59668" lon="3.29973">
        <ele>555.14526367188</ele>
        <time>2020-05-23T21:12:25.071Z</time>
      </trkpt>
      <trkpt lat="45.59667" lon="3.29974">
        <ele>554.99975585938</ele>
        <time>2020-05-23T21:12:33.885Z</time>
      </trkpt>
      <trkpt lat="45.59666" lon="3.29974">
        <ele>554.98193359375</ele>
        <time>2020-05-23T21:12:42.699Z</time>
      </trkpt>
      <trkpt lat="45.59666" lon="3.29974">
        <ele>554.98254394531</ele>
        <time>2020-05-23T21:12:51.513Z</time>
      </trkpt>
      <trkpt lat="45.59661" lon="3.29976">
        <ele>554.23132324219</ele>
        <time>2020-05-23T21:13:00.328Z</time>
      </trkpt>
      <trkpt lat="45.5964" lon="3.29983">
        <ele>551.75982666016</ele>
        <time>2020-05-23T21:13:09.146Z</time>
      </trkpt>
      <trkpt lat="45.59623" lon="3.29986">
        <ele>549.99859619141</ele>
        <time>2020-05-23T21:13:17.967Z</time>
      </trkpt>
      <trkpt lat="45.59606" lon="3.30012">
        <ele>545.17205810547</ele>
        <time>2020-05-23T21:13:26.792Z</time>
      </trkpt>
      <trkpt lat="45.59646" lon="3.30159">
        <ele>538.20971679688</ele>
        <time>2020-05-23T21:13:35.634Z</time>
      </trkpt>
      <trkpt lat="45.59655" lon="3.30221">
        <ele>535.19757080078</ele>
        <time>2020-05-23T21:13:44.484Z</time>
      </trkpt>
      <trkpt lat="45.59643" lon="3.30281">
        <ele>530.92797851562</ele>
        <time>2020-05-23T21:13:53.341Z</time>
      </trkpt>
      <trkpt lat="45.59642" lon="3.30285">
        <ele>530.6962890625</ele>
        <time>2020-05-23T21:14:02.198Z</time>
      </trkpt>
      <trkpt lat="45.59597" lon="3.30561">
        <ele>507.03219604492</ele>
        <time>2020-05-23T21:14:11.087Z</time>
      </trkpt>
      <trkpt lat="45.59589" lon="3.30574">
        <ele>506.86486816406</ele>
        <time>2020-05-23T21:14:19.978Z</time>
      </trkpt>
      <trkpt lat="45.59538" lon="3.30609">
        <ele>506.07675170898</ele>
        <time>2020-05-23T21:14:28.878Z</time>
      </trkpt>
      <trkpt lat="45.5953" lon="3.30634">
        <ele>503.96566772461</ele>
        <time>2020-05-23T21:14:37.781Z</time>
      </trkpt>
      <trkpt lat="45.59519" lon="3.30752">
        <ele>496.42065429688</ele>
        <time>2020-05-23T21:14:46.697Z</time>
      </trkpt>
      <trkpt lat="45.59533" lon="3.30781">
        <ele>494.75595092773</ele>
        <time>2020-05-23T21:14:55.617Z</time>
      </trkpt>
      <trkpt lat="45.59533" lon="3.30781">
        <ele>494.75595092773</ele>
        <time>2020-05-23T21:15:04.537Z</time>
      </trkpt>
      <trkpt lat="45.59549" lon="3.30783">
        <ele>494.60147094727</ele>
        <time>2020-05-23T21:15:13.460Z</time>
      </trkpt>
      <trkpt lat="45.5959" lon="3.3075">
        <ele>494.85403442383</ele>
        <time>2020-05-23T21:15:22.390Z</time>
      </trkpt>
      <trkpt lat="45.59617" lon="3.30741">
        <ele>493.80816650391</ele>
        <time>2020-05-23T21:15:31.325Z</time>
      </trkpt>
      <trkpt lat="45.59641" lon="3.30745">
        <ele>492.20251464844</ele>
        <time>2020-05-23T21:15:40.264Z</time>
      </trkpt>
      <trkpt lat="45.59658" lon="3.30766">
        <ele>492.41674804688</ele>
        <time>2020-05-23T21:15:49.206Z</time>
      </trkpt>
      <trkpt lat="45.59663" lon="3.30785">
        <ele>493.20196533203</ele>
        <time>2020-05-23T21:15:58.150Z</time>
      </trkpt>
      <trkpt lat="45.59659" lon="3.30826">
        <ele>492.07330322266</ele>
        <time>2020-05-23T21:16:07.099Z</time>
      </trkpt>
      <trkpt lat="45.59651" lon="3.30843">
        <ele>490.84948730469</ele>
        <time>2020-05-23T21:16:16.050Z</time>
      </trkpt>
      <trkpt lat="45.59584" lon="3.30913">
        <ele>487.94616699219</ele>
        <time>2020-05-23T21:16:25.015Z</time>
      </trkpt>
      <trkpt lat="45.59515" lon="3.31015">
        <ele>480.7887878418</ele>
        <time>2020-05-23T21:16:33.996Z</time>
      </trkpt>
      <trkpt lat="45.59482" lon="3.31187">
        <ele>473.52816772461</ele>
        <time>2020-05-23T21:16:42.997Z</time>
      </trkpt>
      <trkpt lat="45.59466" lon="3.31234">
        <ele>472.54452514648</ele>
        <time>2020-05-23T21:16:52.004Z</time>
      </trkpt>
      <trkpt lat="45.59426" lon="3.31259">
        <ele>469.59896850586</ele>
        <time>2020-05-23T21:17:01.017Z</time>
      </trkpt>
      <trkpt lat="45.59371" lon="3.31268">
        <ele>465.60952758789</ele>
        <time>2020-05-23T21:17:10.039Z</time>
      </trkpt>
      <trkpt lat="45.59356" lon="3.3128">
        <ele>465.35208129883</ele>
        <time>2020-05-23T21:17:19.064Z</time>
      </trkpt>
      <trkpt lat="45.5932" lon="3.31341">
        <ele>462.6708984375</ele>
        <time>2020-05-23T21:17:28.098Z</time>
      </trkpt>
      <trkpt lat="45.59295" lon="3.31383">
        <ele>460.60806274414</ele>
        <time>2020-05-23T21:17:37.138Z</time>
      </trkpt>
      <trkpt lat="45.5924" lon="3.31423">
        <ele>455.3678894043</ele>
        <time>2020-05-23T21:17:46.188Z</time>
      </trkpt>
      <trkpt lat="45.59189" lon="3.31457">
        <ele>451.34350585938</ele>
        <time>2020-05-23T21:17:55.247Z</time>
      </trkpt>
      <trkpt lat="45.5917" lon="3.31478">
        <ele>450.74337768555</ele>
        <time>2020-05-23T21:18:04.310Z</time>
      </trkpt>
      <trkpt lat="45.59158" lon="3.31504">
        <ele>451.33551025391</ele>
        <time>2020-05-23T21:18:13.377Z</time>
      </trkpt>
      <trkpt lat="45.59143" lon="3.31611">
        <ele>449.75247192383</ele>
        <time>2020-05-23T21:18:22.456Z</time>
      </trkpt>
      <trkpt lat="45.59131" lon="3.3164">
        <ele>449.20303344727</ele>
        <time>2020-05-23T21:18:31.539Z</time>
      </trkpt>
      <trkpt lat="45.59113" lon="3.31662">
        <ele>449.73992919922</ele>
        <time>2020-05-23T21:18:40.625Z</time>
      </trkpt>
      <trkpt lat="45.59081" lon="3.31679">
        <ele>450.66635131836</ele>
        <time>2020-05-23T21:18:49.717Z</time>
      </trkpt>
      <trkpt lat="45.59004" lon="3.31716">
        <ele>448.27359008789</ele>
        <time>2020-05-23T21:18:58.822Z</time>
      </trkpt>
      <trkpt lat="45.58451" lon="3.32463">
        <ele>430.20715332031</ele>
        <time>2020-05-23T21:19:08.049Z</time>
      </trkpt>
      <trkpt lat="45.58451" lon="3.32463">
        <ele>430.20755004883</ele>
        <time>2020-05-23T21:19:17.276Z</time>
      </trkpt>
      <trkpt lat="45.58433" lon="3.32568">
        <ele>424.9775390625</ele>
        <time>2020-05-23T21:19:26.515Z</time>
      </trkpt>
      <trkpt lat="45.58433" lon="3.32574">
        <ele>424.84878540039</ele>
        <time>2020-05-23T21:19:35.755Z</time>
      </trkpt>
      <trkpt lat="45.58417" lon="3.3271">
        <ele>422.88024902344</ele>
        <time>2020-05-23T21:19:45.010Z</time>
      </trkpt>
      <trkpt lat="45.58409" lon="3.32746">
        <ele>423</ele>
        <time>2020-05-23T21:19:54.269Z</time>
      </trkpt>
      <trkpt lat="45.5838" lon="3.32804">
        <ele>422.26480102539</ele>
        <time>2020-05-23T21:20:03.536Z</time>
      </trkpt>
      <trkpt lat="45.5828" lon="3.3283">
        <ele>422.16159057617</ele>
        <time>2020-05-23T21:20:12.820Z</time>
      </trkpt>
      <trkpt lat="45.5824" lon="3.32879">
        <ele>423.75799560547</ele>
        <time>2020-05-23T21:20:22.112Z</time>
      </trkpt>
      <trkpt lat="45.58122" lon="3.32976">
        <ele>420.6510925293</ele>
        <time>2020-05-23T21:20:31.426Z</time>
      </trkpt>
      <trkpt lat="45.58101" lon="3.32977">
        <ele>421.26898193359</ele>
        <time>2020-05-23T21:20:40.743Z</time>
      </trkpt>
      <trkpt lat="45.5807" lon="3.32941">
        <ele>418.51428222656</ele>
        <time>2020-05-23T21:20:50.067Z</time>
      </trkpt>
      <trkpt lat="45.58031" lon="3.32917">
        <ele>418.0915222168</ele>
        <time>2020-05-23T21:20:59.397Z</time>
      </trkpt>
      <trkpt lat="45.57952" lon="3.32886">
        <ele>417.29507446289</ele>
        <time>2020-05-23T21:21:08.741Z</time>
      </trkpt>
      <trkpt lat="45.57881" lon="3.3292">
        <ele>413.40344238281</ele>
        <time>2020-05-23T21:21:18.097Z</time>
      </trkpt>
      <trkpt lat="45.57864" lon="3.32916">
        <ele>412.92620849609</ele>
        <time>2020-05-23T21:21:27.455Z</time>
      </trkpt>
      <trkpt lat="45.57819" lon="3.32874">
        <ele>412.88760375977</ele>
        <time>2020-05-23T21:21:36.822Z</time>
      </trkpt>
      <trkpt lat="45.57786" lon="3.32864">
        <ele>412.41445922852</ele>
        <time>2020-05-23T21:21:46.194Z</time>
      </trkpt>
      <trkpt lat="45.57767" lon="3.32873">
        <ele>411.87380981445</ele>
        <time>2020-05-23T21:21:55.570Z</time>
      </trkpt>
      <trkpt lat="45.57717" lon="3.32972">
        <ele>408.87432861328</ele>
        <time>2020-05-23T21:22:04.959Z</time>
      </trkpt>
      <trkpt lat="45.57697" lon="3.32983">
        <ele>408.78421020508</ele>
        <time>2020-05-23T21:22:14.352Z</time>
      </trkpt>
      <trkpt lat="45.57662" lon="3.32981">
        <ele>404.84564208984</ele>
        <time>2020-05-23T21:22:23.750Z</time>
      </trkpt>
      <trkpt lat="45.57663" lon="3.32878">
        <ele>404.22100830078</ele>
        <time>2020-05-23T21:22:33.160Z</time>
      </trkpt>
      <trkpt lat="45.57639" lon="3.32773">
        <ele>409.65676879883</ele>
        <time>2020-05-23T21:22:42.582Z</time>
      </trkpt>
      <trkpt lat="45.57626" lon="3.32755">
        <ele>409.77932739258</ele>
        <time>2020-05-23T21:22:52.007Z</time>
      </trkpt>
      <trkpt lat="45.57484" lon="3.32625">
        <ele>402.3503112793</ele>
        <time>2020-05-23T21:23:01.459Z</time>
      </trkpt>
      <trkpt lat="45.57453" lon="3.32579">
        <ele>399.54711914062</ele>
        <time>2020-05-23T21:23:10.918Z</time>
      </trkpt>
      <trkpt lat="45.57444" lon="3.3255">
        <ele>397.60336303711</ele>
        <time>2020-05-23T21:23:20.381Z</time>
      </trkpt>
      <trkpt lat="45.57447" lon="3.32517">
        <ele>395.65963745117</ele>
        <time>2020-05-23T21:23:29.848Z</time>
      </trkpt>
      <trkpt lat="45.57457" lon="3.32498">
        <ele>396.33178710938</ele>
        <time>2020-05-23T21:23:39.317Z</time>
      </trkpt>
      <trkpt lat="45.57551" lon="3.32437">
        <ele>396.56790161133</ele>
        <time>2020-05-23T21:23:48.803Z</time>
      </trkpt>
      <trkpt lat="45.57565" lon="3.32413">
        <ele>396.15072631836</ele>
        <time>2020-05-23T21:23:58.292Z</time>
      </trkpt>
      <trkpt lat="45.57613" lon="3.32276">
        <ele>392.19223022461</ele>
        <time>2020-05-23T21:24:07.798Z</time>
      </trkpt>
      <trkpt lat="45.57617" lon="3.32218">
        <ele>391.89233398438</ele>
        <time>2020-05-23T21:24:17.311Z</time>
      </trkpt>
      <trkpt lat="45.57617" lon="3.32217">
        <ele>391.91564941406</ele>
        <time>2020-05-23T21:24:26.824Z</time>
      </trkpt>
      <trkpt lat="45.57617" lon="3.32217">
        <ele>391.91604614258</ele>
        <time>2020-05-23T21:24:36.337Z</time>
      </trkpt>
      <trkpt lat="45.57618" lon="3.32193">
        <ele>392.25839233398</ele>
        <time>2020-05-23T21:24:45.853Z</time>
      </trkpt>
      <trkpt lat="45.57604" lon="3.31817">
        <ele>399.62710571289</ele>
        <time>2020-05-23T21:24:55.411Z</time>
      </trkpt>
      <trkpt lat="45.57604" lon="3.31817">
        <ele>399.62728881836</ele>
        <time>2020-05-23T21:25:04.969Z</time>
      </trkpt>
      <trkpt lat="45.57597" lon="3.31625">
        <ele>407.13562011719</ele>
        <time>2020-05-23T21:25:14.549Z</time>
      </trkpt>
      <trkpt lat="45.57586" lon="3.31569">
        <ele>409.23028564453</ele>
        <time>2020-05-23T21:25:24.135Z</time>
      </trkpt>
      <trkpt lat="45.57523" lon="3.31449">
        <ele>415.89590454102</ele>
        <time>2020-05-23T21:25:33.738Z</time>
      </trkpt>
      <trkpt lat="45.57445" lon="3.31364">
        <ele>418.4482421875</ele>
        <time>2020-05-23T21:25:43.357Z</time>
      </trkpt>
      <trkpt lat="45.57418" lon="3.3129">
        <ele>422.64868164062</ele>
        <time>2020-05-23T21:25:52.985Z</time>
      </trkpt>
      <trkpt lat="45.57375" lon="3.31251">
        <ele>423.6526184082</ele>
        <time>2020-05-23T21:26:02.621Z</time>
      </trkpt>
      <trkpt lat="45.57335" lon="3.31234">
        <ele>424.91369628906</ele>
        <time>2020-05-23T21:26:12.264Z</time>
      </trkpt>
      <trkpt lat="45.57304" lon="3.31219">
        <ele>426.02053833008</ele>
        <time>2020-05-23T21:26:21.912Z</time>
      </trkpt>
      <trkpt lat="45.57296" lon="3.31217">
        <ele>425.9875793457</ele>
        <time>2020-05-23T21:26:31.562Z</time>
      </trkpt>
      <trkpt lat="45.57288" lon="3.31217">
        <ele>425.78182983398</ele>
        <time>2020-05-23T21:26:41.213Z</time>
      </trkpt>
      <trkpt lat="45.57273" lon="3.31215">
        <ele>425.47286987305</ele>
        <time>2020-05-23T21:26:50.866Z</time>
      </trkpt>
      <trkpt lat="45.5727" lon="3.3121">
        <ele>425.52438354492</ele>
        <time>2020-05-23T21:27:00.520Z</time>
      </trkpt>
      <trkpt lat="45.57252" lon="3.31138">
        <ele>426.81530761719</ele>
        <time>2020-05-23T21:27:10.183Z</time>
      </trkpt>
      <trkpt lat="45.57251" lon="3.31137">
        <ele>426.84298706055</ele>
        <time>2020-05-23T21:27:19.846Z</time>
      </trkpt>
      <trkpt lat="45.57251" lon="3.31137">
        <ele>426.84259033203</ele>
        <time>2020-05-23T21:27:29.509Z</time>
      </trkpt>
      <trkpt lat="45.57249" lon="3.31128">
        <ele>426.99182128906</ele>
        <time>2020-05-23T21:27:39.173Z</time>
      </trkpt>
      <trkpt lat="45.57248" lon="3.31125">
        <ele>427.06466674805</ele>
        <time>2020-05-23T21:27:48.837Z</time>
      </trkpt>
      <trkpt lat="45.57205" lon="3.31127">
        <ele>425.65435791016</ele>
        <time>2020-05-23T21:27:58.508Z</time>
      </trkpt>
      <trkpt lat="45.57148" lon="3.31132">
        <ele>422.82202148438</ele>
        <time>2020-05-23T21:28:08.188Z</time>
      </trkpt>
      <trkpt lat="45.56912" lon="3.31221">
        <ele>410.88110351562</ele>
        <time>2020-05-23T21:28:17.907Z</time>
      </trkpt>
      <trkpt lat="45.56803" lon="3.31221">
        <ele>408.08688354492</ele>
        <time>2020-05-23T21:28:27.644Z</time>
      </trkpt>
      <trkpt lat="45.56722" lon="3.31221">
        <ele>405.6220703125</ele>
        <time>2020-05-23T21:28:37.394Z</time>
      </trkpt>
      <trkpt lat="45.56713" lon="3.3122">
        <ele>405.34094238281</ele>
        <time>2020-05-23T21:28:47.145Z</time>
      </trkpt>
      <trkpt lat="45.56699" lon="3.31214">
        <ele>404.90325927734</ele>
        <time>2020-05-23T21:28:56.899Z</time>
      </trkpt>
      <trkpt lat="45.56575" lon="3.31142">
        <ele>403.65383911133</ele>
        <time>2020-05-23T21:29:06.674Z</time>
      </trkpt>
      <trkpt lat="45.56304" lon="3.31058">
        <ele>404.85305786133</ele>
        <time>2020-05-23T21:29:16.493Z</time>
      </trkpt>
      <trkpt lat="45.56304" lon="3.31058">
        <ele>404.85296630859</ele>
        <time>2020-05-23T21:29:26.312Z</time>
      </trkpt>
      <trkpt lat="45.56211" lon="3.31068">
        <ele>403.76840209961</ele>
        <time>2020-05-23T21:29:36.146Z</time>
      </trkpt>
      <trkpt lat="45.56075" lon="3.3102">
        <ele>399.85385131836</ele>
        <time>2020-05-23T21:29:46.003Z</time>
      </trkpt>
      <trkpt lat="45.56041" lon="3.31016">
        <ele>398.1452331543</ele>
        <time>2020-05-23T21:29:55.865Z</time>
      </trkpt>
      <trkpt lat="45.55855" lon="3.31024">
        <ele>390.39373779297</ele>
        <time>2020-05-23T21:30:05.757Z</time>
      </trkpt>
      <trkpt lat="45.55585" lon="3.31084">
        <ele>385.55841064453</ele>
        <time>2020-05-23T21:30:15.693Z</time>
      </trkpt>
      <trkpt lat="45.55552" lon="3.31094">
        <ele>385.04360961914</ele>
        <time>2020-05-23T21:30:25.634Z</time>
      </trkpt>
      <trkpt lat="45.55476" lon="3.31096">
        <ele>383.20764160156</ele>
        <time>2020-05-23T21:30:35.587Z</time>
      </trkpt>
      <trkpt lat="45.55327" lon="3.31047">
        <ele>382.21325683594</ele>
        <time>2020-05-23T21:30:45.565Z</time>
      </trkpt>
      <trkpt lat="45.55308" lon="3.31042">
        <ele>381.83996582031</ele>
        <time>2020-05-23T21:30:55.546Z</time>
      </trkpt>
      <trkpt lat="45.55283" lon="3.30984">
        <ele>382.71951293945</ele>
        <time>2020-05-23T21:31:05.535Z</time>
      </trkpt>
      <trkpt lat="45.55273" lon="3.30967">
        <ele>383.10571289062</ele>
        <time>2020-05-23T21:31:15.526Z</time>
      </trkpt>
      <trkpt lat="45.55261" lon="3.30954">
        <ele>383.44039916992</ele>
        <time>2020-05-23T21:31:25.519Z</time>
      </trkpt>
      <trkpt lat="45.55252" lon="3.30942">
        <ele>383.72357177734</ele>
        <time>2020-05-23T21:31:35.514Z</time>
      </trkpt>
      <trkpt lat="45.55215" lon="3.31001">
        <ele>382.27536010742</ele>
        <time>2020-05-23T21:31:45.518Z</time>
      </trkpt>
      <trkpt lat="45.55201" lon="3.31026">
        <ele>381.50622558594</ele>
        <time>2020-05-23T21:31:55.526Z</time>
      </trkpt>
      <trkpt lat="45.55201" lon="3.31027">
        <ele>381.46279907227</ele>
        <time>2020-05-23T21:32:05.534Z</time>
      </trkpt>
      <trkpt lat="45.55201" lon="3.31027">
        <ele>381.46322631836</ele>
        <time>2020-05-23T21:32:15.542Z</time>
      </trkpt>
      <trkpt lat="45.55201" lon="3.31028">
        <ele>381.45916748047</ele>
        <time>2020-05-23T21:32:25.550Z</time>
      </trkpt>
      <trkpt lat="45.55201" lon="3.31028">
        <ele>381.45846557617</ele>
        <time>2020-05-23T21:32:35.558Z</time>
      </trkpt>
      <trkpt lat="45.55191" lon="3.31045">
        <ele>380.93661499023</ele>
        <time>2020-05-23T21:32:45.568Z</time>
      </trkpt>
      <trkpt lat="45.55165" lon="3.31096">
        <ele>378.74975585938</ele>
        <time>2020-05-23T21:32:55.586Z</time>
      </trkpt>
      <trkpt lat="45.55151" lon="3.31124">
        <ele>377.86877441406</ele>
        <time>2020-05-23T21:33:05.607Z</time>
      </trkpt>
      <trkpt lat="45.55159" lon="3.3114">
        <ele>377.77865600586</ele>
        <time>2020-05-23T21:33:15.631Z</time>
      </trkpt>
      <trkpt lat="45.55202" lon="3.31167">
        <ele>377.97177124023</ele>
        <time>2020-05-23T21:33:25.662Z</time>
      </trkpt>
      <trkpt lat="45.55212" lon="3.31192">
        <ele>378.20401000977</ele>
        <time>2020-05-23T21:33:35.696Z</time>
      </trkpt>
      <trkpt lat="45.5521" lon="3.31318">
        <ele>380.46301269531</ele>
        <time>2020-05-23T21:33:45.745Z</time>
      </trkpt>
      <trkpt lat="45.55202" lon="3.31347">
        <ele>381.20281982422</ele>
        <time>2020-05-23T21:33:55.797Z</time>
      </trkpt>
      <trkpt lat="45.55154" lon="3.31408">
        <ele>384.71688842773</ele>
        <time>2020-05-23T21:34:05.859Z</time>
      </trkpt>
      <trkpt lat="45.55151" lon="3.31414">
        <ele>385.0129699707</ele>
        <time>2020-05-23T21:34:15.922Z</time>
      </trkpt>
      <trkpt lat="45.55133" lon="3.31447">
        <ele>387.19616699219</ele>
        <time>2020-05-23T21:34:25.990Z</time>
      </trkpt>
      <trkpt lat="45.55109" lon="3.31523">
        <ele>391.61672973633</ele>
        <time>2020-05-23T21:34:36.067Z</time>
      </trkpt>
      <trkpt lat="45.55081" lon="3.31669">
        <ele>393.80725097656</ele>
        <time>2020-05-23T21:34:46.161Z</time>
      </trkpt>
      <trkpt lat="45.55038" lon="3.31812">
        <ele>393.42156982422</ele>
        <time>2020-05-23T21:34:56.273Z</time>
      </trkpt>
      <trkpt lat="45.55038" lon="3.31812">
        <ele>393.42147827148</ele>
        <time>2020-05-23T21:35:06.385Z</time>
      </trkpt>
      <trkpt lat="45.54981" lon="3.31907">
        <ele>392.88488769531</ele>
        <time>2020-05-23T21:35:16.511Z</time>
      </trkpt>
      <trkpt lat="45.54855" lon="3.32074">
        <ele>397.51580810547</ele>
        <time>2020-05-23T21:35:26.664Z</time>
      </trkpt>
      <trkpt lat="45.54854" lon="3.32075">
        <ele>397.57144165039</ele>
        <time>2020-05-23T21:35:36.818Z</time>
      </trkpt>
      <trkpt lat="45.54854" lon="3.32075">
        <ele>397.57308959961</ele>
        <time>2020-05-23T21:35:46.972Z</time>
      </trkpt>
      <trkpt lat="45.54855" lon="3.32077">
        <ele>397.62966918945</ele>
        <time>2020-05-23T21:35:57.126Z</time>
      </trkpt>
      <trkpt lat="45.54799" lon="3.32151">
        <ele>402.26043701172</ele>
        <time>2020-05-23T21:36:07.292Z</time>
      </trkpt>
      <trkpt lat="45.54784" lon="3.32181">
        <ele>404.41934204102</ele>
        <time>2020-05-23T21:36:17.462Z</time>
      </trkpt>
      <trkpt lat="45.54744" lon="3.32272">
        <ele>408.24481201172</ele>
        <time>2020-05-23T21:36:27.644Z</time>
      </trkpt>
      <trkpt lat="45.54712" lon="3.32329">
        <ele>411.54769897461</ele>
        <time>2020-05-23T21:36:37.834Z</time>
      </trkpt>
      <trkpt lat="45.547" lon="3.32353">
        <ele>412.41979980469</ele>
        <time>2020-05-23T21:36:48.028Z</time>
      </trkpt>
      <trkpt lat="45.54687" lon="3.32384">
        <ele>412.73175048828</ele>
        <time>2020-05-23T21:36:58.226Z</time>
      </trkpt>
      <trkpt lat="45.54649" lon="3.32544">
        <ele>415.5475769043</ele>
        <time>2020-05-23T21:37:08.443Z</time>
      </trkpt>
      <trkpt lat="45.54614" lon="3.32693">
        <ele>419.08578491211</ele>
        <time>2020-05-23T21:37:18.678Z</time>
      </trkpt>
      <trkpt lat="45.54607" lon="3.32711">
        <ele>420.11761474609</ele>
        <time>2020-05-23T21:37:28.915Z</time>
      </trkpt>
      <trkpt lat="45.54601" lon="3.32722">
        <ele>420.78952026367</ele>
        <time>2020-05-23T21:37:39.153Z</time>
      </trkpt>
      <trkpt lat="45.54578" lon="3.32751">
        <ele>423.7734375</ele>
        <time>2020-05-23T21:37:49.396Z</time>
      </trkpt>
      <trkpt lat="45.54553" lon="3.32781">
        <ele>427.13287353516</ele>
        <time>2020-05-23T21:37:59.645Z</time>
      </trkpt>
      <trkpt lat="45.5454" lon="3.32816">
        <ele>429.49887084961</ele>
        <time>2020-05-23T21:38:09.898Z</time>
      </trkpt>
      <trkpt lat="45.54515" lon="3.32874">
        <ele>434.57775878906</ele>
        <time>2020-05-23T21:38:20.159Z</time>
      </trkpt>
      <trkpt lat="45.54483" lon="3.3294">
        <ele>439.52880859375</ele>
        <time>2020-05-23T21:38:30.429Z</time>
      </trkpt>
      <trkpt lat="45.54449" lon="3.32995">
        <ele>441.76290893555</ele>
        <time>2020-05-23T21:38:40.707Z</time>
      </trkpt>
      <trkpt lat="45.54403" lon="3.33046">
        <ele>444.2492980957</ele>
        <time>2020-05-23T21:38:50.994Z</time>
      </trkpt>
      <trkpt lat="45.54252" lon="3.33218">
        <ele>455.93359375</ele>
        <time>2020-05-23T21:39:01.312Z</time>
      </trkpt>
      <trkpt lat="45.54166" lon="3.33315">
        <ele>459.99301147461</ele>
        <time>2020-05-23T21:39:11.648Z</time>
      </trkpt>
      <trkpt lat="45.54125" lon="3.33365">
        <ele>459.8869934082</ele>
        <time>2020-05-23T21:39:21.992Z</time>
      </trkpt>
      <trkpt lat="45.54108" lon="3.33387">
        <ele>459.53903198242</ele>
        <time>2020-05-23T21:39:32.340Z</time>
      </trkpt>
      <trkpt lat="45.54092" lon="3.33407">
        <ele>460.09045410156</ele>
        <time>2020-05-23T21:39:42.691Z</time>
      </trkpt>
      <trkpt lat="45.54101" lon="3.33434">
        <ele>461.43780517578</ele>
        <time>2020-05-23T21:39:53.046Z</time>
      </trkpt>
      <trkpt lat="45.54107" lon="3.33456">
        <ele>461.62976074219</ele>
        <time>2020-05-23T21:40:03.403Z</time>
      </trkpt>
      <trkpt lat="45.54113" lon="3.33482">
        <ele>461.86972045898</ele>
        <time>2020-05-23T21:40:13.764Z</time>
      </trkpt>
      <trkpt lat="45.54115" lon="3.33503">
        <ele>462.29309082031</ele>
        <time>2020-05-23T21:40:24.127Z</time>
      </trkpt>
      <trkpt lat="45.54114" lon="3.33565">
        <ele>462.72219848633</ele>
        <time>2020-05-23T21:40:34.497Z</time>
      </trkpt>
      <trkpt lat="45.54111" lon="3.33603">
        <ele>463.10690307617</ele>
        <time>2020-05-23T21:40:44.871Z</time>
      </trkpt>
      <trkpt lat="45.54103" lon="3.33643">
        <ele>463.49081420898</ele>
        <time>2020-05-23T21:40:55.250Z</time>
      </trkpt>
      <trkpt lat="45.54089" lon="3.33691">
        <ele>463.37286376953</ele>
        <time>2020-05-23T21:41:05.635Z</time>
      </trkpt>
      <trkpt lat="45.54064" lon="3.33739">
        <ele>463.12091064453</ele>
        <time>2020-05-23T21:41:16.026Z</time>
      </trkpt>
      <trkpt lat="45.54049" lon="3.3376">
        <ele>463.23928833008</ele>
        <time>2020-05-23T21:41:26.421Z</time>
      </trkpt>
      <trkpt lat="45.54028" lon="3.33782">
        <ele>464.4189453125</ele>
        <time>2020-05-23T21:41:36.820Z</time>
      </trkpt>
      <trkpt lat="45.54013" lon="3.33793">
        <ele>465.36679077148</ele>
        <time>2020-05-23T21:41:47.222Z</time>
      </trkpt>
      <trkpt lat="45.54008" lon="3.33796">
        <ele>465.69073486328</ele>
        <time>2020-05-23T21:41:57.625Z</time>
      </trkpt>
      <trkpt lat="45.53927" lon="3.33859">
        <ele>466.79718017578</ele>
        <time>2020-05-23T21:42:08.042Z</time>
      </trkpt>
      <trkpt lat="45.53912" lon="3.33871">
        <ele>467.37307739258</ele>
        <time>2020-05-23T21:42:18.462Z</time>
      </trkpt>
      <trkpt lat="45.53896" lon="3.33887">
        <ele>467.94897460938</ele>
        <time>2020-05-23T21:42:28.885Z</time>
      </trkpt>
      <trkpt lat="45.53891" lon="3.33893">
        <ele>468.11694335938</ele>
        <time>2020-05-23T21:42:39.309Z</time>
      </trkpt>
      <trkpt lat="45.5388" lon="3.33912">
        <ele>468.41690063477</ele>
        <time>2020-05-23T21:42:49.736Z</time>
      </trkpt>
      <trkpt lat="45.53859" lon="3.33965">
        <ele>470.02496337891</ele>
        <time>2020-05-23T21:43:00.170Z</time>
      </trkpt>
      <trkpt lat="45.53851" lon="3.34013">
        <ele>470.79241943359</ele>
        <time>2020-05-23T21:43:10.609Z</time>
      </trkpt>
      <trkpt lat="45.5385" lon="3.34051">
        <ele>471.26028442383</ele>
        <time>2020-05-23T21:43:21.053Z</time>
      </trkpt>
      <trkpt lat="45.53852" lon="3.34073">
        <ele>471.66027832031</ele>
        <time>2020-05-23T21:43:31.499Z</time>
      </trkpt>
      <trkpt lat="45.53875" lon="3.34169">
        <ele>475.7311706543</ele>
        <time>2020-05-23T21:43:41.957Z</time>
      </trkpt>
      <trkpt lat="45.53895" lon="3.34257">
        <ele>479.78701782227</ele>
        <time>2020-05-23T21:43:52.425Z</time>
      </trkpt>
      <trkpt lat="45.53917" lon="3.34353">
        <ele>481.02166748047</ele>
        <time>2020-05-23T21:44:02.904Z</time>
      </trkpt>
      <trkpt lat="45.53923" lon="3.34408">
        <ele>480.92123413086</ele>
        <time>2020-05-23T21:44:13.390Z</time>
      </trkpt>
      <trkpt lat="45.53933" lon="3.34527">
        <ele>483.01168823242</ele>
        <time>2020-05-23T21:44:23.889Z</time>
      </trkpt>
      <trkpt lat="45.53932" lon="3.34536">
        <ele>483.58758544922</ele>
        <time>2020-05-23T21:44:34.389Z</time>
      </trkpt>
      <trkpt lat="45.53933" lon="3.34552">
        <ele>484.5114440918</ele>
        <time>2020-05-23T21:44:44.891Z</time>
      </trkpt>
      <trkpt lat="45.53941" lon="3.3461">
        <ele>486.91937255859</ele>
        <time>2020-05-23T21:44:55.400Z</time>
      </trkpt>
      <trkpt lat="45.53947" lon="3.34628">
        <ele>487.71124267578</ele>
        <time>2020-05-23T21:45:05.911Z</time>
      </trkpt>
      <trkpt lat="45.53931" lon="3.34629">
        <ele>487.95120239258</ele>
        <time>2020-05-23T21:45:16.424Z</time>
      </trkpt>
      <trkpt lat="45.53924" lon="3.34629">
        <ele>488.03518676758</ele>
        <time>2020-05-23T21:45:26.939Z</time>
      </trkpt>
      <trkpt lat="45.53918" lon="3.34624">
        <ele>487.86721801758</ele>
        <time>2020-05-23T21:45:37.455Z</time>
      </trkpt>
      <trkpt lat="45.53906" lon="3.34613">
        <ele>487.48327636719</ele>
        <time>2020-05-23T21:45:47.973Z</time>
      </trkpt>
      <trkpt lat="45.53885" lon="3.34589">
        <ele>486.68466186523</ele>
        <time>2020-05-23T21:45:58.495Z</time>
      </trkpt>
      <trkpt lat="45.53868" lon="3.34561">
        <ele>486.64971923828</ele>
        <time>2020-05-23T21:46:09.021Z</time>
      </trkpt>
      <trkpt lat="45.53852" lon="3.34523">
        <ele>486.24179077148</ele>
        <time>2020-05-23T21:46:19.552Z</time>
      </trkpt>
      <trkpt lat="45.53819" lon="3.34452">
        <ele>487.90069580078</ele>
        <time>2020-05-23T21:46:30.093Z</time>
      </trkpt>
      <trkpt lat="45.53804" lon="3.34426">
        <ele>488.74365234375</ele>
        <time>2020-05-23T21:46:40.638Z</time>
      </trkpt>
      <trkpt lat="45.53782" lon="3.34396">
        <ele>490.1516418457</ele>
        <time>2020-05-23T21:46:51.188Z</time>
      </trkpt>
      <trkpt lat="45.53761" lon="3.3437">
        <ele>491.60339355469</ele>
        <time>2020-05-23T21:47:01.742Z</time>
      </trkpt>
      <trkpt lat="45.5374" lon="3.34348">
        <ele>493.10314941406</ele>
        <time>2020-05-23T21:47:12.300Z</time>
      </trkpt>
      <trkpt lat="45.53705" lon="3.34325">
        <ele>493.36077880859</ele>
        <time>2020-05-23T21:47:22.864Z</time>
      </trkpt>
      <trkpt lat="45.53669" lon="3.34308">
        <ele>491.45169067383</ele>
        <time>2020-05-23T21:47:33.434Z</time>
      </trkpt>
      <trkpt lat="45.53669" lon="3.34308">
        <ele>491.4508972168</ele>
        <time>2020-05-23T21:47:44.004Z</time>
      </trkpt>
      <trkpt lat="45.53668" lon="3.34307">
        <ele>491.38760375977</ele>
        <time>2020-05-23T21:47:54.575Z</time>
      </trkpt>
      <trkpt lat="45.53664" lon="3.34305">
        <ele>491.17715454102</ele>
        <time>2020-05-23T21:48:05.146Z</time>
      </trkpt>
      <trkpt lat="45.53589" lon="3.34271">
        <ele>488.41714477539</ele>
        <time>2020-05-23T21:48:15.730Z</time>
      </trkpt>
      <trkpt lat="45.53503" lon="3.34233">
        <ele>487.42849731445</ele>
        <time>2020-05-23T21:48:26.328Z</time>
      </trkpt>
      <trkpt lat="45.53465" lon="3.34213">
        <ele>487.0823059082</ele>
        <time>2020-05-23T21:48:36.933Z</time>
      </trkpt>
      <trkpt lat="45.53451" lon="3.34206">
        <ele>487.5862121582</ele>
        <time>2020-05-23T21:48:47.540Z</time>
      </trkpt>
      <trkpt lat="45.53417" lon="3.34192">
        <ele>488.80999755859</ele>
        <time>2020-05-23T21:48:58.153Z</time>
      </trkpt>
      <trkpt lat="45.53391" lon="3.34178">
        <ele>489.71347045898</ele>
        <time>2020-05-23T21:49:08.770Z</time>
      </trkpt>
      <trkpt lat="45.5338" lon="3.34169">
        <ele>490.23773193359</ele>
        <time>2020-05-23T21:49:19.389Z</time>
      </trkpt>
      <trkpt lat="45.53365" lon="3.34134">
        <ele>491.2575378418</ele>
        <time>2020-05-23T21:49:30.013Z</time>
      </trkpt>
      <trkpt lat="45.53326" lon="3.34023">
        <ele>492.08190917969</ele>
        <time>2020-05-23T21:49:40.651Z</time>
      </trkpt>
      <trkpt lat="45.53309" lon="3.33973">
        <ele>494.76977539062</ele>
        <time>2020-05-23T21:49:51.295Z</time>
      </trkpt>
      <trkpt lat="45.53296" lon="3.33927">
        <ele>497.57336425781</ele>
        <time>2020-05-23T21:50:01.945Z</time>
      </trkpt>
      <trkpt lat="45.53292" lon="3.339">
        <ele>497.76611328125</ele>
        <time>2020-05-23T21:50:12.598Z</time>
      </trkpt>
      <trkpt lat="45.53285" lon="3.33863">
        <ele>498.24603271484</ele>
        <time>2020-05-23T21:50:23.255Z</time>
      </trkpt>
      <trkpt lat="45.5328" lon="3.33853">
        <ele>498.78594970703</ele>
        <time>2020-05-23T21:50:33.914Z</time>
      </trkpt>
      <trkpt lat="45.53271" lon="3.33845">
        <ele>499.7668762207</ele>
        <time>2020-05-23T21:50:44.574Z</time>
      </trkpt>
      <trkpt lat="45.53261" lon="3.33842">
        <ele>500.90667724609</ele>
        <time>2020-05-23T21:50:55.236Z</time>
      </trkpt>
      <trkpt lat="45.5325" lon="3.33843">
        <ele>502.41842651367</ele>
        <time>2020-05-23T21:51:05.900Z</time>
      </trkpt>
      <trkpt lat="45.53228" lon="3.3385">
        <ele>505.61279296875</ele>
        <time>2020-05-23T21:51:16.567Z</time>
      </trkpt>
      <trkpt lat="45.53212" lon="3.33847">
        <ele>507.61807250977</ele>
        <time>2020-05-23T21:51:27.237Z</time>
      </trkpt>
      <trkpt lat="45.5317" lon="3.33811">
        <ele>511.36145019531</ele>
        <time>2020-05-23T21:51:37.915Z</time>
      </trkpt>
      <trkpt lat="45.53144" lon="3.33785">
        <ele>513.54510498047</ele>
        <time>2020-05-23T21:51:48.598Z</time>
      </trkpt>
      <trkpt lat="45.53135" lon="3.33772">
        <ele>514.15698242188</ele>
        <time>2020-05-23T21:51:59.283Z</time>
      </trkpt>
      <trkpt lat="45.53115" lon="3.33729">
        <ele>514.39660644531</ele>
        <time>2020-05-23T21:52:09.974Z</time>
      </trkpt>
      <trkpt lat="45.53091" lon="3.33683">
        <ele>514.80456542969</ele>
        <time>2020-05-23T21:52:20.671Z</time>
      </trkpt>
      <trkpt lat="45.53069" lon="3.33646">
        <ele>515.48840332031</ele>
        <time>2020-05-23T21:52:31.374Z</time>
      </trkpt>
      <trkpt lat="45.53052" lon="3.33625">
        <ele>516.47222900391</ele>
        <time>2020-05-23T21:52:42.080Z</time>
      </trkpt>
      <trkpt lat="45.53039" lon="3.33616">
        <ele>517.50946044922</ele>
        <time>2020-05-23T21:52:52.788Z</time>
      </trkpt>
      <trkpt lat="45.53024" lon="3.33612">
        <ele>519.06921386719</ele>
        <time>2020-05-23T21:53:03.499Z</time>
      </trkpt>
      <trkpt lat="45.52971" lon="3.33603">
        <ele>524.84185791016</ele>
        <time>2020-05-23T21:53:14.218Z</time>
      </trkpt>
      <trkpt lat="45.52949" lon="3.336">
        <ele>526.19030761719</ele>
        <time>2020-05-23T21:53:24.941Z</time>
      </trkpt>
      <trkpt lat="45.52936" lon="3.33601">
        <ele>527.00616455078</ele>
        <time>2020-05-23T21:53:35.666Z</time>
      </trkpt>
      <trkpt lat="45.52907" lon="3.33613">
        <ele>529.17779541016</ele>
        <time>2020-05-23T21:53:46.396Z</time>
      </trkpt>
      <trkpt lat="45.52875" lon="3.3363">
        <ele>534.21356201172</ele>
        <time>2020-05-23T21:53:57.131Z</time>
      </trkpt>
      <trkpt lat="45.52825" lon="3.33645">
        <ele>537.54516601562</ele>
        <time>2020-05-23T21:54:07.875Z</time>
      </trkpt>
      <trkpt lat="45.5282" lon="3.33647">
        <ele>538.33703613281</ele>
        <time>2020-05-23T21:54:18.619Z</time>
      </trkpt>
      <trkpt lat="45.52807" lon="3.33657">
        <ele>541.43249511719</ele>
        <time>2020-05-23T21:54:29.366Z</time>
      </trkpt>
      <trkpt lat="45.52806" lon="3.33659">
        <ele>541.93829345703</ele>
        <time>2020-05-23T21:54:40.113Z</time>
      </trkpt>
      <trkpt lat="45.52805" lon="3.3366">
        <ele>542.27807617188</ele>
        <time>2020-05-23T21:54:50.860Z</time>
      </trkpt>
      <trkpt lat="45.52802" lon="3.33664">
        <ele>543.30419921875</ele>
        <time>2020-05-23T21:55:01.608Z</time>
      </trkpt>
      <trkpt lat="45.52789" lon="3.33682">
        <ele>546.59191894531</ele>
        <time>2020-05-23T21:55:12.359Z</time>
      </trkpt>
      <trkpt lat="45.52777" lon="3.33705">
        <ele>550.56323242188</ele>
        <time>2020-05-23T21:55:23.113Z</time>
      </trkpt>
      <trkpt lat="45.52764" lon="3.33722">
        <ele>553.25079345703</ele>
        <time>2020-05-23T21:55:33.870Z</time>
      </trkpt>
      <trkpt lat="45.52734" lon="3.33736">
        <ele>554.76910400391</ele>
        <time>2020-05-23T21:55:44.632Z</time>
      </trkpt>
      <trkpt lat="45.5272" lon="3.33748">
        <ele>556.68878173828</ele>
        <time>2020-05-23T21:55:55.396Z</time>
      </trkpt>
      <trkpt lat="45.52709" lon="3.33755">
        <ele>557.7705078125</ele>
        <time>2020-05-23T21:56:06.162Z</time>
      </trkpt>
      <trkpt lat="45.52679" lon="3.33779">
        <ele>559.30706787109</ele>
        <time>2020-05-23T21:56:16.934Z</time>
      </trkpt>
      <trkpt lat="45.52664" lon="3.33798">
        <ele>561.74139404297</ele>
        <time>2020-05-23T21:56:27.709Z</time>
      </trkpt>
      <trkpt lat="45.52642" lon="3.33834">
        <ele>563.39715576172</ele>
        <time>2020-05-23T21:56:38.489Z</time>
      </trkpt>
      <trkpt lat="45.52624" lon="3.3388">
        <ele>565.29266357422</ele>
        <time>2020-05-23T21:56:49.275Z</time>
      </trkpt>
      <trkpt lat="45.52625" lon="3.33888">
        <ele>566.38446044922</ele>
        <time>2020-05-23T21:57:00.062Z</time>
      </trkpt>
      <trkpt lat="45.52622" lon="3.33912">
        <ele>568.29217529297</ele>
        <time>2020-05-23T21:57:10.852Z</time>
      </trkpt>
      <trkpt lat="45.52608" lon="3.33947">
        <ele>567.05297851562</ele>
        <time>2020-05-23T21:57:21.647Z</time>
      </trkpt>
      <trkpt lat="45.52603" lon="3.33967">
        <ele>567.11291503906</ele>
        <time>2020-05-23T21:57:32.444Z</time>
      </trkpt>
      <trkpt lat="45.52601" lon="3.33978">
        <ele>567.35290527344</ele>
        <time>2020-05-23T21:57:43.242Z</time>
      </trkpt>
      <trkpt lat="45.52593" lon="3.34036">
        <ele>564.42083740234</ele>
        <time>2020-05-23T21:57:54.047Z</time>
      </trkpt>
      <trkpt lat="45.52583" lon="3.34122">
        <ele>555.3525390625</ele>
        <time>2020-05-23T21:58:04.862Z</time>
      </trkpt>
      <trkpt lat="45.52576" lon="3.34158">
        <ele>551.76556396484</ele>
        <time>2020-05-23T21:58:15.681Z</time>
      </trkpt>
      <trkpt lat="45.52568" lon="3.34185">
        <ele>548.90515136719</ele>
        <time>2020-05-23T21:58:26.503Z</time>
      </trkpt>
      <trkpt lat="45.5256" lon="3.34185">
        <ele>547.75335693359</ele>
        <time>2020-05-23T21:58:37.326Z</time>
      </trkpt>
      <trkpt lat="45.52541" lon="3.34186">
        <ele>545.56341552734</ele>
        <time>2020-05-23T21:58:48.153Z</time>
      </trkpt>
      <trkpt lat="45.52541" lon="3.34186">
        <ele>545.56182861328</ele>
        <time>2020-05-23T21:58:58.980Z</time>
      </trkpt>
      <trkpt lat="45.5254" lon="3.34186">
        <ele>545.42156982422</ele>
        <time>2020-05-23T21:59:09.807Z</time>
      </trkpt>
      <trkpt lat="45.52537" lon="3.34186">
        <ele>545.10064697266</ele>
        <time>2020-05-23T21:59:20.634Z</time>
      </trkpt>
      <trkpt lat="45.52501" lon="3.34192">
        <ele>540.70935058594</ele>
        <time>2020-05-23T21:59:31.467Z</time>
      </trkpt>
      <trkpt lat="45.52477" lon="3.34194">
        <ele>538.15502929688</ele>
        <time>2020-05-23T21:59:42.304Z</time>
      </trkpt>
      <trkpt lat="45.52444" lon="3.34195">
        <ele>535.43774414062</ele>
        <time>2020-05-23T21:59:53.146Z</time>
      </trkpt>
      <trkpt lat="45.52434" lon="3.34192">
        <ele>534.54986572266</ele>
        <time>2020-05-23T22:00:03.990Z</time>
      </trkpt>
      <trkpt lat="45.52427" lon="3.34185">
        <ele>534.04595947266</ele>
        <time>2020-05-23T22:00:14.835Z</time>
      </trkpt>
      <trkpt lat="45.52373" lon="3.34118">
        <ele>527.46148681641</ele>
        <time>2020-05-23T22:00:25.692Z</time>
      </trkpt>
      <trkpt lat="45.52291" lon="3.34019">
        <ele>515.33508300781</ele>
        <time>2020-05-23T22:00:36.566Z</time>
      </trkpt>
      <trkpt lat="45.52264" lon="3.33995">
        <ele>511.13565063477</ele>
        <time>2020-05-23T22:00:47.445Z</time>
      </trkpt>
      <trkpt lat="45.52256" lon="3.33991">
        <ele>510.0798034668</ele>
        <time>2020-05-23T22:00:58.325Z</time>
      </trkpt>
      <trkpt lat="45.52242" lon="3.33987">
        <ele>508.44808959961</ele>
        <time>2020-05-23T22:01:09.208Z</time>
      </trkpt>
      <trkpt lat="45.52219" lon="3.33985">
        <ele>506.09649658203</ele>
        <time>2020-05-23T22:01:20.094Z</time>
      </trkpt>
      <trkpt lat="45.52189" lon="3.33988">
        <ele>503.64544677734</ele>
        <time>2020-05-23T22:01:30.985Z</time>
      </trkpt>
      <trkpt lat="45.52158" lon="3.33994">
        <ele>499.2541809082</ele>
        <time>2020-05-23T22:01:41.881Z</time>
      </trkpt>
      <trkpt lat="45.52117" lon="3.34004">
        <ele>494.75625610352</ele>
        <time>2020-05-23T22:01:52.784Z</time>
      </trkpt>
      <trkpt lat="45.5211" lon="3.34006">
        <ele>494.38430786133</ele>
        <time>2020-05-23T22:02:03.688Z</time>
      </trkpt>
      <trkpt lat="45.52105" lon="3.34003">
        <ele>494.01235961914</ele>
        <time>2020-05-23T22:02:14.593Z</time>
      </trkpt>
      <trkpt lat="45.521" lon="3.34013">
        <ele>493.95239257812</ele>
        <time>2020-05-23T22:02:25.499Z</time>
      </trkpt>
      <trkpt lat="45.52092" lon="3.34019">
        <ele>493.19689941406</ele>
        <time>2020-05-23T22:02:36.407Z</time>
      </trkpt>
      <trkpt lat="45.52076" lon="3.34031">
        <ele>491.51718139648</ele>
        <time>2020-05-23T22:02:47.317Z</time>
      </trkpt>
      <trkpt lat="45.52057" lon="3.34053">
        <ele>487.50369262695</ele>
        <time>2020-05-23T22:02:58.231Z</time>
      </trkpt>
      <trkpt lat="45.52047" lon="3.34067">
        <ele>485.3180847168</ele>
        <time>2020-05-23T22:03:09.148Z</time>
      </trkpt>
      <trkpt lat="45.52031" lon="3.34084">
        <ele>483.96380615234</ele>
        <time>2020-05-23T22:03:20.068Z</time>
      </trkpt>
      <trkpt lat="45.52" lon="3.34125">
        <ele>481.70532226562</ele>
        <time>2020-05-23T22:03:30.995Z</time>
      </trkpt>
      <trkpt lat="45.51982" lon="3.34153">
        <ele>477.96130371094</ele>
        <time>2020-05-23T22:03:41.926Z</time>
      </trkpt>
      <trkpt lat="45.51972" lon="3.34165">
        <ele>476.32955932617</ele>
        <time>2020-05-23T22:03:52.859Z</time>
      </trkpt>
      <trkpt lat="45.51946" lon="3.3418">
        <ele>474.37823486328</ele>
        <time>2020-05-23T22:04:03.796Z</time>
      </trkpt>
      <trkpt lat="45.51906" lon="3.34201">
        <ele>471.80950927734</ele>
        <time>2020-05-23T22:04:14.740Z</time>
      </trkpt>
      <trkpt lat="45.51871" lon="3.34225">
        <ele>466.49566650391</ele>
        <time>2020-05-23T22:04:25.690Z</time>
      </trkpt>
      <trkpt lat="45.51819" lon="3.34269">
        <ele>458.28680419922</ele>
        <time>2020-05-23T22:04:36.650Z</time>
      </trkpt>
      <trkpt lat="45.51801" lon="3.34284">
        <ele>455.66415405273</ele>
        <time>2020-05-23T22:04:47.613Z</time>
      </trkpt>
      <trkpt lat="45.51765" lon="3.34301">
        <ele>450.24865722656</ele>
        <time>2020-05-23T22:04:58.583Z</time>
      </trkpt>
      <trkpt lat="45.51732" lon="3.34314">
        <ele>446.10873413086</ele>
        <time>2020-05-23T22:05:09.558Z</time>
      </trkpt>
      <trkpt lat="45.517" lon="3.34321">
        <ele>442.28161621094</ele>
        <time>2020-05-23T22:05:20.538Z</time>
      </trkpt>
      <trkpt lat="45.51673" lon="3.34325">
        <ele>438.74221801758</ele>
        <time>2020-05-23T22:05:31.523Z</time>
      </trkpt>
      <trkpt lat="45.51656" lon="3.34331">
        <ele>435.97067260742</ele>
        <time>2020-05-23T22:05:42.510Z</time>
      </trkpt>
      <trkpt lat="45.51645" lon="3.34338">
        <ele>433.69104003906</ele>
        <time>2020-05-23T22:05:53.499Z</time>
      </trkpt>
      <trkpt lat="45.51641" lon="3.34345">
        <ele>432.16729736328</ele>
        <time>2020-05-23T22:06:04.489Z</time>
      </trkpt>
      <trkpt lat="45.5164" lon="3.34349">
        <ele>431.43542480469</ele>
        <time>2020-05-23T22:06:15.480Z</time>
      </trkpt>
      <trkpt lat="45.51642" lon="3.34359">
        <ele>429.95663452148</ele>
        <time>2020-05-23T22:06:26.472Z</time>
      </trkpt>
      <trkpt lat="45.51642" lon="3.3436">
        <ele>429.83361816406</ele>
        <time>2020-05-23T22:06:37.464Z</time>
      </trkpt>
      <trkpt lat="45.51642" lon="3.34361">
        <ele>429.74334716797</ele>
        <time>2020-05-23T22:06:48.456Z</time>
      </trkpt>
      <trkpt lat="45.51644" lon="3.34364">
        <ele>429.37768554688</ele>
        <time>2020-05-23T22:06:59.449Z</time>
      </trkpt>
      <trkpt lat="45.51652" lon="3.34376">
        <ele>428.27386474609</ele>
        <time>2020-05-23T22:07:10.443Z</time>
      </trkpt>
      <trkpt lat="45.51681" lon="3.34398">
        <ele>428.1418762207</ele>
        <time>2020-05-23T22:07:21.443Z</time>
      </trkpt>
      <trkpt lat="45.51692" lon="3.34408">
        <ele>427.7939453125</ele>
        <time>2020-05-23T22:07:32.445Z</time>
      </trkpt>
      <trkpt lat="45.51705" lon="3.34425">
        <ele>426.45016479492</ele>
        <time>2020-05-23T22:07:43.450Z</time>
      </trkpt>
      <trkpt lat="45.51715" lon="3.34437">
        <ele>425.53521728516</ele>
        <time>2020-05-23T22:07:54.457Z</time>
      </trkpt>
      <trkpt lat="45.5172" lon="3.34439">
        <ele>425.70300292969</ele>
        <time>2020-05-23T22:08:05.465Z</time>
      </trkpt>
      <trkpt lat="45.51737" lon="3.34444">
        <ele>426.21298217773</ele>
        <time>2020-05-23T22:08:16.475Z</time>
      </trkpt>
      <trkpt lat="45.51746" lon="3.3445">
        <ele>425.85305786133</ele>
        <time>2020-05-23T22:08:27.487Z</time>
      </trkpt>
      <trkpt lat="45.51752" lon="3.34458">
        <ele>424.94122314453</ele>
        <time>2020-05-23T22:08:38.500Z</time>
      </trkpt>
      <trkpt lat="45.51768" lon="3.34484">
        <ele>421.67166137695</ele>
        <time>2020-05-23T22:08:49.517Z</time>
      </trkpt>
      <trkpt lat="45.5177" lon="3.34495">
        <ele>419.75198364258</ele>
        <time>2020-05-23T22:09:00.535Z</time>
      </trkpt>
      <trkpt lat="45.5177" lon="3.34501">
        <ele>418.60018920898</ele>
        <time>2020-05-23T22:09:11.554Z</time>
      </trkpt>
      <trkpt lat="45.51767" lon="3.3451">
        <ele>416.58450317383</ele>
        <time>2020-05-23T22:09:22.574Z</time>
      </trkpt>
      <trkpt lat="45.51762" lon="3.34517">
        <ele>414.93548583984</ele>
        <time>2020-05-23T22:09:33.595Z</time>
      </trkpt>
      <trkpt lat="45.51747" lon="3.34524">
        <ele>412.57189941406</ele>
        <time>2020-05-23T22:09:44.619Z</time>
      </trkpt>
      <trkpt lat="45.51703" lon="3.34539">
        <ele>407.39657592773</ele>
        <time>2020-05-23T22:09:55.650Z</time>
      </trkpt>
      <trkpt lat="45.51633" lon="3.34565">
        <ele>402.58752441406</ele>
        <time>2020-05-23T22:10:06.693Z</time>
      </trkpt>
      <trkpt lat="45.5163" lon="3.34568">
        <ele>402.51553344727</ele>
        <time>2020-05-23T22:10:17.736Z</time>
      </trkpt>
      <trkpt lat="45.51627" lon="3.34576">
        <ele>402.50354003906</ele>
        <time>2020-05-23T22:10:28.780Z</time>
      </trkpt>
      <trkpt lat="45.51643" lon="3.34587">
        <ele>402.98699951172</ele>
        <time>2020-05-23T22:10:39.827Z</time>
      </trkpt>
      <trkpt lat="45.51675" lon="3.34611">
        <ele>403.6589050293</ele>
        <time>2020-05-23T22:10:50.880Z</time>
      </trkpt>
      <trkpt lat="45.5169" lon="3.34623">
        <ele>403.98284912109</ele>
        <time>2020-05-23T22:11:01.936Z</time>
      </trkpt>
      <trkpt lat="45.5173" lon="3.34653">
        <ele>404.51062011719</ele>
        <time>2020-05-23T22:11:12.999Z</time>
      </trkpt>
      <trkpt lat="45.51739" lon="3.34658">
        <ele>404.46264648438</ele>
        <time>2020-05-23T22:11:24.063Z</time>
      </trkpt>
      <trkpt lat="45.51773" lon="3.34671">
        <ele>404.2106628418</ele>
        <time>2020-05-23T22:11:35.133Z</time>
      </trkpt>
      <trkpt lat="45.51808" lon="3.34684">
        <ele>404.55673217773</ele>
        <time>2020-05-23T22:11:46.209Z</time>
      </trkpt>
      <trkpt lat="45.51828" lon="3.34698">
        <ele>405.54055786133</ele>
        <time>2020-05-23T22:11:57.288Z</time>
      </trkpt>
      <trkpt lat="45.51839" lon="3.3471">
        <ele>405.72052001953</ele>
        <time>2020-05-23T22:12:08.370Z</time>
      </trkpt>
      <trkpt lat="45.51848" lon="3.34724">
        <ele>405.51657104492</ele>
        <time>2020-05-23T22:12:19.454Z</time>
      </trkpt>
      <trkpt lat="45.51857" lon="3.34746">
        <ele>405.35955810547</ele>
        <time>2020-05-23T22:12:30.541Z</time>
      </trkpt>
      <trkpt lat="45.51862" lon="3.34781">
        <ele>405.47955322266</ele>
        <time>2020-05-23T22:12:41.632Z</time>
      </trkpt>
      <trkpt lat="45.51862" lon="3.34852">
        <ele>404.79629516602</ele>
        <time>2020-05-23T22:12:52.731Z</time>
      </trkpt>
      <trkpt lat="45.51865" lon="3.34907">
        <ele>402.96060180664</ele>
        <time>2020-05-23T22:13:03.836Z</time>
      </trkpt>
      <trkpt lat="45.51875" lon="3.34949">
        <ele>402.35534667969</ele>
        <time>2020-05-23T22:13:14.946Z</time>
      </trkpt>
      <trkpt lat="45.51922" lon="3.35079">
        <ele>403.33343505859</ele>
        <time>2020-05-23T22:13:26.072Z</time>
      </trkpt>
      <trkpt lat="45.51974" lon="3.35224">
        <ele>405.56604003906</ele>
        <time>2020-05-23T22:13:37.217Z</time>
      </trkpt>
      <trkpt lat="45.52003" lon="3.353">
        <ele>406.29022216797</ele>
        <time>2020-05-23T22:13:48.371Z</time>
      </trkpt>
      <trkpt lat="45.52009" lon="3.35326">
        <ele>407.46179199219</ele>
        <time>2020-05-23T22:13:59.528Z</time>
      </trkpt>
      <trkpt lat="45.52016" lon="3.35349">
        <ele>408.46435546875</ele>
        <time>2020-05-23T22:14:10.688Z</time>
      </trkpt>
      <trkpt lat="45.52016" lon="3.35354">
        <ele>408.66424560547</ele>
        <time>2020-05-23T22:14:21.849Z</time>
      </trkpt>
      <trkpt lat="45.52015" lon="3.35356">
        <ele>408.73107910156</ele>
        <time>2020-05-23T22:14:33.010Z</time>
      </trkpt>
      <trkpt lat="45.52015" lon="3.35359">
        <ele>408.83630371094</ele>
        <time>2020-05-23T22:14:44.171Z</time>
      </trkpt>
      <trkpt lat="45.52016" lon="3.35349">
        <ele>408.46435546875</ele>
        <time>2020-05-23T22:14:55.334Z</time>
      </trkpt>
      <trkpt lat="45.52027" lon="3.35381">
        <ele>409.48419189453</ele>
        <time>2020-05-23T22:15:06.501Z</time>
      </trkpt>
      <trkpt lat="45.52078" lon="3.35428">
        <ele>410.56399536133</ele>
        <time>2020-05-23T22:15:17.677Z</time>
      </trkpt>
      <trkpt lat="45.52198" lon="3.35545">
        <ele>414.59777832031</ele>
        <time>2020-05-23T22:15:28.877Z</time>
      </trkpt>
      <trkpt lat="45.52313" lon="3.35656">
        <ele>413.80023193359</ele>
        <time>2020-05-23T22:15:40.099Z</time>
      </trkpt>
      <trkpt lat="45.52429" lon="3.35763">
        <ele>419.689453125</ele>
        <time>2020-05-23T22:15:51.343Z</time>
      </trkpt>
      <trkpt lat="45.52539" lon="3.35799">
        <ele>422.10437011719</ele>
        <time>2020-05-23T22:16:02.605Z</time>
      </trkpt>
      <trkpt lat="45.52701" lon="3.35829">
        <ele>424.50964355469</ele>
        <time>2020-05-23T22:16:13.893Z</time>
      </trkpt>
      <trkpt lat="45.52782" lon="3.35844">
        <ele>424.1416015625</ele>
        <time>2020-05-23T22:16:25.194Z</time>
      </trkpt>
      <trkpt lat="45.52837" lon="3.35865">
        <ele>424.10153198242</ele>
        <time>2020-05-23T22:16:36.504Z</time>
      </trkpt>
      <trkpt lat="45.52861" lon="3.3587">
        <ele>423.32165527344</ele>
        <time>2020-05-23T22:16:47.818Z</time>
      </trkpt>
      <trkpt lat="45.52903" lon="3.35877">
        <ele>422.41500854492</ele>
        <time>2020-05-23T22:16:59.139Z</time>
      </trkpt>
      <trkpt lat="45.53003" lon="3.35886">
        <ele>424.63912963867</ele>
        <time>2020-05-23T22:17:10.476Z</time>
      </trkpt>
      <trkpt lat="45.5312" lon="3.35877">
        <ele>421.09777832031</ele>
        <time>2020-05-23T22:17:21.832Z</time>
      </trkpt>
      <trkpt lat="45.53187" lon="3.35895">
        <ele>422.18103027344</ele>
        <time>2020-05-23T22:17:33.199Z</time>
      </trkpt>
      <trkpt lat="45.53244" lon="3.35918">
        <ele>423.20355224609</ele>
        <time>2020-05-23T22:17:44.575Z</time>
      </trkpt>
      <trkpt lat="45.53443" lon="3.35955">
        <ele>423.01641845703</ele>
        <time>2020-05-23T22:17:55.983Z</time>
      </trkpt>
      <trkpt lat="45.5358" lon="3.35981">
        <ele>422.64770507812</ele>
        <time>2020-05-23T22:18:07.413Z</time>
      </trkpt>
      <trkpt lat="45.53761" lon="3.36027">
        <ele>428.70358276367</ele>
        <time>2020-05-23T22:18:18.873Z</time>
      </trkpt>
      <trkpt lat="45.53918" lon="3.36075">
        <ele>428.82498168945</ele>
        <time>2020-05-23T22:18:30.359Z</time>
      </trkpt>
      <trkpt lat="45.53965" lon="3.36096">
        <ele>427.07327270508</ele>
        <time>2020-05-23T22:18:41.852Z</time>
      </trkpt>
      <trkpt lat="45.54029" lon="3.36143">
        <ele>429.37048339844</ele>
        <time>2020-05-23T22:18:53.357Z</time>
      </trkpt>
      <trkpt lat="45.54272" lon="3.36343">
        <ele>434.54153442383</ele>
        <time>2020-05-23T22:19:04.907Z</time>
      </trkpt>
      <trkpt lat="45.54319" lon="3.36405">
        <ele>436.15545654297</ele>
        <time>2020-05-23T22:19:16.467Z</time>
      </trkpt>
      <trkpt lat="45.54385" lon="3.36505">
        <ele>435.11303710938</ele>
        <time>2020-05-23T22:19:28.043Z</time>
      </trkpt>
      <trkpt lat="45.5447" lon="3.36632">
        <ele>437.41070556641</ele>
        <time>2020-05-23T22:19:39.638Z</time>
      </trkpt>
      <trkpt lat="45.54531" lon="3.36733">
        <ele>439.24499511719</ele>
        <time>2020-05-23T22:19:51.248Z</time>
      </trkpt>
      <trkpt lat="45.54561" lon="3.3679">
        <ele>440.06164550781</ele>
        <time>2020-05-23T22:20:02.866Z</time>
      </trkpt>
      <trkpt lat="45.54591" lon="3.36862">
        <ele>440.20562744141</ele>
        <time>2020-05-23T22:20:14.494Z</time>
      </trkpt>
      <trkpt lat="45.54621" lon="3.36938">
        <ele>440.78872680664</ele>
        <time>2020-05-23T22:20:26.131Z</time>
      </trkpt>
      <trkpt lat="45.54672" lon="3.36986">
        <ele>440</ele>
        <time>2020-05-23T22:20:37.778Z</time>
      </trkpt>
      <trkpt lat="45.54723" lon="3.37022">
        <ele>440.1321105957</ele>
        <time>2020-05-23T22:20:49.434Z</time>
      </trkpt>
      <trkpt lat="45.54774" lon="3.3705">
        <ele>440.85174560547</ele>
        <time>2020-05-23T22:21:01.099Z</time>
      </trkpt>
      <trkpt lat="45.54811" lon="3.37072">
        <ele>441.74530029297</ele>
        <time>2020-05-23T22:21:12.771Z</time>
      </trkpt>
      <trkpt lat="45.54838" lon="3.37078">
        <ele>442.86111450195</ele>
        <time>2020-05-23T22:21:24.447Z</time>
      </trkpt>
      <trkpt lat="45.54916" lon="3.37061">
        <ele>444.87902832031</ele>
        <time>2020-05-23T22:21:36.136Z</time>
      </trkpt>
      <trkpt lat="45.54938" lon="3.37055">
        <ele>445.2629699707</ele>
        <time>2020-05-23T22:21:47.828Z</time>
      </trkpt>
      <trkpt lat="45.54943" lon="3.37056">
        <ele>445.4069519043</ele>
        <time>2020-05-23T22:21:59.521Z</time>
      </trkpt>
      <trkpt lat="45.54944" lon="3.37079">
        <ele>445.98284912109</ele>
        <time>2020-05-23T22:22:11.217Z</time>
      </trkpt>
      <trkpt lat="45.54944" lon="3.37084">
        <ele>446.1028137207</ele>
        <time>2020-05-23T22:22:22.913Z</time>
      </trkpt>
      <trkpt lat="45.54949" lon="3.37124">
        <ele>446.55520629883</ele>
        <time>2020-05-23T22:22:34.614Z</time>
      </trkpt>
      <trkpt lat="45.54962" lon="3.37154">
        <ele>446.86715698242</ele>
        <time>2020-05-23T22:22:46.319Z</time>
      </trkpt>
      <trkpt lat="45.54956" lon="3.37161">
        <ele>446.72317504883</ele>
        <time>2020-05-23T22:22:58.025Z</time>
      </trkpt>
      <trkpt lat="45.5496" lon="3.37193">
        <ele>446.63830566406</ele>
        <time>2020-05-23T22:23:09.735Z</time>
      </trkpt>
      <trkpt lat="45.54957" lon="3.37213">
        <ele>446.49435424805</ele>
        <time>2020-05-23T22:23:21.447Z</time>
      </trkpt>
      <trkpt lat="45.54965" lon="3.37247">
        <ele>446.87826538086</ele>
        <time>2020-05-23T22:23:33.163Z</time>
      </trkpt>
      <trkpt lat="45.5498" lon="3.37295">
        <ele>447.98046875</ele>
        <time>2020-05-23T22:23:44.885Z</time>
      </trkpt>
      <trkpt lat="45.54995" lon="3.37356">
        <ele>448.86831665039</ele>
        <time>2020-05-23T22:23:56.614Z</time>
      </trkpt>
      <trkpt lat="45.5501" lon="3.37453">
        <ele>449.81475830078</ele>
        <time>2020-05-23T22:24:08.354Z</time>
      </trkpt>
      <trkpt lat="45.55013" lon="3.37486">
        <ele>449.92984008789</ele>
        <time>2020-05-23T22:24:20.098Z</time>
      </trkpt>
      <trkpt lat="45.55021" lon="3.3753">
        <ele>450.84875488281</ele>
        <time>2020-05-23T22:24:31.847Z</time>
      </trkpt>
      <trkpt lat="45.5503" lon="3.3753">
        <ele>451.49664306641</ele>
        <time>2020-05-23T22:24:43.597Z</time>
      </trkpt>
      <trkpt lat="45.55071" lon="3.37525">
        <ele>455.28866577148</ele>
        <time>2020-05-23T22:24:55.354Z</time>
      </trkpt>
      <trkpt lat="45.55096" lon="3.37525">
        <ele>458.28814697266</ele>
        <time>2020-05-23T22:25:07.115Z</time>
      </trkpt>
      <trkpt lat="45.55124" lon="3.37562">
        <ele>461.20367431641</ele>
        <time>2020-05-23T22:25:18.882Z</time>
      </trkpt>
      <trkpt lat="45.55156" lon="3.37561">
        <ele>462.96551513672</ele>
        <time>2020-05-23T22:25:30.654Z</time>
      </trkpt>
      <trkpt lat="45.55186" lon="3.3756">
        <ele>463.62112426758</ele>
        <time>2020-05-23T22:25:42.431Z</time>
      </trkpt>
      <trkpt lat="45.55197" lon="3.37558">
        <ele>463.75311279297</ele>
        <time>2020-05-23T22:25:54.210Z</time>
      </trkpt>
      <trkpt lat="45.55228" lon="3.37686">
        <ele>466.16979980469</ele>
        <time>2020-05-23T22:26:06.004Z</time>
      </trkpt>
      <trkpt lat="45.55224" lon="3.3775">
        <ele>469.22082519531</ele>
        <time>2020-05-23T22:26:17.805Z</time>
      </trkpt>
      <trkpt lat="45.55211" lon="3.37849">
        <ele>469.62994384766</ele>
        <time>2020-05-23T22:26:29.618Z</time>
      </trkpt>
      <trkpt lat="45.55192" lon="3.37988">
        <ele>471.89178466797</ele>
        <time>2020-05-23T22:26:41.447Z</time>
      </trkpt>
      <trkpt lat="45.55183" lon="3.38062">
        <ele>473.95245361328</ele>
        <time>2020-05-23T22:26:53.284Z</time>
      </trkpt>
      <trkpt lat="45.55186" lon="3.38099">
        <ele>475.1994934082</ele>
        <time>2020-05-23T22:27:05.125Z</time>
      </trkpt>
      <trkpt lat="45.55214" lon="3.38179">
        <ele>477.51184082031</ele>
        <time>2020-05-23T22:27:16.976Z</time>
      </trkpt>
      <trkpt lat="45.55241" lon="3.38231">
        <ele>483.8678894043</ele>
        <time>2020-05-23T22:27:28.835Z</time>
      </trkpt>
      <trkpt lat="45.55248" lon="3.38276">
        <ele>486.07217407227</ele>
        <time>2020-05-23T22:27:40.699Z</time>
      </trkpt>
      <trkpt lat="45.55247" lon="3.38323">
        <ele>487.23046875</ele>
        <time>2020-05-23T22:27:52.568Z</time>
      </trkpt>
      <trkpt lat="45.55237" lon="3.38411">
        <ele>484.99075317383</ele>
        <time>2020-05-23T22:28:04.447Z</time>
      </trkpt>
      <trkpt lat="45.55227" lon="3.38515">
        <ele>479.82907104492</ele>
        <time>2020-05-23T22:28:16.338Z</time>
      </trkpt>
      <trkpt lat="45.55243" lon="3.38574">
        <ele>484.52453613281</ele>
        <time>2020-05-23T22:28:28.236Z</time>
      </trkpt>
      <trkpt lat="45.5525" lon="3.38604">
        <ele>487.06909179688</ele>
        <time>2020-05-23T22:28:40.138Z</time>
      </trkpt>
      <trkpt lat="45.55252" lon="3.3866">
        <ele>491.44381713867</ele>
        <time>2020-05-23T22:28:52.046Z</time>
      </trkpt>
      <trkpt lat="45.5526" lon="3.38733">
        <ele>494.37890625</ele>
        <time>2020-05-23T22:29:03.962Z</time>
      </trkpt>
      <trkpt lat="45.55272" lon="3.3877">
        <ele>497.99923706055</ele>
        <time>2020-05-23T22:29:15.883Z</time>
      </trkpt>
      <trkpt lat="45.55283" lon="3.3879">
        <ele>498.22720336914</ele>
        <time>2020-05-23T22:29:27.807Z</time>
      </trkpt>
      <trkpt lat="45.5531" lon="3.38842">
        <ele>497.93655395508</ele>
        <time>2020-05-23T22:29:39.738Z</time>
      </trkpt>
      <trkpt lat="45.5535" lon="3.38892">
        <ele>492.47079467773</ele>
        <time>2020-05-23T22:29:51.677Z</time>
      </trkpt>
      <trkpt lat="45.55386" lon="3.38912">
        <ele>495.66983032227</ele>
        <time>2020-05-23T22:30:03.623Z</time>
      </trkpt>
      <trkpt lat="45.55428" lon="3.38917">
        <ele>498.28540039062</ele>
        <time>2020-05-23T22:30:15.575Z</time>
      </trkpt>
      <trkpt lat="45.55474" lon="3.38917">
        <ele>503.25256347656</ele>
        <time>2020-05-23T22:30:27.535Z</time>
      </trkpt>
      <trkpt lat="45.55538" lon="3.38908">
        <ele>513.24005126953</ele>
        <time>2020-05-23T22:30:39.505Z</time>
      </trkpt>
      <trkpt lat="45.55555" lon="3.38916">
        <ele>512.5029296875</ele>
        <time>2020-05-23T22:30:51.478Z</time>
      </trkpt>
      <trkpt lat="45.55568" lon="3.38931">
        <ele>510.87118530273</ele>
        <time>2020-05-23T22:31:03.453Z</time>
      </trkpt>
      <trkpt lat="45.55578" lon="3.38971">
        <ele>507.14782714844</ele>
        <time>2020-05-23T22:31:15.433Z</time>
      </trkpt>
      <trkpt lat="45.55579" lon="3.39018">
        <ele>500.45153808594</ele>
        <time>2020-05-23T22:31:27.419Z</time>
      </trkpt>
      <trkpt lat="45.55563" lon="3.39082">
        <ele>497.57012939453</ele>
        <time>2020-05-23T22:31:39.412Z</time>
      </trkpt>
      <trkpt lat="45.55529" lon="3.39169">
        <ele>505.01110839844</ele>
        <time>2020-05-23T22:31:51.416Z</time>
      </trkpt>
      <trkpt lat="45.5552" lon="3.39196">
        <ele>506.32608032227</ele>
        <time>2020-05-23T22:32:03.424Z</time>
      </trkpt>
      <trkpt lat="45.55519" lon="3.39223">
        <ele>508.14978027344</ele>
        <time>2020-05-23T22:32:15.435Z</time>
      </trkpt>
      <trkpt lat="45.55526" lon="3.39267">
        <ele>509.03439331055</ele>
        <time>2020-05-23T22:32:27.451Z</time>
      </trkpt>
      <trkpt lat="45.55539" lon="3.39312">
        <ele>512.69378662109</ele>
        <time>2020-05-23T22:32:39.472Z</time>
      </trkpt>
      <trkpt lat="45.55545" lon="3.3934">
        <ele>514.46948242188</ele>
        <time>2020-05-23T22:32:51.497Z</time>
      </trkpt>
      <trkpt lat="45.55542" lon="3.39354">
        <ele>513.03332519531</ele>
        <time>2020-05-23T22:33:03.523Z</time>
      </trkpt>
      <trkpt lat="45.55529" lon="3.39374">
        <ele>508.17413330078</ele>
        <time>2020-05-23T22:33:15.552Z</time>
      </trkpt>
      <trkpt lat="45.55507" lon="3.39392">
        <ele>500.86950683594</ele>
        <time>2020-05-23T22:33:27.585Z</time>
      </trkpt>
      <trkpt lat="45.5546" lon="3.39429">
        <ele>490.615234375</ele>
        <time>2020-05-23T22:33:39.627Z</time>
      </trkpt>
      <trkpt lat="45.55407" lon="3.39444">
        <ele>492.94546508789</ele>
        <time>2020-05-23T22:33:51.678Z</time>
      </trkpt>
      <trkpt lat="45.55387" lon="3.3945">
        <ele>494.33361816406</ele>
        <time>2020-05-23T22:34:03.732Z</time>
      </trkpt>
      <trkpt lat="45.55374" lon="3.39462">
        <ele>498.97348022461</ele>
        <time>2020-05-23T22:34:15.788Z</time>
      </trkpt>
      <trkpt lat="45.55325" lon="3.39524">
        <ele>502.50039672852</ele>
        <time>2020-05-23T22:34:27.855Z</time>
      </trkpt>
      <trkpt lat="45.55314" lon="3.39554">
        <ele>503.75967407227</ele>
        <time>2020-05-23T22:34:39.926Z</time>
      </trkpt>
      <trkpt lat="45.55313" lon="3.39578">
        <ele>504.44354248047</ele>
        <time>2020-05-23T22:34:51.999Z</time>
      </trkpt>
      <trkpt lat="45.55321" lon="3.39603">
        <ele>507.1237487793</ele>
        <time>2020-05-23T22:35:04.075Z</time>
      </trkpt>
      <trkpt lat="45.55339" lon="3.39647">
        <ele>514.34729003906</ele>
        <time>2020-05-23T22:35:16.157Z</time>
      </trkpt>
      <trkpt lat="45.55344" lon="3.39671">
        <ele>516.47094726562</ele>
        <time>2020-05-23T22:35:28.242Z</time>
      </trkpt>
      <trkpt lat="45.55343" lon="3.397">
        <ele>517.4833984375</ele>
        <time>2020-05-23T22:35:40.330Z</time>
      </trkpt>
      <trkpt lat="45.55315" lon="3.39764">
        <ele>511.86087036133</ele>
        <time>2020-05-23T22:35:52.427Z</time>
      </trkpt>
      <trkpt lat="45.55268" lon="3.3984">
        <ele>522.60205078125</ele>
        <time>2020-05-23T22:36:04.535Z</time>
      </trkpt>
      <trkpt lat="45.55258" lon="3.39872">
        <ele>524.61151123047</ele>
        <time>2020-05-23T22:36:16.647Z</time>
      </trkpt>
      <trkpt lat="45.55261" lon="3.39896">
        <ele>527.20050048828</ele>
        <time>2020-05-23T22:36:28.762Z</time>
      </trkpt>
      <trkpt lat="45.55289" lon="3.3993">
        <ele>531.15985107422</ele>
        <time>2020-05-23T22:36:40.883Z</time>
      </trkpt>
      <trkpt lat="45.55297" lon="3.39958">
        <ele>532.38775634766</ele>
        <time>2020-05-23T22:36:53.007Z</time>
      </trkpt>
      <trkpt lat="45.55295" lon="3.39981">
        <ele>532.07580566406</ele>
        <time>2020-05-23T22:37:05.134Z</time>
      </trkpt>
      <trkpt lat="45.55272" lon="3.40039">
        <ele>531.36737060547</ele>
        <time>2020-05-23T22:37:17.268Z</time>
      </trkpt>
      <trkpt lat="45.55256" lon="3.40071">
        <ele>531.0244140625</ele>
        <time>2020-05-23T22:37:29.407Z</time>
      </trkpt>
      <trkpt lat="45.55246" lon="3.40108">
        <ele>530.08721923828</ele>
        <time>2020-05-23T22:37:41.550Z</time>
      </trkpt>
      <trkpt lat="45.55247" lon="3.40146">
        <ele>532.23718261719</ele>
        <time>2020-05-23T22:37:53.697Z</time>
      </trkpt>
      <trkpt lat="45.55256" lon="3.40169">
        <ele>535.36865234375</ele>
        <time>2020-05-23T22:38:05.847Z</time>
      </trkpt>
      <trkpt lat="45.55284" lon="3.40222">
        <ele>542.20983886719</ele>
        <time>2020-05-23T22:38:18.005Z</time>
      </trkpt>
      <trkpt lat="45.55293" lon="3.40256">
        <ele>542.89373779297</ele>
        <time>2020-05-23T22:38:30.167Z</time>
      </trkpt>
      <trkpt lat="45.55294" lon="3.40282">
        <ele>542.92279052734</ele>
        <time>2020-05-23T22:38:42.332Z</time>
      </trkpt>
      <trkpt lat="45.55278" lon="3.40331">
        <ele>537.65899658203</ele>
        <time>2020-05-23T22:38:54.503Z</time>
      </trkpt>
      <trkpt lat="45.55246" lon="3.40384">
        <ele>530.48510742188</ele>
        <time>2020-05-23T22:39:06.682Z</time>
      </trkpt>
      <trkpt lat="45.55237" lon="3.40416">
        <ele>529.62127685547</ele>
        <time>2020-05-23T22:39:18.865Z</time>
      </trkpt>
      <trkpt lat="45.55226" lon="3.40483">
        <ele>532.69720458984</ele>
        <time>2020-05-23T22:39:31.055Z</time>
      </trkpt>
      <trkpt lat="45.55225" lon="3.40526">
        <ele>534.85485839844</ele>
        <time>2020-05-23T22:39:43.250Z</time>
      </trkpt>
      <trkpt lat="45.55233" lon="3.40557">
        <ele>537.47045898438</ele>
        <time>2020-05-23T22:39:55.449Z</time>
      </trkpt>
      <trkpt lat="45.55249" lon="3.40592">
        <ele>543.34948730469</ele>
        <time>2020-05-23T22:40:07.653Z</time>
      </trkpt>
      <trkpt lat="45.55281" lon="3.40646">
        <ele>541.22442626953</ele>
        <time>2020-05-23T22:40:19.865Z</time>
      </trkpt>
      <trkpt lat="45.55361" lon="3.40752">
        <ele>542.30590820312</ele>
        <time>2020-05-23T22:40:32.094Z</time>
      </trkpt>
      <trkpt lat="45.55385" lon="3.40777">
        <ele>543.39880371094</ele>
        <time>2020-05-23T22:40:44.328Z</time>
      </trkpt>
      <trkpt lat="45.55409" lon="3.40794">
        <ele>542.97888183594</ele>
        <time>2020-05-23T22:40:56.566Z</time>
      </trkpt>
      <trkpt lat="45.55487" lon="3.40817">
        <ele>555.94012451172</ele>
        <time>2020-05-23T22:41:08.817Z</time>
      </trkpt>
      <trkpt lat="45.55512" lon="3.40833">
        <ele>559.45550537109</ele>
        <time>2020-05-23T22:41:21.072Z</time>
      </trkpt>
      <trkpt lat="45.55531" lon="3.40862">
        <ele>557.15875244141</ele>
        <time>2020-05-23T22:41:33.332Z</time>
      </trkpt>
      <trkpt lat="45.55552" lon="3.40886">
        <ele>557.5546875</ele>
        <time>2020-05-23T22:41:45.596Z</time>
      </trkpt>
      <trkpt lat="45.55583" lon="3.40898">
        <ele>564.88543701172</ele>
        <time>2020-05-23T22:41:57.865Z</time>
      </trkpt>
      <trkpt lat="45.55601" lon="3.40905">
        <ele>569.13275146484</ele>
        <time>2020-05-23T22:42:10.137Z</time>
      </trkpt>
      <trkpt lat="45.55616" lon="3.40921">
        <ele>569.74462890625</ele>
        <time>2020-05-23T22:42:22.412Z</time>
      </trkpt>
      <trkpt lat="45.55625" lon="3.4094">
        <ele>568.58215332031</ele>
        <time>2020-05-23T22:42:34.690Z</time>
      </trkpt>
      <trkpt lat="45.55633" lon="3.40974">
        <ele>566.47045898438</ele>
        <time>2020-05-23T22:42:46.972Z</time>
      </trkpt>
      <trkpt lat="45.55634" lon="3.41015">
        <ele>560.93078613281</ele>
        <time>2020-05-23T22:42:59.258Z</time>
      </trkpt>
      <trkpt lat="45.55632" lon="3.41051">
        <ele>560.87457275391</ele>
        <time>2020-05-23T22:43:11.548Z</time>
      </trkpt>
      <trkpt lat="45.55619" lon="3.4112">
        <ele>562.99768066406</ele>
        <time>2020-05-23T22:43:23.846Z</time>
      </trkpt>
      <trkpt lat="45.55606" lon="3.4119">
        <ele>568.49359130859</ele>
        <time>2020-05-23T22:43:36.153Z</time>
      </trkpt>
      <trkpt lat="45.556" lon="3.41247">
        <ele>575.00122070312</ele>
        <time>2020-05-23T22:43:48.466Z</time>
      </trkpt>
      <trkpt lat="45.55603" lon="3.41317">
        <ele>584.19348144531</ele>
        <time>2020-05-23T22:44:00.787Z</time>
      </trkpt>
      <trkpt lat="45.55605" lon="3.41348">
        <ele>587.45672607422</ele>
        <time>2020-05-23T22:44:13.111Z</time>
      </trkpt>
      <trkpt lat="45.55599" lon="3.41408">
        <ele>588.00219726562</ele>
        <time>2020-05-23T22:44:25.442Z</time>
      </trkpt>
      <trkpt lat="45.55588" lon="3.41468">
        <ele>589.95916748047</ele>
        <time>2020-05-23T22:44:37.780Z</time>
      </trkpt>
      <trkpt lat="45.55588" lon="3.41508">
        <ele>591.04315185547</ele>
        <time>2020-05-23T22:44:50.123Z</time>
      </trkpt>
      <trkpt lat="45.55594" lon="3.41552">
        <ele>587.99658203125</ele>
        <time>2020-05-23T22:45:02.471Z</time>
      </trkpt>
      <trkpt lat="45.55603" lon="3.41576">
        <ele>590.37854003906</ele>
        <time>2020-05-23T22:45:14.822Z</time>
      </trkpt>
      <trkpt lat="45.55632" lon="3.41632">
        <ele>593.37854003906</ele>
        <time>2020-05-23T22:45:27.181Z</time>
      </trkpt>
      <trkpt lat="45.55635" lon="3.41654">
        <ele>590.43328857422</ele>
        <time>2020-05-23T22:45:39.542Z</time>
      </trkpt>
      <trkpt lat="45.5563" lon="3.41679">
        <ele>584.6376953125</ele>
        <time>2020-05-23T22:45:51.906Z</time>
      </trkpt>
      <trkpt lat="45.55624" lon="3.41706">
        <ele>583.26806640625</ele>
        <time>2020-05-23T22:46:04.273Z</time>
      </trkpt>
      <trkpt lat="45.55626" lon="3.41729">
        <ele>582.60821533203</ele>
        <time>2020-05-23T22:46:16.643Z</time>
      </trkpt>
      <trkpt lat="45.55642" lon="3.4177">
        <ele>586.36993408203</ele>
        <time>2020-05-23T22:46:29.018Z</time>
      </trkpt>
      <trkpt lat="45.5565" lon="3.41803">
        <ele>590.58123779297</ele>
        <time>2020-05-23T22:46:41.397Z</time>
      </trkpt>
      <trkpt lat="45.55656" lon="3.41901">
        <ele>597.41040039062</ele>
        <time>2020-05-23T22:46:53.787Z</time>
      </trkpt>
      <trkpt lat="45.55647" lon="3.41936">
        <ele>594.14727783203</ele>
        <time>2020-05-23T22:47:06.181Z</time>
      </trkpt>
      <trkpt lat="45.55631" lon="3.41961">
        <ele>593.61737060547</ele>
        <time>2020-05-23T22:47:18.579Z</time>
      </trkpt>
      <trkpt lat="45.55619" lon="3.41992">
        <ele>601.65600585938</ele>
        <time>2020-05-23T22:47:30.981Z</time>
      </trkpt>
      <trkpt lat="45.55606" lon="3.42015">
        <ele>597.16571044922</ele>
        <time>2020-05-23T22:47:43.386Z</time>
      </trkpt>
      <trkpt lat="45.5558" lon="3.42028">
        <ele>588.36218261719</ele>
        <time>2020-05-23T22:47:55.796Z</time>
      </trkpt>
      <trkpt lat="45.55567" lon="3.4204">
        <ele>584.41931152344</ele>
        <time>2020-05-23T22:48:08.208Z</time>
      </trkpt>
      <trkpt lat="45.55554" lon="3.4209">
        <ele>583.47143554688</ele>
        <time>2020-05-23T22:48:20.626Z</time>
      </trkpt>
      <trkpt lat="45.55531" lon="3.4217">
        <ele>590.46630859375</ele>
        <time>2020-05-23T22:48:33.054Z</time>
      </trkpt>
      <trkpt lat="45.55495" lon="3.42247">
        <ele>597.89044189453</ele>
        <time>2020-05-23T22:48:45.492Z</time>
      </trkpt>
      <trkpt lat="45.55468" lon="3.4227">
        <ele>594.04510498047</ele>
        <time>2020-05-23T22:48:57.935Z</time>
      </trkpt>
      <trkpt lat="45.55441" lon="3.42284">
        <ele>601.41607666016</ele>
        <time>2020-05-23T22:49:10.383Z</time>
      </trkpt>
      <trkpt lat="45.55377" lon="3.42319">
        <ele>607.45745849609</ele>
        <time>2020-05-23T22:49:22.842Z</time>
      </trkpt>
      <trkpt lat="45.55365" lon="3.42332">
        <ele>612.14654541016</ele>
        <time>2020-05-23T22:49:35.303Z</time>
      </trkpt>
      <trkpt lat="45.55356" lon="3.42353">
        <ele>610.09057617188</ele>
        <time>2020-05-23T22:49:47.767Z</time>
      </trkpt>
      <trkpt lat="45.55344" lon="3.42419">
        <ele>614.50152587891</ele>
        <time>2020-05-23T22:50:00.239Z</time>
      </trkpt>
      <trkpt lat="45.55344" lon="3.4245">
        <ele>612.328125</ele>
        <time>2020-05-23T22:50:12.714Z</time>
      </trkpt>
      <trkpt lat="45.55351" lon="3.42479">
        <ele>612.60406494141</ele>
        <time>2020-05-23T22:50:25.193Z</time>
      </trkpt>
      <trkpt lat="45.55386" lon="3.42546">
        <ele>616.26068115234</ele>
        <time>2020-05-23T22:50:37.681Z</time>
      </trkpt>
      <trkpt lat="45.554" lon="3.426">
        <ele>613.94976806641</ele>
        <time>2020-05-23T22:50:50.176Z</time>
      </trkpt>
      <trkpt lat="45.554" lon="3.42669">
        <ele>612.25225830078</ele>
        <time>2020-05-23T22:51:02.678Z</time>
      </trkpt>
      <trkpt lat="45.55389" lon="3.42707">
        <ele>613.45178222656</ele>
        <time>2020-05-23T22:51:15.185Z</time>
      </trkpt>
      <trkpt lat="45.55349" lon="3.42798">
        <ele>626.22979736328</ele>
        <time>2020-05-23T22:51:27.704Z</time>
      </trkpt>
      <trkpt lat="45.55309" lon="3.42923">
        <ele>630.45989990234</ele>
        <time>2020-05-23T22:51:40.239Z</time>
      </trkpt>
      <trkpt lat="45.55309" lon="3.42956">
        <ele>631.67230224609</ele>
        <time>2020-05-23T22:51:52.777Z</time>
      </trkpt>
      <trkpt lat="45.55316" lon="3.42969">
        <ele>634.67181396484</ele>
        <time>2020-05-23T22:52:05.317Z</time>
      </trkpt>
      <trkpt lat="45.55354" lon="3.4301">
        <ele>650.24523925781</ele>
        <time>2020-05-23T22:52:17.865Z</time>
      </trkpt>
      <trkpt lat="45.55364" lon="3.43059">
        <ele>650.56372070312</ele>
        <time>2020-05-23T22:52:30.418Z</time>
      </trkpt>
      <trkpt lat="45.5536" lon="3.4311">
        <ele>650.36419677734</ele>
        <time>2020-05-23T22:52:42.977Z</time>
      </trkpt>
      <trkpt lat="45.55349" lon="3.43172">
        <ele>648.40087890625</ele>
        <time>2020-05-23T22:52:55.543Z</time>
      </trkpt>
      <trkpt lat="45.55352" lon="3.43196">
        <ele>649.45910644531</ele>
        <time>2020-05-23T22:53:08.112Z</time>
      </trkpt>
      <trkpt lat="45.55383" lon="3.4328">
        <ele>653.86791992188</ele>
        <time>2020-05-23T22:53:20.692Z</time>
      </trkpt>
      <trkpt lat="45.55397" lon="3.4335">
        <ele>654.58374023438</ele>
        <time>2020-05-23T22:53:33.280Z</time>
      </trkpt>
      <trkpt lat="45.55394" lon="3.4338">
        <ele>652.22174072266</ele>
        <time>2020-05-23T22:53:45.871Z</time>
      </trkpt>
      <trkpt lat="45.55382" lon="3.43423">
        <ele>647.35809326172</ele>
        <time>2020-05-23T22:53:58.468Z</time>
      </trkpt>
      <trkpt lat="45.55353" lon="3.4349">
        <ele>655.28216552734</ele>
        <time>2020-05-23T22:54:11.073Z</time>
      </trkpt>
      <trkpt lat="45.55345" lon="3.43537">
        <ele>651.63262939453</ele>
        <time>2020-05-23T22:54:23.684Z</time>
      </trkpt>
      <trkpt lat="45.5535" lon="3.43562">
        <ele>651.57263183594</ele>
        <time>2020-05-23T22:54:36.298Z</time>
      </trkpt>
      <trkpt lat="45.55394" lon="3.43615">
        <ele>657.61993408203</ele>
        <time>2020-05-23T22:54:48.921Z</time>
      </trkpt>
      <trkpt lat="45.55414" lon="3.43637">
        <ele>662.80303955078</ele>
        <time>2020-05-23T22:55:01.548Z</time>
      </trkpt>
      <trkpt lat="45.55428" lon="3.43663">
        <ele>664.65075683594</ele>
        <time>2020-05-23T22:55:14.179Z</time>
      </trkpt>
      <trkpt lat="45.55433" lon="3.43689">
        <ele>663.95379638672</ele>
        <time>2020-05-23T22:55:26.813Z</time>
      </trkpt>
      <trkpt lat="45.5543" lon="3.43743">
        <ele>664.85388183594</ele>
        <time>2020-05-23T22:55:39.453Z</time>
      </trkpt>
      <trkpt lat="45.55426" lon="3.43775">
        <ele>665.21160888672</ele>
        <time>2020-05-23T22:55:52.097Z</time>
      </trkpt>
      <trkpt lat="45.55402" lon="3.43813">
        <ele>660.46466064453</ele>
        <time>2020-05-23T22:56:04.746Z</time>
      </trkpt>
      <trkpt lat="45.55372" lon="3.43842">
        <ele>657.02679443359</ele>
        <time>2020-05-23T22:56:17.401Z</time>
      </trkpt>
      <trkpt lat="45.55322" lon="3.43875">
        <ele>655.07946777344</ele>
        <time>2020-05-23T22:56:30.065Z</time>
      </trkpt>
      <trkpt lat="45.55282" lon="3.43904">
        <ele>652.37609863281</ele>
        <time>2020-05-23T22:56:42.736Z</time>
      </trkpt>
      <trkpt lat="45.55264" lon="3.4392">
        <ele>650.68420410156</ele>
        <time>2020-05-23T22:56:55.410Z</time>
      </trkpt>
      <trkpt lat="45.55257" lon="3.43935">
        <ele>649.40563964844</ele>
        <time>2020-05-23T22:57:08.087Z</time>
      </trkpt>
      <trkpt lat="45.55252" lon="3.4396">
        <ele>651.025390625</ele>
        <time>2020-05-23T22:57:20.766Z</time>
      </trkpt>
      <trkpt lat="45.55258" lon="3.43983">
        <ele>654.04583740234</ele>
        <time>2020-05-23T22:57:33.448Z</time>
      </trkpt>
      <trkpt lat="45.55272" lon="3.44006">
        <ele>658.3291015625</ele>
        <time>2020-05-23T22:57:46.134Z</time>
      </trkpt>
      <trkpt lat="45.55303" lon="3.44036">
        <ele>662.23309326172</ele>
        <time>2020-05-23T22:57:58.826Z</time>
      </trkpt>
      <trkpt lat="45.55361" lon="3.4409">
        <ele>674.54302978516</ele>
        <time>2020-05-23T22:58:11.529Z</time>
      </trkpt>
      <trkpt lat="45.5539" lon="3.44142">
        <ele>673.71044921875</ele>
        <time>2020-05-23T22:58:24.239Z</time>
      </trkpt>
      <trkpt lat="45.55399" lon="3.44173">
        <ele>670.14703369141</ele>
        <time>2020-05-23T22:58:36.953Z</time>
      </trkpt>
      <trkpt lat="45.55398" lon="3.44229">
        <ele>661.15911865234</ele>
        <time>2020-05-23T22:58:49.673Z</time>
      </trkpt>
      <trkpt lat="45.55392" lon="3.44311">
        <ele>655.46356201172</ele>
        <time>2020-05-23T22:59:02.403Z</time>
      </trkpt>
      <trkpt lat="45.55385" lon="3.44343">
        <ele>655.04364013672</ele>
        <time>2020-05-23T22:59:15.136Z</time>
      </trkpt>
      <trkpt lat="45.55368" lon="3.4438">
        <ele>657.67816162109</ele>
        <time>2020-05-23T22:59:27.874Z</time>
      </trkpt>
      <trkpt lat="45.55314" lon="3.44451">
        <ele>660.88812255859</ele>
        <time>2020-05-23T22:59:40.624Z</time>
      </trkpt>
      <trkpt lat="45.55278" lon="3.44507">
        <ele>667.87341308594</ele>
        <time>2020-05-23T22:59:53.383Z</time>
      </trkpt>
      <trkpt lat="45.55269" lon="3.44537">
        <ele>667.59136962891</ele>
        <time>2020-05-23T23:00:06.145Z</time>
      </trkpt>
      <trkpt lat="45.55262" lon="3.4462">
        <ele>671.25842285156</ele>
        <time>2020-05-23T23:00:18.917Z</time>
      </trkpt>
      <trkpt lat="45.55249" lon="3.44683">
        <ele>670.0771484375</ele>
        <time>2020-05-23T23:00:31.696Z</time>
      </trkpt>
      <trkpt lat="45.55248" lon="3.44715">
        <ele>665.24108886719</ele>
        <time>2020-05-23T23:00:44.479Z</time>
      </trkpt>
      <trkpt lat="45.55256" lon="3.44737">
        <ele>666.15295410156</ele>
        <time>2020-05-23T23:00:57.264Z</time>
      </trkpt>
      <trkpt lat="45.55277" lon="3.44755">
        <ele>667.59271240234</ele>
        <time>2020-05-23T23:01:10.053Z</time>
      </trkpt>
      <trkpt lat="45.55303" lon="3.44761">
        <ele>669.64855957031</ele>
        <time>2020-05-23T23:01:22.847Z</time>
      </trkpt>
      <trkpt lat="45.55362" lon="3.44761">
        <ele>666.81701660156</ele>
        <time>2020-05-23T23:01:35.650Z</time>
      </trkpt>
      <trkpt lat="45.55374" lon="3.44756">
        <ele>667.02099609375</ele>
        <time>2020-05-23T23:01:48.455Z</time>
      </trkpt>
      <trkpt lat="45.554" lon="3.44727">
        <ele>672.91314697266</ele>
        <time>2020-05-23T23:02:01.265Z</time>
      </trkpt>
      <trkpt lat="45.55415" lon="3.44713">
        <ele>675.75805664062</ele>
        <time>2020-05-23T23:02:14.078Z</time>
      </trkpt>
      <trkpt lat="45.55448" lon="3.44702">
        <ele>675.36212158203</ele>
        <time>2020-05-23T23:02:26.897Z</time>
      </trkpt>
      <trkpt lat="45.55522" lon="3.44706">
        <ele>677.63189697266</ele>
        <time>2020-05-23T23:02:39.727Z</time>
      </trkpt>
      <trkpt lat="45.55549" lon="3.44714">
        <ele>678.25579833984</ele>
        <time>2020-05-23T23:02:52.562Z</time>
      </trkpt>
      <trkpt lat="45.55562" lon="3.44733">
        <ele>678.87243652344</ele>
        <time>2020-05-23T23:03:05.400Z</time>
      </trkpt>
      <trkpt lat="45.55568" lon="3.44777">
        <ele>676.32885742188</ele>
        <time>2020-05-23T23:03:18.243Z</time>
      </trkpt>
      <trkpt lat="45.55565" lon="3.44842">
        <ele>673.27758789062</ele>
        <time>2020-05-23T23:03:31.093Z</time>
      </trkpt>
      <trkpt lat="45.55574" lon="3.44865">
        <ele>673.74548339844</ele>
        <time>2020-05-23T23:03:43.946Z</time>
      </trkpt>
      <trkpt lat="45.55594" lon="3.44912">
        <ele>675.40893554688</ele>
        <time>2020-05-23T23:03:56.805Z</time>
      </trkpt>
      <trkpt lat="45.55601" lon="3.44935">
        <ele>676.09326171875</ele>
        <time>2020-05-23T23:04:09.667Z</time>
      </trkpt>
      <trkpt lat="45.55617" lon="3.44961">
        <ele>678.94879150391</ele>
        <time>2020-05-23T23:04:22.533Z</time>
      </trkpt>
      <trkpt lat="45.55634" lon="3.44984">
        <ele>681.81634521484</ele>
        <time>2020-05-23T23:04:35.403Z</time>
      </trkpt>
      <trkpt lat="45.55635" lon="3.45006">
        <ele>682.71997070312</ele>
        <time>2020-05-23T23:04:48.275Z</time>
      </trkpt>
      <trkpt lat="45.55622" lon="3.45061">
        <ele>686.10375976562</ele>
        <time>2020-05-23T23:05:01.154Z</time>
      </trkpt>
      <trkpt lat="45.55623" lon="3.45098">
        <ele>689.39239501953</ele>
        <time>2020-05-23T23:05:14.037Z</time>
      </trkpt>
      <trkpt lat="45.55631" lon="3.4512">
        <ele>690.99475097656</ele>
        <time>2020-05-23T23:05:26.923Z</time>
      </trkpt>
      <trkpt lat="45.5565" lon="3.4515">
        <ele>693.64874267578</ele>
        <time>2020-05-23T23:05:39.813Z</time>
      </trkpt>
      <trkpt lat="45.55655" lon="3.4517">
        <ele>694.12866210938</ele>
        <time>2020-05-23T23:05:52.706Z</time>
      </trkpt>
      <trkpt lat="45.55646" lon="3.45196">
        <ele>692.75604248047</ele>
        <time>2020-05-23T23:06:05.602Z</time>
      </trkpt>
      <trkpt lat="45.55632" lon="3.45204">
        <ele>693.21472167969</ele>
        <time>2020-05-23T23:06:18.500Z</time>
      </trkpt>
      <trkpt lat="45.55612" lon="3.45204">
        <ele>690.09521484375</ele>
        <time>2020-05-23T23:06:31.402Z</time>
      </trkpt>
      <trkpt lat="45.55594" lon="3.4521">
        <ele>688.00756835938</ele>
        <time>2020-05-23T23:06:44.306Z</time>
      </trkpt>
      <trkpt lat="45.55585" lon="3.4523">
        <ele>688.51989746094</ele>
        <time>2020-05-23T23:06:57.213Z</time>
      </trkpt>
      <trkpt lat="45.55556" lon="3.4535">
        <ele>699.92889404297</ele>
        <time>2020-05-23T23:07:10.134Z</time>
      </trkpt>
      <trkpt lat="45.55523" lon="3.45416">
        <ele>706.43719482422</ele>
        <time>2020-05-23T23:07:23.065Z</time>
      </trkpt>
      <trkpt lat="45.55482" lon="3.45483">
        <ele>704.11822509766</ele>
        <time>2020-05-23T23:07:36.006Z</time>
      </trkpt>
      <trkpt lat="45.55461" lon="3.45522">
        <ele>702.63031005859</ele>
        <time>2020-05-23T23:07:48.952Z</time>
      </trkpt>
      <trkpt lat="45.55458" lon="3.45543">
        <ele>702.66632080078</ele>
        <time>2020-05-23T23:08:01.900Z</time>
      </trkpt>
      <trkpt lat="45.55462" lon="3.45566">
        <ele>704.45404052734</ele>
        <time>2020-05-23T23:08:14.851Z</time>
      </trkpt>
      <trkpt lat="45.55477" lon="3.4559">
        <ele>708.91729736328</ele>
        <time>2020-05-23T23:08:27.806Z</time>
      </trkpt>
      <trkpt lat="45.55496" lon="3.45614">
        <ele>713.45666503906</ele>
        <time>2020-05-23T23:08:40.765Z</time>
      </trkpt>
      <trkpt lat="45.55512" lon="3.4565">
        <ele>716.20355224609</ele>
        <time>2020-05-23T23:08:53.729Z</time>
      </trkpt>
      <trkpt lat="45.55524" lon="3.45713">
        <ele>716.46472167969</ele>
        <time>2020-05-23T23:09:06.700Z</time>
      </trkpt>
      <trkpt lat="45.5555" lon="3.4578">
        <ele>720.3046875</ele>
        <time>2020-05-23T23:09:19.680Z</time>
      </trkpt>
      <trkpt lat="45.5556" lon="3.45826">
        <ele>718.62176513672</ele>
        <time>2020-05-23T23:09:32.665Z</time>
      </trkpt>
      <trkpt lat="45.55573" lon="3.45848">
        <ele>719.94152832031</ele>
        <time>2020-05-23T23:09:45.653Z</time>
      </trkpt>
      <trkpt lat="45.55601" lon="3.4588">
        <ele>725.73370361328</ele>
        <time>2020-05-23T23:09:58.647Z</time>
      </trkpt>
      <trkpt lat="45.55611" lon="3.45908">
        <ele>727.02947998047</ele>
        <time>2020-05-23T23:10:11.644Z</time>
      </trkpt>
      <trkpt lat="45.55607" lon="3.45924">
        <ele>726.32495117188</ele>
        <time>2020-05-23T23:10:24.643Z</time>
      </trkpt>
      <trkpt lat="45.55594" lon="3.4594">
        <ele>724.74633789062</ele>
        <time>2020-05-23T23:10:37.645Z</time>
      </trkpt>
      <trkpt lat="45.55575" lon="3.45946">
        <ele>721.66284179688</ele>
        <time>2020-05-23T23:10:50.650Z</time>
      </trkpt>
      <trkpt lat="45.55544" lon="3.45959">
        <ele>718.13433837891</ele>
        <time>2020-05-23T23:11:03.660Z</time>
      </trkpt>
      <trkpt lat="45.55531" lon="3.45981">
        <ele>718.77026367188</ele>
        <time>2020-05-23T23:11:16.674Z</time>
      </trkpt>
      <trkpt lat="45.55514" lon="3.46028">
        <ele>719.30078125</ele>
        <time>2020-05-23T23:11:29.694Z</time>
      </trkpt>
      <trkpt lat="45.55507" lon="3.46053">
        <ele>718.44891357422</ele>
        <time>2020-05-23T23:11:42.717Z</time>
      </trkpt>
      <trkpt lat="45.55512" lon="3.46076">
        <ele>721.50842285156</ele>
        <time>2020-05-23T23:11:55.742Z</time>
      </trkpt>
      <trkpt lat="45.5554" lon="3.46111">
        <ele>731.05798339844</ele>
        <time>2020-05-23T23:12:08.773Z</time>
      </trkpt>
      <trkpt lat="45.55597" lon="3.46215">
        <ele>741.57342529297</ele>
        <time>2020-05-23T23:12:21.819Z</time>
      </trkpt>
      <trkpt lat="45.55611" lon="3.46253">
        <ele>744.16345214844</ele>
        <time>2020-05-23T23:12:34.870Z</time>
      </trkpt>
      <trkpt lat="45.55613" lon="3.46272">
        <ele>744.32110595703</ele>
        <time>2020-05-23T23:12:47.923Z</time>
      </trkpt>
      <trkpt lat="45.55605" lon="3.46292">
        <ele>740.96166992188</ele>
        <time>2020-05-23T23:13:00.979Z</time>
      </trkpt>
      <trkpt lat="45.5559" lon="3.46312">
        <ele>736.49896240234</ele>
        <time>2020-05-23T23:13:14.038Z</time>
      </trkpt>
      <trkpt lat="45.5557" lon="3.46326">
        <ele>734.72326660156</ele>
        <time>2020-05-23T23:13:27.101Z</time>
      </trkpt>
      <trkpt lat="45.55539" lon="3.46338">
        <ele>730.787109375</ele>
        <time>2020-05-23T23:13:40.169Z</time>
      </trkpt>
      <trkpt lat="45.55516" lon="3.46352">
        <ele>730.08612060547</ele>
        <time>2020-05-23T23:13:53.241Z</time>
      </trkpt>
      <trkpt lat="45.55505" lon="3.46371">
        <ele>730.81799316406</ele>
        <time>2020-05-23T23:14:06.315Z</time>
      </trkpt>
      <trkpt lat="45.55492" lon="3.4642">
        <ele>733.99475097656</ele>
        <time>2020-05-23T23:14:19.395Z</time>
      </trkpt>
      <trkpt lat="45.55488" lon="3.46462">
        <ele>736.33850097656</ele>
        <time>2020-05-23T23:14:32.480Z</time>
      </trkpt>
      <trkpt lat="45.55497" lon="3.46496">
        <ele>739.26599121094</ele>
        <time>2020-05-23T23:14:45.569Z</time>
      </trkpt>
      <trkpt lat="45.55522" lon="3.46538">
        <ele>744.35528564453</ele>
        <time>2020-05-23T23:14:58.664Z</time>
      </trkpt>
      <trkpt lat="45.55548" lon="3.46618">
        <ele>750.29498291016</ele>
        <time>2020-05-23T23:15:11.769Z</time>
      </trkpt>
      <trkpt lat="45.55549" lon="3.46642">
        <ele>752.01068115234</ele>
        <time>2020-05-23T23:15:24.877Z</time>
      </trkpt>
      <trkpt lat="45.55539" lon="3.46676">
        <ele>751.41522216797</ele>
        <time>2020-05-23T23:15:37.989Z</time>
      </trkpt>
      <trkpt lat="45.55522" lon="3.4671">
        <ele>753.25299072266</ele>
        <time>2020-05-23T23:15:51.106Z</time>
      </trkpt>
      <trkpt lat="45.55498" lon="3.46743">
        <ele>755.01080322266</ele>
        <time>2020-05-23T23:16:04.228Z</time>
      </trkpt>
      <trkpt lat="45.55416" lon="3.46853">
        <ele>756.13861083984</ele>
        <time>2020-05-23T23:16:17.368Z</time>
      </trkpt>
      <trkpt lat="45.55392" lon="3.4689">
        <ele>756.62066650391</ele>
        <time>2020-05-23T23:16:30.514Z</time>
      </trkpt>
      <trkpt lat="45.55371" lon="3.46934">
        <ele>761.36566162109</ele>
        <time>2020-05-23T23:16:43.666Z</time>
      </trkpt>
      <trkpt lat="45.55366" lon="3.46965">
        <ele>760.72973632812</ele>
        <time>2020-05-23T23:16:56.821Z</time>
      </trkpt>
      <trkpt lat="45.5537" lon="3.47">
        <ele>762.67340087891</ele>
        <time>2020-05-23T23:17:09.980Z</time>
      </trkpt>
      <trkpt lat="45.55377" lon="3.47024">
        <ele>763.96661376953</ele>
        <time>2020-05-23T23:17:23.142Z</time>
      </trkpt>
      <trkpt lat="45.55396" lon="3.47046">
        <ele>768.06451416016</ele>
        <time>2020-05-23T23:17:36.308Z</time>
      </trkpt>
      <trkpt lat="45.5542" lon="3.47071">
        <ele>774.56744384766</ele>
        <time>2020-05-23T23:17:49.479Z</time>
      </trkpt>
      <trkpt lat="45.55432" lon="3.47097">
        <ele>776.19915771484</ele>
        <time>2020-05-23T23:18:02.654Z</time>
      </trkpt>
      <trkpt lat="45.55433" lon="3.47126">
        <ele>776.29290771484</ele>
        <time>2020-05-23T23:18:15.832Z</time>
      </trkpt>
      <trkpt lat="45.55428" lon="3.47154">
        <ele>774.44226074219</ele>
        <time>2020-05-23T23:18:29.013Z</time>
      </trkpt>
      <trkpt lat="45.55412" lon="3.47225">
        <ele>768.65863037109</ele>
        <time>2020-05-23T23:18:42.202Z</time>
      </trkpt>
      <trkpt lat="45.55407" lon="3.47266">
        <ele>767.90277099609</ele>
        <time>2020-05-23T23:18:55.396Z</time>
      </trkpt>
      <trkpt lat="45.55413" lon="3.47298">
        <ele>767.47271728516</ele>
        <time>2020-05-23T23:19:08.594Z</time>
      </trkpt>
      <trkpt lat="45.55442" lon="3.47364">
        <ele>773.44915771484</ele>
        <time>2020-05-23T23:19:21.801Z</time>
      </trkpt>
      <trkpt lat="45.55465" lon="3.47448">
        <ele>774.34057617188</ele>
        <time>2020-05-23T23:19:35.018Z</time>
      </trkpt>
      <trkpt lat="45.5548" lon="3.47477">
        <ele>774.68060302734</ele>
        <time>2020-05-23T23:19:48.239Z</time>
      </trkpt>
      <trkpt lat="45.5552" lon="3.4753">
        <ele>777.42529296875</ele>
        <time>2020-05-23T23:20:01.469Z</time>
      </trkpt>
      <trkpt lat="45.55542" lon="3.47575">
        <ele>775.68560791016</ele>
        <time>2020-05-23T23:20:14.705Z</time>
      </trkpt>
      <trkpt lat="45.55545" lon="3.47608">
        <ele>772.724609375</ele>
        <time>2020-05-23T23:20:27.944Z</time>
      </trkpt>
      <trkpt lat="45.55541" lon="3.47626">
        <ele>771.57281494141</ele>
        <time>2020-05-23T23:20:41.186Z</time>
      </trkpt>
      <trkpt lat="45.5552" lon="3.47652">
        <ele>767.17102050781</ele>
        <time>2020-05-23T23:20:54.432Z</time>
      </trkpt>
      <trkpt lat="45.55479" lon="3.47677">
        <ele>764.73541259766</ele>
        <time>2020-05-23T23:21:07.685Z</time>
      </trkpt>
      <trkpt lat="45.55444" lon="3.47711">
        <ele>765.32861328125</ele>
        <time>2020-05-23T23:21:20.945Z</time>
      </trkpt>
      <trkpt lat="45.55421" lon="3.4775">
        <ele>766.79278564453</ele>
        <time>2020-05-23T23:21:34.211Z</time>
      </trkpt>
      <trkpt lat="45.55404" lon="3.47793">
        <ele>768.20556640625</ele>
        <time>2020-05-23T23:21:47.482Z</time>
      </trkpt>
      <trkpt lat="45.55373" lon="3.47913">
        <ele>772.96856689453</ele>
        <time>2020-05-23T23:22:00.768Z</time>
      </trkpt>
      <trkpt lat="45.55374" lon="3.47961">
        <ele>773.10943603516</ele>
        <time>2020-05-23T23:22:14.059Z</time>
      </trkpt>
      <trkpt lat="45.55384" lon="3.47997">
        <ele>774.40521240234</ele>
        <time>2020-05-23T23:22:27.354Z</time>
      </trkpt>
      <trkpt lat="45.55421" lon="3.48081">
        <ele>776.271484375</ele>
        <time>2020-05-23T23:22:40.660Z</time>
      </trkpt>
      <trkpt lat="45.55436" lon="3.48139">
        <ele>773.78790283203</ele>
        <time>2020-05-23T23:22:53.973Z</time>
      </trkpt>
      <trkpt lat="45.55468" lon="3.48186">
        <ele>776.748046875</ele>
        <time>2020-05-23T23:23:07.294Z</time>
      </trkpt>
      <trkpt lat="45.55489" lon="3.48202">
        <ele>778.77075195312</ele>
        <time>2020-05-23T23:23:20.619Z</time>
      </trkpt>
      <trkpt lat="45.55509" lon="3.48211">
        <ele>781.26629638672</ele>
        <time>2020-05-23T23:23:33.947Z</time>
      </trkpt>
      <trkpt lat="45.55527" lon="3.4823">
        <ele>782.46612548828</ele>
        <time>2020-05-23T23:23:47.279Z</time>
      </trkpt>
      <trkpt lat="45.55539" lon="3.48269">
        <ele>780.65771484375</ele>
        <time>2020-05-23T23:24:00.615Z</time>
      </trkpt>
      <trkpt lat="45.55573" lon="3.48347">
        <ele>781.95465087891</ele>
        <time>2020-05-23T23:24:13.962Z</time>
      </trkpt>
      <trkpt lat="45.55589" lon="3.48386">
        <ele>784.77856445312</ele>
        <time>2020-05-23T23:24:27.314Z</time>
      </trkpt>
      <trkpt lat="45.55605" lon="3.48475">
        <ele>785.60803222656</ele>
        <time>2020-05-23T23:24:40.676Z</time>
      </trkpt>
      <trkpt lat="45.55613" lon="3.48538">
        <ele>785.34161376953</ele>
        <time>2020-05-23T23:24:54.045Z</time>
      </trkpt>
      <trkpt lat="45.55612" lon="3.48612">
        <ele>785.91619873047</ele>
        <time>2020-05-23T23:25:07.423Z</time>
      </trkpt>
      <trkpt lat="45.55606" lon="3.4865">
        <ele>789.25164794922</ele>
        <time>2020-05-23T23:25:20.805Z</time>
      </trkpt>
      <trkpt lat="45.55597" lon="3.4867">
        <ele>788.94458007812</ele>
        <time>2020-05-23T23:25:34.190Z</time>
      </trkpt>
      <trkpt lat="45.55569" lon="3.48698">
        <ele>784.04156494141</ele>
        <time>2020-05-23T23:25:47.580Z</time>
      </trkpt>
      <trkpt lat="45.55556" lon="3.4873">
        <ele>781.95568847656</ele>
        <time>2020-05-23T23:26:00.974Z</time>
      </trkpt>
      <trkpt lat="45.55556" lon="3.48749">
        <ele>782.63958740234</ele>
        <time>2020-05-23T23:26:14.370Z</time>
      </trkpt>
      <trkpt lat="45.55572" lon="3.48797">
        <ele>786.95739746094</ele>
        <time>2020-05-23T23:26:27.772Z</time>
      </trkpt>
      <trkpt lat="45.55618" lon="3.4892">
        <ele>792.33166503906</ele>
        <time>2020-05-23T23:26:41.190Z</time>
      </trkpt>
      <trkpt lat="45.55634" lon="3.48935">
        <ele>795.79150390625</ele>
        <time>2020-05-23T23:26:54.611Z</time>
      </trkpt>
      <trkpt lat="45.55653" lon="3.48943">
        <ele>798.37200927734</ele>
        <time>2020-05-23T23:27:08.035Z</time>
      </trkpt>
      <trkpt lat="45.55667" lon="3.48955">
        <ele>800.31567382812</ele>
        <time>2020-05-23T23:27:21.462Z</time>
      </trkpt>
      <trkpt lat="45.55674" lon="3.48975">
        <ele>801.58447265625</ele>
        <time>2020-05-23T23:27:34.891Z</time>
      </trkpt>
      <trkpt lat="45.55675" lon="3.49">
        <ele>800.28869628906</ele>
        <time>2020-05-23T23:27:48.323Z</time>
      </trkpt>
      <trkpt lat="45.55665" lon="3.49019">
        <ele>797.49835205078</ele>
        <time>2020-05-23T23:28:01.758Z</time>
      </trkpt>
      <trkpt lat="45.5563" lon="3.49047">
        <ele>795.19067382812</ele>
        <time>2020-05-23T23:28:15.199Z</time>
      </trkpt>
      <trkpt lat="45.55612" lon="3.49066">
        <ele>794.49475097656</ele>
        <time>2020-05-23T23:28:28.644Z</time>
      </trkpt>
      <trkpt lat="45.55591" lon="3.49099">
        <ele>795.50256347656</ele>
        <time>2020-05-23T23:28:42.094Z</time>
      </trkpt>
      <trkpt lat="45.55574" lon="3.49116">
        <ele>793.52429199219</ele>
        <time>2020-05-23T23:28:55.547Z</time>
      </trkpt>
      <trkpt lat="45.55532" lon="3.49142">
        <ele>790.66619873047</ele>
        <time>2020-05-23T23:29:09.008Z</time>
      </trkpt>
      <trkpt lat="45.55405" lon="3.4921">
        <ele>787.85339355469</ele>
        <time>2020-05-23T23:29:22.490Z</time>
      </trkpt>
      <trkpt lat="45.55369" lon="3.49242">
        <ele>792.74853515625</ele>
        <time>2020-05-23T23:29:35.979Z</time>
      </trkpt>
      <trkpt lat="45.5536" lon="3.4926">
        <ele>793.96923828125</ele>
        <time>2020-05-23T23:29:49.471Z</time>
      </trkpt>
      <trkpt lat="45.55351" lon="3.49301">
        <ele>796.69598388672</ele>
        <time>2020-05-23T23:30:02.967Z</time>
      </trkpt>
      <trkpt lat="45.55352" lon="3.49339">
        <ele>796.58892822266</ele>
        <time>2020-05-23T23:30:16.468Z</time>
      </trkpt>
      <trkpt lat="45.55361" lon="3.49385">
        <ele>797.11120605469</ele>
        <time>2020-05-23T23:30:29.974Z</time>
      </trkpt>
      <trkpt lat="45.55375" lon="3.49446">
        <ele>798.41271972656</ele>
        <time>2020-05-23T23:30:43.487Z</time>
      </trkpt>
      <trkpt lat="45.55401" lon="3.49502">
        <ele>801.06762695312</ele>
        <time>2020-05-23T23:30:57.008Z</time>
      </trkpt>
      <trkpt lat="45.55425" lon="3.49546">
        <ele>805.45184326172</ele>
        <time>2020-05-23T23:31:10.535Z</time>
      </trkpt>
      <trkpt lat="45.5543" lon="3.4957">
        <ele>805.78839111328</ele>
        <time>2020-05-23T23:31:24.065Z</time>
      </trkpt>
      <trkpt lat="45.55429" lon="3.49613">
        <ele>804.49261474609</ele>
        <time>2020-05-23T23:31:37.600Z</time>
      </trkpt>
      <trkpt lat="45.55414" lon="3.49674">
        <ele>802.26123046875</ele>
        <time>2020-05-23T23:31:51.142Z</time>
      </trkpt>
      <trkpt lat="45.55397" lon="3.49717">
        <ele>798.93157958984</ele>
        <time>2020-05-23T23:32:04.689Z</time>
      </trkpt>
      <trkpt lat="45.55382" lon="3.49735">
        <ele>797.56597900391</ele>
        <time>2020-05-23T23:32:18.240Z</time>
      </trkpt>
      <trkpt lat="45.55359" lon="3.49746">
        <ele>797.31317138672</ele>
        <time>2020-05-23T23:32:31.795Z</time>
      </trkpt>
      <trkpt lat="45.55337" lon="3.49749">
        <ele>797.72106933594</ele>
        <time>2020-05-23T23:32:45.353Z</time>
      </trkpt>
      <trkpt lat="45.55297" lon="3.49743">
        <ele>798.00726318359</ele>
        <time>2020-05-23T23:32:58.917Z</time>
      </trkpt>
      <trkpt lat="45.55261" lon="3.49744">
        <ele>798.728515625</ele>
        <time>2020-05-23T23:33:12.487Z</time>
      </trkpt>
      <trkpt lat="45.55222" lon="3.49761">
        <ele>798.93243408203</ele>
        <time>2020-05-23T23:33:26.064Z</time>
      </trkpt>
      <trkpt lat="45.55189" lon="3.49792">
        <ele>799.72076416016</ele>
        <time>2020-05-23T23:33:39.647Z</time>
      </trkpt>
      <trkpt lat="45.55176" lon="3.49813">
        <ele>800.84613037109</ele>
        <time>2020-05-23T23:33:53.233Z</time>
      </trkpt>
      <trkpt lat="45.55166" lon="3.49832">
        <ele>801.3740234375</ele>
        <time>2020-05-23T23:34:06.822Z</time>
      </trkpt>
      <trkpt lat="45.5517" lon="3.49831">
        <ele>801.63800048828</ele>
        <time>2020-05-23T23:34:20.412Z</time>
      </trkpt>
      <trkpt lat="45.5518" lon="3.49829">
        <ele>802.33245849609</ele>
        <time>2020-05-23T23:34:34.003Z</time>
      </trkpt>
    </trkseg>
  </trk>
</gpx>